GFSWCAN_prec_cloud_003.txt.gz
Cloud_Cover
7 13 96 67 45 87 100 99 97 86 100 98 98 100 100 100 100 100 100 100 100 100 100 8 17 98 88 100 100 100 100 100 100 100 100 100 19 100 100 82 9 0 5 100 100 100 100 100 100 36 0 0 0 5
8 13 64 100 100 100 52 100 95 96 100 100 100 97 98 100 100 100 94 90 100 100 100 13 44 71 100 100 100 100 100 100 100 100 94 74 96 87 100 6 5 0 62 100 53 46 100 95 100 100 69 0 50 54
11 43 100 100 100 100 100 80 100 100 100 100 100 83 100 100 100 100 100 100 100 100 100 5 5 8 100 94 100 100 100 100 100 100 100 100 100 100 77 16 62 0 15 81 100 95 100 65 89 100 57 28 100 75
27 90 100 100 98 80 100 99 95 100 100 94 97 100 100 100 100 100 100 100 100 100 100 41 96 100 100 100 100 100 100 100 100 100 100 100 100 100 21 29 6 53 100 100 100 100 100 100 100 100 99 9 7 34
20 37 100 100 84 96 89 93 100 100 76 100 100 100 100 100 100 100 100 100 100 100 63 100 100 100 100 100 100 100 100 100 100 100 100 100 100 100 52 86 82 100 100 100 100 100 100 100 100 100 100 100 83 100
5 97 100 83 100 100 96 100 100 100 100 99 100 100 100 100 100 100 100 100 100 98 100 100 100 100 100 100 100 100 100 100 100 100 100 100 100 100 96 100 100 100 100 100 100 100 100 100 100 100 100 100 100 100
28 82 94 91 98 15 60 90 100 100 100 100 100 100 100 100 100 100 100 100 100 100 100 100 100 100 100 100 100 100 100 100 100 100 100 100 100 96 100 100 100 100 100 100 100 100 100 100 100 100 99 100 100 100
71 73 84 92 98 91 81 100 100 100 100 100 100 100 100 100 100 100 100 100 100 100 100 100 100 100 100 100 100 100 100 100 100 100 100 100 98 100 100 100 100 100 100 100 100 100 100 100 100 100 100 100 100 100
5 5 13 95 87 94 70 96 100 63 42 67 100 100 100 100 100 100 100 100 100 100 100 100 100 100 100 100 100 100 100 100 100 100 100 100 100 100 100 100 100 100 100 100 100 100 100 100 100 100 100 100 100 100
7 35 64 58 82 100 100 100 100 75 5 100 99 100 95 98 100 100 100 100 100 100 100 100 100 100 100 100 100 100 100 100 100 100 100 100 100 100 100 100 100 100 100 100 100 100 100 100 100 100 100 100 100 100
100 100 100 96 75 13 63 95 41 100 60 94 96 100 99 74 90 100 100 100 100 100 100 100 100 100 100 100 100 100 100 100 100 100 100 100 100 100 100 100 100 100 100 100 100 100 100 100 100 100 100 100 100 100
84 38 94 64 7 58 51 99 100 93 97 100 99 100 100 100 99 65 69 98 100 100 100 100 100 100 100 100 100 100 100 100 100 100 100 100 100 100 100 100 100 100 100 100 100 100 100 100 100 100 100 100 56 14
7 5 16 6 8 37 100 98 100 100 100 100 100 100 100 100 100 100 100 100 96 84 95 100 100 100 100 100 100 100 100 100 100 100 100 100 100 100 100 100 100 100 100 100 100 100 100 100 100 100 100 100 100 80
5 6 97 100 38 56 100 100 100 100 100 100 100 100 100 100 100 100 100 100 98 95 100 100 89 89 100 100 100 88 93 100 100 100 100 100 100 100 100 100 100 100 100 100 100 100 100 100 100 100 100 100 100 66
5 27 66 77 68 72 100 100 100 100 100 100 100 100 100 100 100 100 100 100 100 100 78 100 99 97 100 100 100 100 100 100 100 100 100 100 100 100 100 100 100 100 100 100 100 100 100 100 100 100 100 94 26 89
5 5 5 32 99 100 100 100 99 70 58 100 100 100 100 100 100 100 100 100 100 100 95 100 100 100 100 100 100 100 100 100 100 100 100 100 100 100 100 100 100 100 100 100 100 100 100 97 6 16 96 100 100 100
5 5 5 86 100 98 100 100 48 98 86 100 100 100 100 100 96 100 100 100 100 100 100 100 100 100 100 100 100 100 100 100 100 100 100 100 100 100 100 100 100 100 100 100 100 100 100 25 87 100 38 94 100 100
3 5 5 18 93 7 5 5 61 100 100 100 100 100 100 100 99 100 100 100 100 100 100 100 100 100 100 100 100 100 100 100 100 100 100 100 100 100 100 100 100 100 100 100 62 95 100 100 100 100 100 65 75 68
0 0 4 6 75 16 17 51 79 100 100 81 100 100 100 100 100 100 100 100 100 100 100 100 100 97 94 100 100 100 100 100 97 60 78 93 99 100 100 100 100 100 100 99 100 100 75 100 100 99 49 24 18 72
0 0 0 4 28 82 100 100 100 91 83 100 100 100 100 100 100 100 100 100 100 100 100 100 100 100 100 100 100 100 100 100 100 100 100 100 100 100 100 100 100 100 100 100 100 100 100 85 64 32 7 8 8 22
4 0 0 1 5 5 6 26 56 74 100 100 100 100 100 100 100 100 100 100 100 100 100 100 100 100 100 100 100 100 100 100 100 100 100 100 100 100 100 99 90 72 94 100 100 100 100 100 93 67 56 59 52 6
6 5 5 9 66 95 71 13 24 32 14 5 9 60 96 100 100 100 100 100 99 97 100 100 98 97 97 100 100 100 100 100 100 100 100 100 100 100 100 100 100 100 100 78 66 69 66 28 11 10 5 5 6 19
18 23 63 98 50 45 81 93 98 67 59 51 23 63 74 20 92 98 100 100 100 100 100 98 100 100 100 93 90 78 100 100 100 100 100 100 100 100 100 100 100 100 100 100 100 100 100 100 99 95 93 73 49 34
7 39 67 54 99 100 80 86 96 95 100 100 100 100 100 100 100 100 100 100 100 96 100 100 100 100 100 100 100 100 96 73 80 85 40 24 31 57 57 45 52 53 32 40 30 16 10 11 13 8 10 6 57 50
100 79 55 100 82 83 99 100 100 100 100 84 100 100 100 100 100 100 100 99 100 96 97 100 98 70 69 71 98 100 100 99 54 6 17 5 6 10 8 5 5 5 5 5 8 21 98 80 87 77 65 33 5 5
78 56 71 38 73 95 100 100 100 100 100 100 100 100 100 100 100 100 100 100 100 100 100 100 100 100 100 100 100 100 100 100 100 92 93 99 100 96 93 71 53 66 54 50 33 18 5 5 5 3 2 1 2 4
53 97 94 98 100 100 100 100 100 100 100 100 100 100 99 100 100 100 100 100 100 100 100 100 100 100 100 100 100 100 100 100 100 100 100 100 100 100 100 100 100 100 99 85 83 80 76 65 43 10 5 5 5 6
73 90 95 98 100 100 100 100 100 100 100 100 100 100 100 100 100 100 100 100 100 100 100 100 100 100 100 100 99 96 95 94 100 100 100 100 100 100 100 100 92 31 6 5 5 5 5 5 5 5 5 5 5 5
53 64 95 16 75 100 100 100 100 100 100 100 100 100 100 100 100 100 100 97 97 99 99 100 100 100 100 100 100 100 100 100 100 99 14 5 5 3 1 5 5 3 0 4 3 5 6 9 5 5 5 5 5 22
21 56 89 71 61 39 83 98 99 98 100 100 100 100 100 98 84 94 100 100 100 100 100 100 100 100 97 92 82 88 46 25 4 2 2 2 0 0 0 0 4 0 0 0 0 2 1 1 3 5 4 5 5 5
5 21 8 16 16 80 88 52 70 76 100 100 99 100 100 100 95 100 100 100 100 100 100 100 100 100 100 100 94 7 0 0 0 0 0 1 0 3 4 0 0 0 0 0 2 4 4 5 5 9 10 45 63 52
3 0 3 5 5 18 98 100 97 74 100 100 100 100 100 100 100 100 100 100 100 100 84 68 7 5 5 1 0 0 0 0 0 2 5 5 5 3 0 0 3 5 5 5 5 5 5 22 55 86 99 100 100 100
5 2 0 0 0 0 0 4 5 31 80 90 88 100 99 92 70 80 65 10 5 5 5 6 5 4 0 0 0 0 0 3 5 5 5 4 0 0 3 5 5 5 5 5 8 60 87 99 100 100 100 100 100 100

GFSWCAN_prec_cloud_006.txt.gz
Cloud_Cover
38 6 7 12 32 5 79 100 100 98 100 100 99 94 94 80 71 79 100 100 100 100 100 100 99 96 100 100 100 100 100 100 100 100 100 100 100 100 100 74 100 34 5 18 100 100 81 4 100 97 0 0 0 0
5 5 5 25 90 100 100 100 100 100 100 100 96 100 100 14 84 99 100 100 100 100 100 97 100 100 100 100 100 100 100 100 100 100 100 100 100 100 100 100 100 99 44 90 33 5 0 16 100 100 98 1 0 0
5 5 5 41 100 100 100 80 100 95 99 100 100 97 73 44 100 100 100 100 100 100 90 100 100 72 99 100 100 100 100 100 100 100 100 100 100 100 100 100 100 17 47 26 4 0 2 100 100 100 100 100 2 0
18 5 99 100 98 51 88 100 87 81 100 72 12 92 100 100 100 100 100 100 100 100 99 100 100 61 3 81 100 100 100 100 100 100 100 100 100 100 100 100 86 17 15 9 0 0 100 100 100 100 100 100 88 36
5 5 11 45 45 56 97 43 77 84 65 14 34 86 100 100 100 100 100 100 100 100 100 74 8 5 40 100 93 100 100 100 100 100 100 100 100 100 100 98 100 100 89 22 7 7 65 100 100 99 100 100 100 100
5 5 65 6 5 10 37 100 100 97 13 42 93 100 100 100 100 100 100 100 100 100 97 52 80 100 100 100 100 100 100 100 100 100 100 100 100 100 100 100 100 100 100 80 60 15 100 100 100 100 100 100 100 100
5 5 5 5 70 92 100 90 77 64 8 34 93 100 100 100 100 100 100 100 100 100 100 100 100 100 100 100 100 100 100 100 100 100 100 100 100 100 100 100 100 100 100 15 36 100 100 100 100 100 100 100 100 100
5 5 5 5 33 36 82 34 77 30 5 5 64 100 100 100 100 100 100 92 100 100 100 100 100 100 100 100 100 100 100 100 100 100 100 100 100 100 100 100 100 100 100 99 100 100 100 100 100 100 100 100 100 96
5 5 5 5 77 99 100 100 100 42 5 66 100 100 100 100 100 100 100 100 100 100 100 100 100 100 100 100 100 100 100 100 100 100 100 100 100 100 100 100 100 100 100 100 100 100 100 100 100 100 100 100 100 100
5 5 5 5 31 78 67 24 5 5 5 100 37 96 100 100 100 100 100 100 100 100 100 100 100 100 100 100 100 100 100 100 100 100 100 100 100 100 100 100 100 100 100 100 100 100 100 100 100 100 100 100 100 100
5 5 5 5 5 31 96 100 30 62 69 88 100 100 100 100 100 100 100 100 100 100 100 100 100 100 100 100 100 100 100 100 100 100 100 100 100 100 100 100 100 100 100 100 100 100 100 100 100 100 100 100 100 100
5 5 5 8 7 62 100 100 100 100 100 74 52 100 100 100 100 100 100 100 100 100 100 100 100 100 100 100 100 100 100 100 100 100 100 100 100 100 100 100 100 100 100 100 100 100 100 100 100 100 100 100 100 100
5 5 5 57 99 100 100 100 100 100 100 100 98 100 100 100 100 100 100 100 100 100 100 100 100 100 100 100 100 100 100 100 100 100 100 100 100 100 100 100 100 100 100 100 100 100 100 100 100 100 100 100 100 100
5 7 100 79 51 95 100 100 100 100 100 100 100 100 100 100 100 100 100 94 100 100 100 100 100 100 100 100 100 100 100 100 100 100 100 100 100 100 100 100 100 100 100 100 100 100 100 100 100 100 100 100 100 100
4 16 5 5 6 85 87 79 73 94 100 100 100 100 100 100 100 100 56 33 90 100 66 100 96 100 100 100 100 100 100 100 100 100 100 100 100 100 100 100 100 100 100 100 100 100 100 100 100 100 100 100 100 100
5 5 5 5 5 8 79 75 24 94 100 100 100 100 100 100 100 100 93 51 26 17 55 100 100 100 100 100 100 100 100 100 100 100 100 100 100 100 100 100 100 83 100 100 100 100 100 100 100 100 100 100 100 100
5 1 5 5 5 8 98 100 76 100 100 100 93 100 100 100 100 100 100 100 74 65 66 100 100 100 100 100 100 100 100 100 100 100 100 100 100 100 100 100 100 83 98 100 100 100 100 100 100 100 96 100 100 100
6 5 6 7 6 44 18 88 100 30 44 89 100 100 100 100 100 100 100 100 100 100 100 100 100 100 100 100 100 100 100 100 100 100 100 100 100 100 100 100 100 100 100 100 100 100 100 100 100 100 100 100 100 100
4 70 85 91 81 55 58 66 100 100 100 84 85 100 100 100 100 100 100 100 100 100 99 93 100 100 100 100 100 100 100 100 100 100 100 100 100 100 94 100 100 100 100 86 50 37 92 62 98 91 92 100 93 100
0 0 0 4 24 59 87 91 94 74 100 98 78 99 100 100 100 100 100 100 100 100 100 100 100 100 100 100 100 100 100 100 100 100 100 100 100 100 96 38 33 44 74 100 100 91 33 77 45 26 20 56 96 100
15 4 4 0 0 4 4 5 5 42 100 100 99 48 100 100 100 100 100 100 100 100 97 100 100 100 100 100 100 100 100 100 100 99 100 100 100 100 86 58 95 100 67 96 65 36 97 100 100 76 96 100 47 74
47 15 18 5 18 18 6 11 9 20 71 100 100 100 84 100 100 100 100 100 100 100 100 100 100 100 100 100 100 100 100 100 100 100 100 100 100 100 99 99 99 95 99 100 100 100 100 100 100 100 100 100 100 100
73 57 37 5 8 39 57 64 67 63 95 54 64 100 86 100 100 100 100 100 100 100 100 100 100 100 100 100 100 100 100 100 100 100 100 100 100 100 100 100 100 100 100 100 100 100 100 100 100 100 100 100 99 69
63 89 100 29 10 37 55 98 88 80 89 88 95 92 61 59 63 100 100 100 100 100 100 100 100 92 80 100 100 98 92 100 100 100 100 100 100 100 100 100 100 100 100 100 100 100 100 100 78 58 54 40 31 23
86 46 43 84 20 5 5 72 68 85 100 100 92 65 90 100 100 100 100 100 100 100 89 71 90 79 66 82 70 48 45 32 42 42 12 8 7 5 5 8 6 6 7 16 14 5 5 4 5 5 5 5 5 5
100 20 59 28 50 94 82 82 78 56 90 100 87 95 85 100 100 100 98 100 100 100 100 100 100 100 100 100 100 100 100 100 100 100 100 100 99 96 73 59 50 74 87 34 21 6 9 5 5 9 22 42 42 42
46 94 100 100 68 48 66 99 96 100 100 100 100 100 100 100 100 100 97 99 100 100 100 100 100 100 100 100 100 100 100 100 100 94 65 79 96 92 83 38 5 3 4 5 4 10 13 8 25 64 80 89 97 95
23 35 17 13 79 89 100 98 99 100 100 91 82 100 100 99 100 100 100 100 100 100 100 100 100 100 100 100 100 100 99 51 15 5 3 30 10 5 4 5 5 2 4 5 5 5 3 5 20 32 15 47 53 97
44 96 100 100 66 94 49 25 96 100 100 100 97 100 100 100 100 100 100 100 100 88 89 100 100 90 78 81 22 46 53 0 0 0 1 3 5 6 6 5 5 5 5 5 5 5 1 0 4 5 5 5 20 60
3 5 5 5 5 69 65 40 78 93 100 100 100 100 100 100 100 100 100 100 100 100 100 98 98 73 19 5 3 2 3 5 5 5 5 5 43 16 5 5 5 5 5 5 5 5 5 4 10 73 86 89 100 93
4 0 2 25 50 3 3 11 5 28 60 88 100 100 100 100 100 100 98 67 25 30 12 5 5 5 0 5 5 5 5 5 5 5 5 5 5 5 5 5 5 5 5 5 5 34 51 57 92 100 100 100 100 100
4 3 2 1 1 2 4 58 100 77 72 42 25 50 45 62 91 42 5 5 10 5 5 5 4 5 5 5 5 17 58 51 41 7 5 5 5 5 5 5 5 5 5 48 66 96 99 100 99 100 100 100 100 100
5 5 5 5 5 5 2 8 40 40 56 70 38 42 18 48 52 9 5 0 5 5 5 5 5 5 5 7 41 70 85 96 100 75 29 9 4 1 3 5 5 6 52 89 96 100 100 100 100 100 100 100 100 100

GFSWCAN_prec_cloud_009.txt.gz
Cloud_Cover
5 5 5 4 4 66 51 78 100 100 100 100 100 100 100 100 85 26 57 97 93 100 99 68 100 100 100 99 100 100 100 100 100 100 100 100 100 100 100 100 100 100 99 62 70 100 52 35 11 50 46 5 2 0
1 4 5 5 5 5 13 6 10 98 100 100 100 100 100 100 98 5 90 68 100 100 68 99 100 100 100 100 100 93 94 100 100 100 100 100 100 100 100 100 100 100 79 99 97 92 48 9 49 5 0 0 2 5
0 4 5 5 5 5 5 5 19 18 66 100 96 45 98 100 88 83 100 100 98 100 73 100 100 93 100 100 100 100 100 100 100 100 100 100 100 100 100 100 100 100 100 100 100 38 39 88 28 82 1 1 40 80
1 5 5 5 5 5 5 5 13 60 81 8 5 6 96 72 100 100 100 100 100 100 100 100 100 100 100 100 100 100 100 100 100 100 100 100 100 100 100 100 100 96 100 100 31 88 100 10 5 4 0 53 93 100
1 4 5 5 5 5 5 5 9 5 5 5 5 5 57 100 100 100 100 100 100 100 100 100 100 100 100 100 91 100 100 100 100 100 100 100 100 100 100 100 100 100 100 92 99 29 16 5 11 5 1 56 97 90
0 5 5 5 5 5 5 5 5 5 5 16 7 91 100 100 100 100 100 100 100 100 100 100 100 100 92 31 5 36 100 100 96 100 100 100 100 100 100 100 100 100 100 100 100 100 5 5 5 13 12 86 81 100
5 5 5 5 5 85 11 7 10 5 81 100 100 51 56 100 100 100 100 100 90 96 99 68 85 36 95 39 14 91 100 100 100 100 100 100 100 100 100 100 100 100 100 100 100 77 8 5 73 63 100 100 100 100
5 5 5 5 5 5 18 6 5 6 74 100 91 96 100 100 100 98 98 80 93 100 100 100 73 87 100 100 85 100 100 100 100 100 100 100 100 100 100 100 100 100 100 100 100 79 28 32 100 99 98 85 100 100
5 5 5 5 5 5 5 5 12 30 5 6 30 89 83 63 100 100 100 100 100 100 100 100 100 100 100 100 100 100 100 100 100 100 100 100 100 100 100 100 100 100 100 100 89 78 100 100 100 100 100 100 100 100
0 2 5 5 5 5 5 5 44 100 100 100 100 100 100 100 100 100 100 100 100 100 100 100 100 100 97 100 100 100 100 100 100 100 100 100 100 100 100 100 100 100 100 100 99 100 100 100 100 100 100 100 100 100
0 5 40 47 24 21 5 5 25 93 51 100 100 100 100 100 100 100 100 100 100 100 100 100 100 100 100 100 100 100 100 100 100 100 100 100 100 100 100 100 100 100 100 100 100 100 100 100 100 100 100 100 100 100
4 4 5 54 100 100 100 32 12 51 90 100 99 100 100 100 100 100 100 100 100 100 100 100 100 100 100 100 100 100 100 100 100 100 100 100 100 100 100 100 100 100 100 100 100 100 100 100 100 100 100 100 100 100
5 5 5 5 5 43 100 97 100 96 51 73 89 100 98 100 100 100 100 100 100 100 100 100 100 100 100 100 100 100 100 100 100 100 100 100 100 100 100 100 100 100 100 100 100 100 100 100 100 100 100 100 100 100
0 5 5 31 78 71 9 15 98 77 92 69 92 100 100 100 91 100 100 100 100 100 100 100 100 100 100 100 100 100 100 100 100 100 100 100 100 100 98 100 100 100 100 100 100 100 100 100 100 100 100 100 100 100
0 4 10 100 17 18 99 72 8 74 100 85 57 100 89 100 100 100 100 100 100 100 100 100 100 100 100 100 100 100 100 100 100 100 100 100 100 100 100 100 100 100 100 100 100 100 100 100 100 100 100 100 100 100
2 4 3 5 59 51 57 98 17 97 100 100 100 100 98 92 82 100 100 100 93 99 59 100 100 100 100 100 100 100 100 100 100 100 100 100 100 100 100 100 100 100 100 100 100 100 100 100 100 100 100 100 100 100
6 16 5 18 100 38 7 13 38 99 100 100 100 100 100 100 98 74 79 98 100 100 100 100 100 100 100 100 100 100 100 100 100 100 100 100 100 100 100 100 100 100 100 100 100 100 100 100 100 100 100 100 100 100
2 5 5 5 75 100 92 49 72 100 100 100 100 100 100 100 83 80 61 11 61 100 100 100 100 100 100 100 100 100 100 100 100 100 100 100 100 100 100 100 100 100 100 100 100 100 100 100 100 100 100 100 100 100
0 2 1 4 26 21 98 63 17 90 100 100 100 100 100 100 100 100 99 92 86 90 58 72 92 100 100 100 100 100 100 100 100 100 100 100 100 100 100 100 100 100 100 100 100 100 100 100 100 100 100 100 100 100
0 0 0 0 1 32 100 73 46 100 100 100 100 100 100 100 100 100 100 100 100 100 100 100 100 100 100 100 100 98 100 100 100 100 100 100 100 100 94 100 100 100 100 100 100 97 100 100 100 100 100 100 100 100
5 49 44 0 0 0 19 100 100 99 100 100 100 94 100 100 100 100 100 100 100 100 100 100 100 100 100 100 100 100 100 100 100 100 100 100 100 100 100 100 98 100 100 100 100 100 60 28 94 100 100 100 100 100
20 3 12 5 27 22 69 77 94 97 100 100 100 100 100 100 100 100 100 100 100 100 100 100 100 100 100 100 100 100 100 100 100 100 99 100 100 100 100 100 100 99 100 100 100 100 100 100 98 56 33 26 20 10
51 32 11 5 15 37 42 67 80 94 50 41 86 83 96 100 100 100 100 100 100 100 100 100 100 100 100 100 100 100 100 100 100 100 99 78 72 84 83 91 91 69 26 65 29 48 61 39 51 65 79 64 9 15
51 50 74 5 9 32 26 42 84 68 38 70 72 77 52 94 98 90 98 100 100 100 100 100 100 100 100 100 100 100 100 100 100 100 100 100 100 100 99 100 100 100 100 100 96 97 36 10 5 5 7 28 33 53
70 60 45 99 5 10 6 28 8 11 85 98 99 100 100 100 62 56 85 100 51 100 100 99 99 100 93 56 19 36 62 30 24 46 42 76 71 59 61 99 95 99 66 48 48 10 5 5 22 5 6 70 85 69
91 100 100 36 23 70 10 92 90 37 89 80 72 88 66 81 96 100 95 100 100 100 99 98 94 85 62 20 86 91 99 100 99 81 99 96 76 10 5 5 21 71 14 17 5 5 5 5 5 5 33 89 98 98
90 99 94 12 58 99 100 100 100 100 90 79 92 98 99 94 95 99 100 99 100 88 83 83 88 92 98 99 100 100 98 30 32 71 53 58 85 66 10 32 72 43 6 51 5 5 5 5 3 5 5 5 31 59
11 7 58 52 66 40 68 100 100 100 100 100 96 90 100 100 100 100 100 100 94 100 65 95 95 92 82 57 13 14 18 10 4 2 0 67 100 100 34 25 65 3 5 5 3 3 5 4 0 3 5 5 5 50
88 82 100 95 96 96 97 98 83 74 94 100 100 100 100 100 100 100 100 100 95 63 52 76 92 58 37 7 5 5 4 5 3 4 5 5 17 25 21 5 5 5 5 5 9 7 4 0 4 0 18 82 100 100
100 92 56 73 49 74 32 66 97 17 5 5 37 100 100 74 49 53 21 13 5 63 83 90 93 28 2 2 1 2 5 5 5 5 5 5 5 5 5 5 5 16 58 71 68 69 87 21 83 100 100 98 99 99
95 92 100 91 36 15 97 25 56 6 6 21 48 22 11 9 58 44 13 39 90 90 56 5 5 5 0 1 5 4 3 19 18 31 15 5 5 5 5 5 5 8 8 38 62 79 97 97 100 100 100 100 100 100
96 91 99 100 88 5 72 8 21 60 80 97 98 98 100 83 94 98 11 13 23 5 5 5 5 3 3 4 5 5 5 57 88 5 4 0 0 0 5 5 5 29 57 83 98 100 100 100 99 100 100 100 100 100
93 93 67 57 93 91 88 7 23 58 85 94 20 30 93 29 74 74 77 76 15 5 5 5 5 5 5 5 5 5 5 39 5 4 0 0 0 0 3 14 41 93 95 100 100 98 100 100 100 100 100 100 100 100

GFSWCAN_prec_cloud_012.txt.gz
Cloud_Cover
0 1 5 5 5 5 5 5 5 5 5 5 83 79 100 100 100 100 71 99 81 100 86 13 6 59 100 100 100 100 94 50 91 100 100 100 100 100 100 100 100 100 100 100 100 100 100 70 28 96 100 7 5 18
0 0 5 5 5 5 5 4 5 5 4 5 5 26 10 36 16 84 62 88 100 100 32 27 8 78 100 100 100 100 100 100 100 100 100 100 100 100 100 100 100 100 100 100 100 100 100 100 49 100 48 5 1 0
0 0 2 5 5 5 5 5 5 5 5 5 5 8 20 62 7 14 97 89 94 97 19 6 87 100 100 100 100 100 100 100 100 100 100 100 100 100 100 100 100 100 100 100 100 100 100 57 24 37 95 6 2 0
0 0 4 5 5 5 5 5 5 5 5 5 5 19 100 99 97 94 99 100 100 100 89 100 100 100 100 96 98 84 97 84 100 100 100 80 100 100 100 100 100 100 100 100 100 91 17 24 27 15 5 5 0 0
0 5 5 5 5 5 5 5 5 5 5 5 5 8 100 100 87 66 100 100 100 100 100 100 70 100 100 100 100 100 100 97 100 99 100 93 100 100 100 100 100 100 100 100 98 97 90 54 43 84 29 0 3 0
0 0 0 5 5 5 5 5 5 5 5 5 14 85 38 77 100 100 100 100 100 100 100 100 100 68 100 100 100 100 100 100 100 100 100 100 100 100 100 100 100 100 100 100 100 100 100 100 24 100 58 3 3 0
0 0 0 2 2 6 12 5 5 5 5 5 5 6 15 40 62 87 86 85 58 100 100 79 26 100 88 91 100 100 100 100 100 100 100 100 100 100 100 100 100 100 100 100 100 100 100 100 100 100 100 5 5 0
0 2 3 5 5 5 5 5 5 5 4 82 100 96 100 100 100 100 100 100 100 100 100 100 92 90 100 100 100 100 100 100 100 100 100 100 100 100 100 100 100 100 100 100 100 100 100 100 100 100 100 31 6 2
0 1 89 15 5 5 5 5 14 34 100 100 100 100 100 100 100 94 100 100 92 100 100 100 100 100 100 100 100 100 100 100 100 100 100 100 100 100 100 100 100 100 100 100 100 100 100 100 100 100 35 5 10 2
0 2 5 60 21 2 0 4 100 98 100 100 100 100 100 100 100 100 100 100 100 100 100 100 100 100 100 100 100 100 100 100 100 100 100 100 100 100 100 100 100 100 100 100 100 100 100 100 100 100 96 47 64 73
0 0 6 5 24 19 5 21 98 86 38 100 100 100 100 100 100 100 100 100 100 100 100 100 100 100 100 100 100 100 100 100 100 100 100 100 100 100 100 100 100 100 100 100 100 100 100 100 100 100 100 100 100 99
0 0 23 91 5 13 5 9 10 17 100 100 100 100 100 100 100 100 100 100 100 100 100 100 100 100 100 100 100 100 100 100 100 100 100 100 100 100 100 100 100 100 100 100 100 100 100 100 81 50 16 78 100 100
8 55 1 73 62 20 7 0 5 5 71 100 100 100 100 100 100 100 100 100 100 100 100 100 100 100 100 100 100 100 100 100 100 100 100 100 100 100 100 100 100 100 100 100 100 100 100 99 100 94 97 98 100 100
0 1 5 12 100 32 43 7 5 23 87 99 100 100 100 100 100 100 100 100 100 100 100 100 100 100 100 100 100 100 100 100 100 100 100 100 100 100 100 100 100 100 100 100 100 100 100 100 100 99 100 100 100 100
0 4 4 1 12 5 19 100 90 31 98 38 35 100 100 79 100 100 100 100 100 100 100 100 100 100 100 100 100 100 100 100 100 100 100 100 100 100 100 100 100 100 100 100 100 100 100 78 91 100 100 100 100 100
0 1 9 38 4 5 5 100 100 78 15 10 44 97 40 39 97 100 100 100 100 100 100 100 100 100 100 100 100 100 100 100 100 100 100 100 100 100 100 100 100 100 100 100 100 100 99 100 98 100 100 100 100 100
4 0 3 82 5 68 100 100 100 100 94 100 100 100 98 33 99 19 99 100 100 100 100 100 100 100 100 100 100 100 100 100 100 100 100 100 100 100 100 100 100 100 100 100 100 100 100 100 75 100 100 100 100 100
0 0 0 5 5 5 99 100 100 98 99 100 100 98 40 69 99 49 100 98 100 100 100 100 100 100 100 100 100 100 100 100 100 100 100 100 100 100 100 100 100 99 100 100 100 100 100 100 100 100 100 100 100 100
0 0 1 58 5 78 100 100 99 100 100 100 100 93 82 100 58 100 100 100 100 100 100 100 100 100 100 100 100 100 100 100 100 100 100 100 100 100 100 90 95 100 100 100 100 100 100 100 100 100 100 100 100 100
0 0 0 22 42 19 100 94 91 64 85 100 100 100 68 98 100 96 99 59 100 100 100 100 100 100 100 100 100 100 100 100 100 100 100 100 100 100 100 100 100 99 100 100 100 88 64 84 94 100 100 98 63 60
0 0 0 3 99 68 87 96 79 20 100 96 100 100 100 100 68 100 100 100 100 100 100 100 100 100 100 100 100 100 100 100 100 100 100 100 100 98 65 100 100 76 100 100 100 100 100 75 75 99 70 92 100 100
0 0 1 24 86 55 98 50 68 57 100 100 100 99 100 100 100 100 100 100 100 100 100 100 100 100 100 100 89 98 95 87 92 91 85 84 97 100 98 64 68 48 76 90 100 100 100 98 98 92 100 99 34 53
5 1 3 87 89 37 83 56 59 100 51 55 92 99 100 100 100 100 100 100 100 100 100 100 100 100 100 100 100 100 100 100 100 100 100 100 100 96 97 90 94 96 85 66 65 27 5 6 6 5 70 70 100 100
51 7 24 95 78 55 84 58 42 89 96 87 93 57 51 66 48 83 100 100 99 82 52 38 29 94 88 98 96 92 89 88 89 100 78 96 100 85 21 88 99 100 82 91 73 58 29 5 13 68 80 80 100 100
54 47 77 99 28 38 68 75 99 100 100 100 22 55 54 37 48 55 96 85 94 91 88 60 81 85 99 99 99 99 99 98 100 100 100 100 100 87 60 85 15 11 51 38 9 24 28 35 15 5 5 96 58 28
82 76 69 15 14 95 92 82 90 98 100 100 96 100 63 90 60 98 77 95 94 91 69 71 88 95 88 62 15 5 5 11 78 34 16 98 90 92 100 96 23 5 1 42 5 4 5 5 1 0 0 4 1 27
51 59 93 99 89 96 93 93 90 63 18 32 77 96 53 81 97 92 85 89 82 67 29 24 55 67 77 69 5 5 5 23 13 5 24 100 94 59 17 5 5 0 1 5 5 5 5 5 0 0 3 5 5 27
73 100 100 100 100 84 78 86 15 25 69 50 63 27 82 95 98 50 56 33 25 12 6 36 99 99 23 5 5 5 5 5 0 0 13 100 99 96 5 5 6 3 5 5 5 2 2 0 0 5 5 67 99 96
96 100 96 99 82 66 30 5 61 5 5 5 24 88 59 41 17 25 8 3 18 98 100 96 74 71 15 5 5 5 5 4 0 0 0 0 0 2 5 5 5 5 48 62 44 37 6 6 20 74 84 94 99 32
64 42 5 49 22 5 48 36 49 6 5 10 7 8 5 29 10 33 16 78 99 100 98 64 8 4 5 0 5 4 5 13 2 2 0 0 0 4 5 5 12 26 43 65 78 98 96 81 100 100 100 99 100 99
49 94 45 65 66 7 24 47 53 74 11 9 20 89 35 12 66 93 21 5 22 19 5 4 5 5 5 5 5 5 4 81 19 4 0 0 0 5 5 5 35 59 66 95 100 100 100 99 100 100 100 100 100 98
82 29 73 74 38 5 6 52 55 28 79 53 32 6 71 10 6 90 65 64 5 5 5 5 5 50 5 5 5 5 6 71 5 0 0 0 0 0 5 54 65 82 78 100 100 100 100 97 100 100 100 100 100 100
63 75 71 74 81 99 54 35 28 19 49 67 52 30 100 98 66 47 90 82 23 5 5 5 5 5 5 5 5 5 13 5 5 4 3 0 0 1 5 18 21 71 77 97 93 100 97 100 100 100 100 100 100 99

GFSWCAN_prec_cloud_015.txt.gz
Cloud_Cover
0 0 0 0 0 0 0 3 4 4 5 5 5 1 5 5 5 27 94 99 91 100 97 8 11 45 6 7 45 54 100 100 100 100 94 100 100 100 100 100 100 100 100 100 90 64 5 76 100 53 5 7 28 16
0 0 0 0 0 2 4 5 5 5 5 5 5 5 5 5 5 5 5 34 85 100 96 5 2 5 1 59 100 100 100 100 100 100 100 79 100 100 90 100 100 100 100 91 100 100 100 100 100 59 99 97 25 59
0 0 0 0 1 5 5 4 0 5 5 5 5 6 17 5 76 96 60 74 80 67 70 5 0 3 44 100 100 100 100 100 100 100 100 100 100 94 100 100 100 100 100 100 53 92 54 97 97 59 62 100 100 10
0 0 0 0 0 0 4 5 5 5 5 21 100 100 35 71 98 97 100 100 100 100 100 65 5 63 100 100 100 100 100 100 100 100 100 100 100 100 100 100 100 100 100 100 100 100 95 77 33 67 100 100 100 100
0 0 0 0 1 5 5 5 5 28 55 33 29 84 98 88 70 100 91 98 100 100 99 78 7 73 45 11 89 100 100 100 100 100 100 100 100 100 100 100 100 100 100 99 100 100 56 100 100 100 100 100 100 100
0 0 0 0 0 2 1 5 5 5 34 85 100 98 99 97 100 100 100 100 68 99 100 100 98 100 100 100 76 5 5 64 91 99 100 100 100 100 100 100 100 99 100 100 100 100 100 100 95 100 100 100 96 70
0 0 0 0 0 0 0 8 41 97 100 100 100 100 100 100 100 100 100 91 98 96 91 100 100 100 100 100 100 84 95 100 86 100 100 100 100 100 100 100 100 100 100 100 100 100 100 73 100 100 100 100 100 89
0 0 0 0 1 5 4 73 100 100 100 100 100 100 100 100 100 100 100 99 100 100 100 100 100 100 100 100 100 100 100 100 91 100 100 100 100 100 100 100 100 100 100 100 100 100 100 99 100 100 100 100 99 27
0 2 3 0 0 0 34 100 100 100 100 100 100 100 100 100 100 100 100 100 100 100 100 100 100 100 100 100 100 100 100 100 100 100 100 100 100 100 100 100 100 100 100 100 100 100 100 100 100 100 100 100 100 93
0 1 5 0 0 5 98 100 100 100 100 100 100 100 100 100 100 100 100 100 100 100 100 100 100 100 100 100 100 100 100 100 100 100 100 100 100 100 100 100 100 100 100 100 100 100 100 100 100 100 100 100 100 100
0 0 29 4 0 1 27 60 94 100 100 100 100 100 100 100 100 100 100 100 100 100 100 100 100 100 100 100 100 100 100 100 100 100 100 100 100 100 100 100 100 100 100 100 100 100 100 100 100 100 100 100 100 67
0 0 32 13 4 0 0 3 10 10 98 100 100 100 100 100 100 100 100 100 100 100 100 100 100 100 100 100 100 100 100 100 100 100 100 100 100 100 100 100 100 100 100 100 100 100 100 100 100 100 100 100 99 100
0 0 0 0 5 18 4 5 3 3 7 97 100 100 100 100 100 100 100 100 100 100 100 100 100 100 100 100 100 100 100 100 100 100 100 100 100 100 100 100 100 100 100 100 100 100 100 100 100 100 100 100 100 100
0 5 5 0 1 71 100 6 0 1 0 32 97 100 100 100 100 100 100 100 100 100 100 100 100 100 100 100 100 100 100 100 100 100 100 100 100 100 100 100 100 100 100 100 100 100 100 100 100 100 100 98 100 100
0 0 1 5 92 100 76 29 1 4 12 14 8 98 100 100 100 100 100 100 100 100 100 100 100 100 100 100 100 100 100 100 100 100 100 100 100 100 100 100 100 100 100 100 100 100 100 100 100 100 100 100 100 100
0 0 0 62 100 81 71 34 12 4 3 12 77 55 78 100 100 100 100 100 100 100 100 100 100 100 100 100 100 100 100 100 100 100 100 100 100 100 100 100 100 100 100 100 100 100 100 100 100 100 100 100 100 100
1 19 3 98 93 5 34 5 74 13 12 80 45 50 100 100 100 100 100 100 100 100 100 100 100 100 100 100 100 100 100 100 100 100 100 100 100 100 100 100 100 100 100 100 100 100 100 100 100 100 100 100 100 99
34 0 39 99 8 48 100 100 100 76 90 55 31 6 91 95 100 100 100 100 100 100 100 100 100 100 100 100 100 100 100 100 100 100 100 100 100 100 100 100 100 100 100 100 100 100 100 100 100 100 100 100 100 100
0 0 4 60 22 46 64 100 100 93 56 44 65 46 5 5 92 100 100 100 100 100 100 100 100 100 100 100 100 100 100 100 100 100 100 100 100 100 100 100 98 100 100 100 100 100 100 100 100 100 100 100 100 100
0 0 0 0 5 5 44 28 92 100 100 91 29 5 58 100 100 100 73 100 100 100 100 100 100 100 100 100 100 100 100 100 100 100 100 100 97 100 95 99 100 100 93 63 99 100 100 100 100 100 100 100 100 100
0 0 0 0 0 5 16 62 91 46 100 100 100 100 100 98 94 100 95 83 100 100 100 100 100 100 100 100 100 100 100 100 100 84 95 100 100 100 100 100 100 99 18 5 32 95 100 100 100 100 100 96 6 65
8 2 0 0 18 4 5 5 7 64 100 93 100 100 100 100 96 82 88 98 98 91 97 100 96 81 71 98 100 74 30 74 91 26 49 52 50 35 39 73 88 84 98 74 100 81 40 26 80 100 100 99 98 100
4 2 0 4 3 33 43 4 5 11 18 53 95 87 93 100 97 97 48 65 99 100 97 96 92 82 74 85 98 99 96 100 100 100 100 70 66 60 67 85 99 63 12 5 24 47 8 60 16 17 79 100 100 97
42 4 0 5 13 75 38 35 10 45 41 48 57 100 100 100 70 53 40 100 100 100 100 98 8 5 18 8 15 63 100 100 100 96 91 87 79 98 93 95 85 50 77 89 82 73 27 5 4 3 2 10 66 84
81 100 100 100 100 100 69 96 97 95 100 57 23 76 100 100 100 96 100 100 100 80 75 100 98 74 95 22 5 5 15 92 11 5 12 22 5 6 5 3 3 5 2 4 5 4 1 0 3 4 4 5 5 5
84 61 100 100 100 100 100 80 37 36 5 37 9 13 92 62 48 64 100 65 74 26 36 6 34 100 68 5 5 5 3 0 0 2 58 86 71 26 5 4 1 0 1 2 2 1 2 3 2 2 1 1 2 4
100 100 100 100 86 54 67 63 6 27 8 100 82 5 52 96 100 91 87 7 3 5 38 62 60 82 10 5 5 3 0 0 0 6 100 96 44 5 5 1 0 0 3 1 1 1 0 0 0 8 14 91 34 10
100 100 100 100 93 27 5 5 4 4 4 8 33 7 66 98 39 0 0 10 64 67 80 99 100 46 5 4 0 3 0 0 0 0 6 5 5 5 3 0 2 5 5 5 5 2 3 1 5 21 36 48 7 5
16 19 55 99 39 38 40 9 5 5 5 5 5 5 5 5 5 24 8 16 95 100 63 68 37 5 1 0 4 5 4 0 0 0 0 0 0 0 0 0 0 4 4 10 51 14 70 34 70 77 41 5 5 5
100 89 9 5 5 5 5 6 41 13 5 11 48 22 15 26 47 6 5 0 1 2 5 7 5 5 1 0 1 5 5 1 0 0 0 0 0 0 5 5 5 5 5 13 100 86 41 8 5 5 5 5 5 4
63 80 40 10 32 53 28 8 5 5 6 8 6 5 6 11 30 59 11 5 5 5 1 5 5 5 5 5 4 5 5 5 5 4 0 0 0 1 5 5 5 5 5 63 76 64 5 5 5 6 42 39 5 23
100 79 24 84 14 5 13 30 51 58 22 15 98 13 19 6 24 24 23 5 5 5 0 0 5 5 5 6 5 8 6 5 5 0 1 5 5 5 5 5 5 5 7 10 45 5 38 98 96 26 59 91 52 34
5 8 20 29 15 74 44 37 6 66 55 19 81 63 52 10 8 47 82 11 5 2 4 2 0 4 5 5 22 19 6 5 5 7 7 5 5 5 5 6 5 5 6 5 97 100 95 56 47 50 13 55 5 6

GFSWCAN_prec_cloud_018.txt.gz
Cloud_Cover
0 0 0 0 0 0 0 0 0 7 75 89 100 12 53 74 99 59 15 33 68 100 64 92 99 95 24 47 86 6 45 23 41 100 100 40 22 4 8 31 100 100 100 100 100 100 94 1 1 4 0 2 0 0
0 0 0 0 0 0 0 3 5 5 5 30 80 29 96 100 100 100 100 94 77 100 92 5 5 5 5 4 90 29 88 100 66 100 100 90 19 31 39 97 79 100 100 100 100 100 92 4 3 0 0 0 0 0
0 0 0 0 0 0 4 2 5 5 5 6 29 96 78 100 100 100 100 100 100 99 43 48 3 4 5 65 100 100 100 100 100 100 100 100 100 100 92 100 100 100 100 100 100 100 100 100 82 3 0 0 2 5
0 0 0 0 1 4 16 14 82 100 100 100 100 100 100 89 93 99 100 100 100 100 100 29 10 72 96 97 100 90 100 100 97 100 100 100 100 100 82 99 93 100 100 100 100 100 100 91 47 22 0 0 5 51
0 0 0 3 8 8 16 100 100 100 100 100 100 100 100 100 49 48 74 52 95 100 100 70 100 87 100 100 100 100 99 100 66 42 100 100 100 100 100 95 100 100 100 100 100 100 100 93 99 10 70 0 48 93
0 0 0 0 5 49 100 51 49 100 100 100 100 100 100 87 77 17 100 100 100 100 100 100 100 100 100 100 100 100 100 100 100 100 100 100 100 100 100 100 100 100 100 100 100 100 98 100 100 65 56 76 100 100
0 0 0 1 4 5 100 78 100 100 100 100 100 100 100 100 100 100 100 100 100 100 100 100 100 100 100 100 100 47 100 79 100 100 100 100 100 100 100 100 100 100 100 100 100 100 100 100 97 100 100 99 100 100
0 0 0 0 2 3 70 100 100 100 100 100 100 100 100 100 100 100 100 100 100 100 100 100 100 100 100 100 100 100 91 89 100 91 100 100 100 100 100 95 100 100 100 100 100 100 94 89 100 100 100 100 100 100
0 0 0 0 0 0 41 99 100 93 100 100 100 100 100 100 100 100 100 100 100 100 100 100 100 100 100 100 100 100 100 100 100 100 100 100 100 100 100 100 100 100 100 100 100 100 93 44 57 100 100 100 100 100
0 0 0 0 0 0 3 5 5 91 100 100 100 100 100 100 100 100 100 100 100 100 100 100 100 100 100 100 100 100 100 100 100 100 100 100 100 100 100 100 100 100 100 100 100 100 100 100 100 100 100 100 100 100
0 0 0 5 1 5 1 3 17 100 100 100 100 100 100 100 100 100 100 100 100 100 100 100 100 100 100 100 100 100 100 100 100 100 100 100 100 100 100 100 100 100 100 100 100 100 100 100 100 100 100 100 100 100
0 0 0 3 25 1 35 72 12 100 100 100 100 100 100 100 100 100 100 100 100 100 100 100 100 100 100 100 100 100 100 100 100 100 100 100 100 100 100 100 100 100 100 100 100 100 100 100 100 100 100 100 100 100
0 0 5 7 5 5 1 95 73 8 99 100 100 100 100 100 100 100 100 100 100 100 100 100 100 100 100 100 100 100 100 100 100 100 100 100 100 100 100 100 100 100 100 100 100 100 100 100 100 100 100 100 100 100
0 0 5 15 4 5 5 0 59 6 97 100 100 100 100 100 100 100 100 100 100 100 100 100 100 100 100 100 100 100 100 100 100 100 100 100 100 100 100 100 100 100 100 100 100 100 100 100 100 100 100 100 100 100
0 5 3 10 26 20 5 0 3 70 86 100 100 100 100 90 100 100 100 99 100 100 100 100 100 100 100 100 100 100 100 100 100 100 100 100 100 100 100 100 100 100 100 100 100 100 100 100 100 100 100 100 100 100
0 1 4 72 100 39 5 4 2 6 97 100 100 97 94 100 100 100 100 100 100 100 100 100 100 100 100 100 100 100 100 100 100 100 100 100 100 100 100 100 100 100 100 100 100 100 100 100 100 100 100 100 100 100
1 19 1 60 96 82 3 2 4 17 99 100 100 94 84 100 100 100 100 100 100 100 100 100 100 100 100 100 100 100 100 100 100 100 100 100 100 100 100 100 100 100 100 100 100 100 100 100 100 100 100 100 100 100
20 1 3 4 8 10 6 64 2 55 61 40 100 88 17 86 100 100 100 100 100 100 100 100 100 100 100 100 100 100 100 100 100 100 100 100 100 100 100 100 100 100 100 100 100 100 100 100 100 100 100 100 100 100
0 0 0 2 27 75 100 12 20 71 100 34 89 48 61 80 86 100 100 100 100 70 100 100 100 100 100 100 100 100 100 100 100 100 100 100 100 100 100 100 100 100 100 100 100 100 100 100 100 100 100 100 100 100
0 0 0 0 0 17 98 96 79 81 84 63 99 93 91 99 54 100 100 100 100 100 100 100 100 100 100 100 96 100 100 100 100 100 100 100 87 39 42 80 100 100 100 100 100 100 100 100 100 100 100 100 100 100
0 0 0 0 0 1 5 47 100 27 69 100 100 100 100 100 100 100 100 100 100 100 100 100 100 100 100 100 73 32 19 69 79 98 100 99 93 55 43 18 15 71 100 61 17 48 93 100 100 100 100 100 100 100
4 0 1 1 1 5 8 5 5 28 87 78 100 100 100 62 77 82 66 99 99 100 100 100 100 100 100 98 100 74 18 5 5 24 83 68 80 100 98 53 30 15 6 5 4 5 4 5 5 5 4 5 5 35
10 36 6 5 27 80 28 4 5 28 100 100 100 100 100 84 49 67 61 71 72 70 58 19 31 42 42 39 40 17 65 97 80 50 50 20 38 43 91 90 61 95 100 98 93 96 62 64 58 46 5 5 5 5
100 100 94 34 37 84 61 84 29 45 100 100 100 100 100 100 97 50 62 92 96 91 3 50 49 5 3 9 91 42 5 5 5 5 20 97 81 73 89 68 21 8 59 100 87 86 21 7 3 1 5 5 5 5
51 44 86 97 87 99 98 83 68 6 77 6 32 51 13 85 19 30 99 83 10 2 5 16 47 5 5 1 3 0 0 0 0 0 3 5 5 5 5 5 5 5 2 0 0 0 0 0 0 0 0 2 3 4
23 97 100 94 23 8 5 5 5 5 45 5 6 6 44 46 11 22 5 5 5 42 66 86 97 31 5 5 5 4 2 2 0 0 1 5 5 5 5 5 4 2 0 0 0 0 0 0 0 0 2 4 5 3
54 73 21 5 5 5 5 5 4 0 4 57 100 6 12 5 5 4 4 76 95 87 94 40 77 72 85 61 2 0 0 0 1 5 2 4 5 4 0 0 0 0 0 0 0 0 0 0 0 5 5 5 5 5
2 4 4 2 6 4 5 5 5 5 5 5 5 5 7 5 5 5 5 5 10 99 59 27 86 61 11 6 4 0 0 0 0 0 0 0 0 0 1 1 0 0 3 5 5 5 5 5 2 0 0 0 0 0
4 5 5 5 5 5 5 5 5 6 5 23 50 7 5 5 5 5 5 2 0 0 0 0 0 0 5 5 5 5 5 3 0 0 0 0 0 0 0 0 0 0 0 5 5 5 6 8 6 5 5 5 4 0
33 5 5 1 5 4 6 5 5 13 29 72 96 97 60 26 5 9 46 5 5 5 12 21 0 0 0 4 5 5 5 5 5 5 5 3 2 1 0 0 0 0 2 5 5 5 6 5 4 2 3 4 3 5
41 6 4 7 92 93 100 100 90 46 97 47 17 7 5 5 5 5 5 5 5 5 5 5 0 0 0 0 0 3 31 37 29 10 20 28 21 5 5 8 7 5 5 5 5 5 5 5 5 5 5 5 5 5
18 6 6 5 5 5 13 55 100 77 77 32 6 28 23 36 39 7 10 7 5 5 4 5 0 0 3 5 5 1 0 5 5 5 5 5 5 12 24 10 44 26 6 55 87 89 71 30 6 5 5 5 5 4
86 98 6 10 5 5 18 74 99 100 22 12 50 7 6 5 5 11 23 5 4 5 1 2 1 5 5 5 5 5 5 5 5 5 5 5 5 5 5 5 5 5 31 96 100 100 100 100 97 25 5 5 5 5

GFSWCAN_prec_cloud_021.txt.gz
Cloud_Cover
0 0 0 0 0 5 100 100 100 100 100 100 100 100 98 95 98 100 95 100 93 90 61 65 34 94 28 100 100 62 28 58 85 90 98 10 7 5 5 0 0 48 100 99 17 99 5 5 12 58 62 18 0 2
0 0 0 0 4 1 85 97 53 100 100 100 100 100 100 87 100 61 98 100 100 100 62 45 9 5 6 6 98 100 89 8 27 100 100 100 100 90 4 6 0 57 66 97 68 16 5 35 96 100 99 46 36 5
0 0 0 0 0 1 28 95 98 100 100 100 100 100 100 100 100 100 100 29 84 89 88 89 50 73 59 17 83 100 100 100 100 100 100 100 100 100 100 10 0 52 65 63 100 65 100 100 100 100 47 39 10 54
0 0 0 0 0 0 5 76 87 99 100 100 100 100 100 100 100 100 100 100 100 92 100 7 54 100 100 100 100 80 94 99 100 100 100 100 100 100 100 96 21 57 52 5 100 100 100 100 79 64 42 5 96 99
0 0 0 0 0 1 5 82 100 100 100 100 100 100 100 100 100 100 100 100 100 100 100 100 99 100 100 100 100 73 66 100 100 100 100 100 100 100 100 100 100 100 19 82 50 100 100 100 26 7 25 3 5 63
0 0 0 0 0 1 5 17 100 100 100 100 100 100 100 100 100 100 100 100 100 100 100 100 100 98 86 98 59 100 74 100 100 100 100 100 100 100 100 100 86 100 100 100 83 100 100 100 100 100 98 7 78 64
0 0 0 0 0 2 2 73 100 100 100 100 100 100 100 100 100 100 100 100 100 100 100 100 100 100 100 100 65 68 91 95 95 99 100 100 100 100 100 100 100 100 100 98 43 100 100 100 100 100 100 100 50 32
0 0 0 0 0 4 19 5 100 100 100 100 100 100 100 100 100 100 100 100 100 100 100 100 100 100 100 100 100 91 99 68 100 100 100 100 100 100 100 100 100 100 100 100 85 100 100 100 100 100 100 89 100 92
0 0 0 4 1 0 11 1 17 100 100 100 100 100 100 100 100 100 100 100 100 100 100 100 100 100 100 100 100 100 100 100 100 100 100 100 100 100 100 100 100 100 100 100 97 100 100 100 100 100 100 100 98 100
0 0 0 5 2 0 5 5 9 100 100 45 100 100 100 100 100 100 100 100 100 100 100 100 100 100 100 100 100 100 100 100 100 100 100 100 100 100 100 100 100 100 100 100 100 100 100 100 100 100 100 92 99 100
0 0 0 6 5 0 5 7 90 100 100 72 80 80 100 100 100 100 100 100 100 100 100 100 100 100 100 100 100 100 100 100 100 100 100 100 100 100 100 100 100 100 100 100 100 100 100 100 100 100 100 100 100 100
0 0 0 0 1 1 34 100 100 100 90 64 100 100 100 100 100 100 100 100 100 100 100 100 100 100 100 100 100 100 100 100 100 100 100 100 100 100 100 100 100 100 100 100 100 100 100 100 100 100 100 100 100 100
0 1 5 5 5 5 0 6 85 100 56 65 100 100 100 95 100 100 100 100 100 100 100 100 100 100 100 100 100 100 100 100 100 100 100 100 100 100 100 100 100 100 100 100 100 100 100 100 100 100 100 100 100 100
40 28 11 4 0 5 2 31 100 99 77 94 100 100 100 100 100 100 100 100 100 100 98 100 100 100 100 100 100 100 100 100 100 100 100 100 100 100 100 100 100 100 100 100 100 100 100 100 100 100 100 100 100 100
40 17 2 0 0 0 0 1 99 100 22 100 100 100 100 100 100 100 100 100 100 98 100 96 100 100 100 100 100 100 100 100 100 100 100 100 100 100 100 100 100 100 100 100 100 100 100 100 100 100 100 100 100 100
22 2 0 0 0 2 0 0 100 94 41 100 100 100 100 100 100 100 100 100 100 100 100 99 89 100 100 100 100 100 100 100 100 100 100 100 100 100 100 100 100 100 100 100 100 100 100 100 100 100 100 100 100 100
7 15 0 5 2 0 0 4 69 100 100 100 100 100 100 100 100 100 100 100 100 100 100 100 100 100 100 100 100 100 100 100 100 100 100 100 100 100 100 100 100 100 100 100 100 100 100 100 100 100 100 100 100 100
24 0 0 4 12 10 0 5 32 100 100 66 94 100 100 100 95 98 100 84 98 98 100 100 100 100 100 100 100 100 100 100 100 100 100 100 100 100 100 100 100 100 100 100 100 100 100 100 100 100 100 100 100 100
5 0 0 0 35 13 100 21 54 70 80 88 91 79 100 100 100 100 45 99 100 85 92 97 85 100 100 100 100 100 100 100 100 100 100 100 100 100 100 100 100 100 100 100 100 100 100 100 100 98 99 100 100 100
0 4 5 0 0 1 68 89 40 64 86 96 99 52 55 78 100 100 100 100 75 100 100 93 99 100 100 99 100 94 94 100 100 95 13 43 81 100 100 100 100 100 100 100 100 100 100 100 100 100 68 59 92 100
0 3 71 95 0 0 3 56 40 6 24 42 74 76 78 100 94 100 100 100 100 100 100 100 87 81 100 83 63 72 14 42 69 43 48 98 74 99 74 61 97 98 46 78 100 99 62 5 6 35 74 35 91 100
0 3 58 99 46 4 4 5 24 48 98 99 100 71 63 54 75 75 72 67 48 99 100 90 54 8 6 16 5 5 5 5 5 15 56 57 100 100 99 95 86 56 78 96 99 89 85 97 87 86 40 11 94 94
5 5 5 5 5 14 30 5 32 86 100 100 93 73 75 86 10 5 67 84 31 75 76 72 8 5 24 28 22 20 5 5 5 5 5 5 5 19 35 71 83 76 29 5 5 5 2 1 0 3 2 3 15 13
4 19 18 5 9 34 5 7 5 6 12 36 45 45 40 100 34 5 43 13 5 5 5 5 0 0 0 0 0 0 0 0 0 0 0 1 4 3 4 5 5 5 5 1 0 0 0 0 0 0 0 0 0 2
2 2 2 2 0 5 5 5 5 5 16 5 5 35 9 46 6 5 5 5 5 20 61 39 5 5 5 5 5 2 0 0 0 0 0 0 5 5 5 3 0 0 0 0 0 0 0 0 0 0 0 0 0 0
0 2 29 0 2 5 5 5 5 5 5 54 46 5 43 10 5 5 5 5 18 27 5 4 3 3 5 4 0 0 5 5 4 0 0 0 0 0 0 0 0 0 0 0 0 0 0 0 0 0 3 5 5 4
20 3 3 0 0 4 5 5 5 5 5 5 5 11 5 5 5 5 5 5 18 46 5 5 5 4 0 0 0 0 2 5 5 4 0 0 1 2 0 0 0 0 0 0 0 0 0 0 0 0 1 0 0 0
0 3 1 5 5 5 12 5 5 5 5 5 5 5 5 5 5 5 5 5 5 8 66 44 5 1 0 0 0 0 0 0 5 5 5 5 4 1 0 0 0 0 0 0 0 0 5 5 5 5 5 5 5 0
0 0 0 0 4 50 24 6 42 13 5 5 5 0 3 5 5 5 5 5 9 73 65 5 4 0 0 0 0 0 0 0 0 2 5 5 6 29 11 5 5 5 5 5 5 5 5 5 5 5 5 5 5 1
23 5 0 0 4 5 5 5 5 8 14 21 16 63 35 8 5 5 6 6 53 99 67 5 4 1 5 5 8 5 5 4 0 0 0 1 0 2 3 1 3 1 5 5 5 5 5 5 5 17 53 39 13 6
5 5 3 1 4 4 5 25 100 100 100 100 100 100 100 79 9 5 5 7 41 83 10 5 4 4 5 30 33 5 5 5 4 1 0 0 0 2 0 4 5 5 5 5 5 5 5 5 60 98 100 100 100 95
6 9 30 37 5 3 5 5 66 100 100 66 91 100 69 65 11 39 58 38 50 76 5 5 5 5 5 1 4 5 5 5 0 5 5 5 5 4 5 4 1 5 28 56 66 78 99 100 100 100 100 100 88 26
5 5 30 5 5 5 5 5 9 12 5 5 8 76 50 58 100 100 64 45 63 96 8 5 5 5 5 5 3 0 0 0 5 5 5 5 5 5 5 5 67 100 100 100 100 100 100 100 100 100 100 100 52 24

GFSWCAN_prec_cloud_024.txt.gz
Cloud_Cover
5 0 0 0 0 0 0 2 97 100 89 100 100 100 100 100 100 99 100 85 100 100 88 96 91 84 97 100 100 60 50 46 98 100 89 94 55 13 9 0 0 2 16 30 40 15 0 0 0 0 28 70 100 100
5 4 0 0 0 0 5 4 99 98 89 100 100 100 100 100 100 99 100 96 100 100 98 90 97 5 10 11 99 100 100 94 31 100 100 96 88 100 94 88 0 3 1 3 0 0 0 0 1 0 42 92 100 100
5 5 0 0 0 0 5 15 57 100 100 100 100 100 100 100 100 100 100 100 100 100 100 86 100 93 91 87 97 100 100 100 100 100 100 100 100 87 68 93 77 3 0 5 89 0 0 3 4 0 0 99 100 100
5 5 0 0 0 0 5 9 100 100 100 92 96 100 100 100 100 100 100 100 100 100 100 100 100 100 100 100 99 40 39 75 98 100 100 100 100 100 100 84 55 10 13 2 42 4 4 1 1 5 4 100 96 9
5 1 0 0 0 0 5 15 99 94 100 100 100 100 100 100 100 100 100 100 100 100 98 100 100 100 97 100 100 100 86 99 100 100 100 100 100 100 100 96 99 100 15 66 12 0 7 1 4 98 59 82 76 60
5 0 0 0 0 0 5 6 100 85 25 100 100 100 100 100 100 100 100 100 100 100 100 100 64 100 100 100 98 100 100 100 100 100 100 100 100 100 100 100 71 99 100 24 3 6 12 3 1 99 80 5 56 99
6 0 0 0 0 0 12 4 55 38 97 100 100 100 100 100 100 100 100 100 100 100 100 100 99 100 100 100 100 100 100 100 100 100 100 100 100 100 100 100 100 92 94 71 100 100 100 92 83 45 52 5 15 53
1 0 0 0 0 19 2 2 5 46 30 98 100 98 100 100 100 100 100 100 100 100 100 100 100 100 100 100 98 100 100 100 100 100 100 100 100 100 100 100 100 100 100 100 87 100 78 100 12 12 99 41 5 28
0 0 0 0 2 37 0 1 74 34 79 100 100 95 100 100 100 100 100 100 100 100 100 100 100 100 100 100 100 100 100 100 100 100 100 100 100 100 100 100 100 100 100 100 97 100 100 100 100 92 97 100 100 95
0 0 0 0 28 59 7 8 93 7 38 31 67 95 100 96 100 100 100 100 100 100 100 100 100 100 100 100 100 100 100 100 100 100 100 100 100 100 100 100 100 100 100 97 100 100 100 99 100 100 100 100 100 100
5 23 53 61 45 21 43 40 5 93 69 6 84 78 100 100 100 100 100 100 100 100 100 100 100 100 100 100 100 100 100 100 100 100 100 100 100 100 100 100 100 100 100 100 100 100 100 93 100 100 100 100 100 100
100 100 100 64 44 42 16 94 84 100 99 98 100 100 100 100 100 100 100 100 100 100 100 100 100 100 100 100 100 100 100 100 100 100 100 100 100 100 100 100 100 100 100 100 100 100 100 100 100 100 100 100 100 100
100 98 52 46 40 2 0 100 70 100 100 97 66 100 100 100 100 100 100 100 100 100 100 100 100 100 100 100 100 100 100 100 100 100 100 100 100 100 100 100 100 100 100 100 100 100 100 100 100 100 99 100 100 100
97 55 28 7 1 0 0 75 11 88 100 85 100 100 100 100 100 100 100 100 100 100 100 100 100 100 100 100 100 100 100 100 100 100 100 100 100 100 100 100 100 100 100 100 100 100 100 100 100 100 100 100 100 100
36 21 0 6 0 0 2 100 71 100 100 80 100 100 100 100 100 100 100 100 100 100 100 100 100 100 100 100 100 100 100 100 100 100 100 100 100 100 100 100 100 100 100 100 100 100 100 100 100 100 100 100 100 100
25 3 0 0 0 0 64 100 66 96 100 100 100 100 57 100 100 100 100 100 100 100 100 100 100 100 100 100 100 100 100 100 100 100 100 100 100 100 100 100 100 100 100 100 100 100 100 100 97 96 100 100 100 100
5 16 0 4 0 2 92 100 52 5 100 100 98 98 100 100 100 100 99 54 81 100 95 100 100 100 100 100 100 100 100 100 100 100 100 100 100 100 100 100 100 100 100 100 100 100 100 100 100 100 100 100 100 100
40 0 0 4 58 9 2 12 46 38 70 98 100 100 99 100 100 100 100 81 38 83 73 70 95 100 100 100 100 100 100 100 100 100 100 100 100 100 100 100 100 100 100 100 100 100 100 100 100 100 100 100 100 100
6 0 0 0 53 9 0 12 5 6 26 82 90 80 97 100 100 100 66 33 31 75 40 7 60 78 96 100 100 100 100 100 100 100 100 100 100 100 100 100 100 100 100 100 100 100 100 100 100 100 100 100 100 100
0 0 5 4 0 41 94 100 98 99 100 100 97 96 59 21 6 61 100 83 100 99 72 8 51 80 87 99 95 70 81 87 100 100 100 99 100 100 100 99 100 100 100 100 100 100 100 100 100 100 100 100 100 100
0 4 1 0 0 3 5 5 6 8 25 92 92 28 8 26 24 6 7 4 0 14 33 86 84 69 85 77 48 5 17 6 46 6 25 51 98 89 100 100 100 69 100 100 100 100 100 100 100 100 100 100 100 100
5 4 0 0 1 4 5 5 5 5 5 5 76 99 75 11 5 4 4 3 5 5 5 5 24 54 60 66 20 3 0 0 0 4 5 5 72 76 70 5 10 9 6 98 100 100 98 97 100 100 98 99 100 50
0 0 0 0 1 5 4 4 4 5 5 5 5 5 5 20 5 3 5 5 6 5 5 20 5 5 21 14 1 0 0 0 0 0 0 0 0 5 5 5 5 2 0 1 6 18 49 53 80 90 12 30 14 66
0 0 0 2 7 34 4 3 5 5 6 5 5 5 5 5 5 5 5 5 12 82 60 13 5 15 7 0 0 0 0 0 0 0 0 0 0 0 5 5 0 0 0 0 0 0 0 0 0 2 4 3 2 0
0 2 0 0 0 0 4 5 5 5 5 5 5 5 5 5 5 5 5 5 4 5 5 1 0 2 0 0 0 0 0 0 0 0 0 0 0 0 0 0 0 0 0 0 0 0 0 0 0 0 0 0 0 0
0 0 0 0 0 2 5 5 5 4 4 5 5 5 5 5 5 5 5 5 5 5 5 5 5 4 0 0 0 0 0 0 0 0 0 0 0 0 1 1 0 0 0 0 1 0 0 0 0 0 0 0 0 0
6 0 0 0 0 3 5 5 5 5 5 5 5 5 5 5 5 5 5 5 5 5 5 5 2 1 0 0 0 2 5 4 1 0 0 0 0 0 0 2 0 0 0 0 3 4 4 5 5 5 5 5 0 0
0 0 0 0 0 0 3 0 2 14 5 5 19 42 5 5 5 5 6 50 62 72 96 28 2 0 0 0 4 5 12 5 5 5 5 2 0 4 5 5 4 1 3 4 0 0 4 5 5 5 5 5 5 5
80 5 2 2 0 0 1 2 3 5 5 4 15 100 15 5 6 47 100 85 99 99 99 100 10 5 5 5 0 4 5 5 5 5 0 0 0 0 0 0 0 0 4 5 5 5 5 4 5 5 5 5 5 5
5 5 4 3 3 1 1 1 5 5 56 82 82 100 100 98 97 100 100 84 76 79 100 64 13 5 5 0 0 3 0 0 0 0 0 0 0 1 0 0 0 0 4 5 5 5 5 5 5 5 5 5 5 5
86 46 16 5 5 5 5 5 13 87 92 96 100 100 100 100 100 100 100 87 21 50 61 80 41 5 5 5 2 0 0 1 5 5 5 4 5 5 5 4 4 5 15 36 66 66 78 79 73 80 87 82 88 99
7 8 38 5 26 5 28 10 5 5 12 100 100 100 100 100 100 100 100 98 57 21 8 61 5 5 5 5 5 4 0 0 5 5 5 5 5 30 10 5 5 5 5 5 8 32 64 72 66 63 66 89 100 100
76 19 19 65 89 8 5 5 30 99 98 60 91 100 99 100 100 98 100 95 75 68 71 38 5 5 24 16 5 5 0 0 5 5 5 5 17 58 49 5 5 5 5 37 67 74 82 90 96 80 48 35 40 46

GFSWCAN_prec_cloud_027.txt.gz
Cloud_Cover
100 83 5 0 0 0 0 2 5 5 97 43 85 97 100 100 100 100 100 100 100 100 100 100 100 100 100 100 100 100 61 38 88 47 89 96 81 69 12 2 4 6 5 5 4 0 0 0 0 0 0 2 0 5
65 58 13 0 0 0 0 0 0 33 83 97 88 98 100 100 100 100 100 100 100 100 100 100 100 99 100 99 100 100 96 65 100 94 64 99 96 60 52 79 5 4 2 76 5 0 0 0 0 8 35 0 0 0
56 80 16 0 0 0 0 0 5 11 90 87 100 100 100 100 100 100 100 100 100 100 100 100 100 82 57 19 39 100 100 100 99 100 99 90 92 73 89 76 77 55 6 5 1 0 0 0 0 0 0 0 5 18
100 100 6 0 0 0 0 0 1 6 33 83 100 100 100 100 100 100 100 100 100 100 100 100 100 100 100 100 100 100 100 100 100 100 100 100 100 94 46 54 58 38 63 20 12 5 1 0 0 0 0 18 37 40
100 100 7 0 0 0 0 0 0 29 14 65 100 100 100 100 100 100 100 100 100 100 100 100 100 100 100 100 100 100 100 100 100 100 100 100 100 95 86 100 100 85 6 40 15 2 3 0 0 0 0 0 0 70
100 99 5 1 0 0 0 0 10 46 14 100 100 100 100 100 100 100 100 100 100 100 100 100 100 100 100 100 100 100 100 100 100 100 100 100 100 100 100 100 88 100 99 31 5 15 5 87 4 0 5 28 10 99
100 68 5 0 0 0 0 24 65 55 82 100 100 100 100 100 100 100 100 100 100 100 100 100 100 100 100 100 100 100 100 100 100 100 100 100 100 100 100 100 100 100 100 100 100 99 17 15 60 99 97 98 100 100
100 5 5 0 16 21 30 93 66 80 100 100 100 46 97 96 100 100 100 100 100 100 100 100 100 100 100 100 100 100 100 100 100 100 100 100 100 100 100 100 100 100 100 100 100 100 100 100 100 99 73 100 100 100
91 7 52 91 100 100 100 100 99 100 100 93 65 100 100 100 100 100 100 100 100 100 100 100 100 100 100 100 100 100 100 100 100 100 100 100 100 100 100 100 100 99 96 84 18 5 64 83 100 100 100 100 100 100
70 100 100 100 100 100 100 100 100 99 98 3 34 88 100 100 100 100 100 100 100 100 100 100 100 100 100 100 100 100 100 100 100 100 100 100 100 100 100 100 100 100 100 100 100 100 100 100 100 100 100 100 100 57
100 100 100 100 96 100 89 57 48 98 5 69 62 100 100 100 100 100 100 100 100 100 100 100 100 100 100 100 100 100 100 100 100 100 100 100 100 100 100 100 100 100 100 100 100 100 100 100 100 100 100 100 83 45
100 100 100 62 96 39 2 7 98 90 95 98 99 100 100 100 100 100 100 100 100 100 100 100 100 100 100 100 100 100 100 100 100 100 100 100 100 100 100 100 100 100 100 100 100 100 100 100 100 100 99 100 100 100
100 90 56 44 20 0 4 29 99 100 95 99 100 98 100 100 100 100 100 100 100 100 100 100 100 100 100 100 100 100 100 100 100 100 100 100 100 100 100 100 100 100 100 100 100 100 100 100 100 100 100 100 100 100
100 99 39 7 0 3 5 37 100 100 100 100 100 100 100 100 100 100 99 78 95 100 100 100 100 100 100 100 100 100 100 100 100 100 100 100 100 100 100 100 100 100 100 100 100 100 100 100 100 100 100 100 100 100
72 32 0 0 0 2 14 13 85 100 38 100 100 100 100 96 88 99 95 100 100 35 32 99 100 100 100 100 100 100 100 100 100 100 100 100 100 100 100 100 100 100 100 100 100 100 100 100 100 100 100 100 100 100
9 0 0 0 10 28 100 8 79 45 3 98 100 100 100 69 34 27 83 93 100 100 99 58 100 100 100 100 100 100 100 100 100 100 100 100 100 100 100 100 100 100 100 100 100 100 100 100 100 100 100 100 100 100
0 0 0 0 1 99 38 5 19 55 100 100 98 100 86 98 100 98 91 21 97 97 70 89 70 98 81 100 100 100 100 100 100 100 100 100 100 100 100 100 100 100 100 100 100 100 100 100 100 100 100 100 100 100
0 0 0 0 10 2 17 5 6 43 96 98 100 100 99 97 18 73 96 95 80 4 7 40 77 99 70 98 100 97 98 95 100 100 100 100 100 100 100 100 100 100 100 100 100 100 100 100 100 100 100 100 100 100
0 0 0 0 0 2 5 2 5 5 5 36 21 6 1 2 3 4 3 3 4 5 5 4 5 5 56 60 54 100 92 48 20 35 95 91 100 100 99 100 100 100 100 100 100 100 100 100 100 77 100 100 100 100
0 0 0 0 0 0 2 5 5 7 10 74 99 71 10 5 5 4 1 5 5 5 5 5 5 15 5 5 5 5 6 48 24 34 74 100 100 100 98 66 81 100 100 100 100 100 100 100 100 100 100 100 99 100
0 0 0 0 0 0 4 1 4 5 5 5 72 70 5 5 0 1 5 5 5 5 5 5 5 5 5 5 0 0 0 0 3 7 75 94 76 65 69 68 11 6 38 75 58 74 97 100 100 100 100 100 100 84
0 0 0 0 0 5 2 5 5 5 5 5 5 5 5 5 3 2 5 5 5 67 86 64 22 69 34 2 0 0 0 0 0 0 0 4 10 3 4 5 5 4 5 4 34 33 12 23 86 100 100 98 87 98
0 0 0 0 0 27 4 1 3 4 4 1 1 4 5 5 5 5 5 5 10 8 5 8 5 0 3 4 0 0 0 0 0 0 0 0 0 4 5 5 0 0 0 0 0 2 4 5 48 95 94 94 73 5
0 0 0 0 7 32 3 3 0 1 4 5 4 4 2 4 1 2 5 5 5 6 5 5 0 0 0 0 0 0 0 0 0 0 0 0 0 0 0 0 0 0 0 0 0 0 0 0 0 1 0 0 0 3
0 1 10 0 0 0 0 0 4 5 5 5 20 100 100 55 5 5 5 23 10 5 5 5 4 0 0 0 0 0 0 0 0 0 0 0 0 0 0 0 0 0 0 0 0 0 0 0 0 3 5 5 3 4
0 0 1 0 0 0 0 0 0 0 5 3 5 63 100 100 82 20 5 5 5 5 5 5 5 5 5 5 0 0 0 2 4 5 0 0 0 0 0 0 0 4 0 0 2 3 2 0 1 4 5 4 2 5
6 0 1 5 0 0 2 0 4 0 3 4 4 11 75 95 37 8 5 38 89 100 90 26 24 43 5 10 15 4 1 5 0 2 5 5 4 1 0 0 0 0 0 0 2 5 5 5 5 5 5 5 4 5
4 3 4 5 5 5 5 5 2 0 5 5 5 15 5 5 5 5 7 98 100 100 100 100 100 100 15 6 56 28 5 5 5 5 5 5 5 4 1 0 0 2 5 5 5 5 5 5 5 5 5 5 5 5
5 4 3 5 5 5 5 5 5 0 4 19 18 5 47 8 14 7 49 80 100 100 100 100 100 49 5 5 22 64 14 5 3 0 0 2 4 4 0 0 0 0 5 5 5 5 5 5 5 5 5 21 6 43
9 5 5 5 5 29 5 5 5 5 7 58 95 83 72 66 84 100 98 100 100 100 100 100 100 53 5 5 20 15 5 5 0 2 1 5 5 5 5 4 0 2 5 5 5 5 18 43 40 75 80 91 91 100
18 14 46 69 12 75 70 5 5 41 99 96 100 100 100 100 100 100 100 100 100 100 100 100 96 10 19 9 5 5 5 5 4 5 5 5 5 5 5 5 5 5 5 5 5 5 25 85 89 88 89 87 79 68
32 73 88 69 42 6 56 5 33 62 100 100 100 100 100 95 94 100 100 100 100 100 100 98 5 7 45 13 5 5 19 5 5 5 5 5 5 70 62 5 5 5 5 5 43 78 76 86 89 92 98 96 97 92
4 5 5 5 50 5 5 5 5 50 100 100 100 83 30 18 90 100 100 100 100 99 100 34 5 27 22 23 59 86 75 22 5 5 5 5 69 50 6 70 100 100 100 100 100 100 84 89 100 100 100 100 100 100

GFSWCAN_prec_cloud_030.txt.gz
Cloud_Cover
100 100 93 6 100 25 5 0 0 0 0 4 96 100 100 100 100 100 100 100 100 100 100 100 100 100 100 100 100 100 66 96 98 99 79 100 18 100 72 23 22 89 46 3 2 5 1 0 0 0 0 0 2 99
100 100 13 44 100 6 2 0 0 0 11 57 100 100 100 100 100 100 100 100 100 100 100 100 100 100 100 100 100 100 99 84 76 92 83 58 55 28 7 24 60 5 38 51 3 0 0 0 0 0 0 0 0 29
18 99 11 82 100 5 0 0 0 7 8 100 100 100 99 98 100 100 100 100 100 100 100 100 100 100 100 100 100 100 100 100 100 97 94 97 69 76 80 92 100 51 99 77 38 3 5 5 0 0 0 0 0 1
46 96 94 99 70 4 1 12 20 16 90 100 100 100 100 100 100 100 100 100 100 100 100 100 100 100 100 100 100 100 100 100 100 100 100 97 96 89 59 82 96 72 100 100 87 39 16 5 0 0 0 0 0 0
30 87 100 100 5 0 14 33 73 97 100 100 100 100 100 100 97 100 100 100 100 100 100 100 100 100 100 100 100 100 100 100 100 100 100 100 100 100 90 70 38 81 24 56 36 55 91 54 66 0 0 0 0 0
46 51 76 98 18 39 94 97 100 100 100 100 100 98 100 100 100 99 100 100 100 100 100 100 100 100 100 100 100 100 100 100 100 100 100 100 100 100 100 100 91 100 90 71 33 57 97 37 6 5 15 0 0 0
100 8 100 67 100 100 100 100 100 100 100 100 95 100 95 100 98 100 100 100 100 100 100 100 100 100 100 100 100 100 100 100 100 100 100 100 100 100 100 100 100 100 100 80 86 100 66 100 62 9 0 0 0 2
45 69 100 100 100 99 100 100 100 100 100 100 100 100 48 100 63 100 100 100 100 100 100 100 100 100 100 100 100 100 100 100 100 100 100 100 100 100 100 100 100 100 100 100 100 99 87 57 100 99 39 53 30 46
95 100 100 100 100 100 100 92 100 100 100 91 100 100 54 97 100 100 100 100 100 100 100 100 100 100 100 100 100 100 100 100 100 100 100 100 100 100 100 100 100 100 85 100 88 100 100 98 78 56 34 23 7 68
100 100 100 100 100 100 92 63 100 100 20 75 92 98 100 100 100 100 100 100 100 100 100 100 100 100 100 100 100 100 100 100 100 100 100 100 100 100 100 100 100 100 100 91 91 92 62 11 98 100 48 40 100 100
100 100 89 35 86 27 45 73 100 21 26 92 37 100 100 100 100 100 100 100 100 100 100 100 100 100 100 100 100 100 100 100 100 100 100 100 100 100 100 100 100 100 100 100 100 100 100 100 100 90 95 100 100 100
100 96 33 100 49 28 17 59 96 17 100 25 99 94 100 100 100 100 100 100 100 84 100 100 100 100 100 100 100 100 100 100 100 100 100 100 100 100 100 100 100 100 100 100 100 100 100 100 100 100 100 96 100 100
95 23 22 43 8 0 4 6 95 84 73 74 100 100 100 100 100 100 100 100 100 100 100 100 100 100 100 100 100 100 100 100 94 92 100 100 100 100 100 100 100 100 100 100 100 100 100 100 100 100 100 100 100 100
0 0 19 0 0 0 45 30 97 98 94 100 100 99 100 100 100 100 100 100 73 95 100 100 100 100 100 100 100 100 100 99 100 100 100 100 100 100 100 100 100 100 100 100 100 100 100 100 100 100 100 100 100 100
4 0 0 0 0 3 4 7 48 63 5 21 100 100 96 97 100 100 98 90 94 99 95 100 98 98 100 100 100 100 100 100 100 100 88 99 100 100 100 100 100 100 100 100 100 100 100 100 100 100 100 100 100 100
0 8 1 0 0 0 0 1 96 58 0 6 20 100 100 90 98 89 64 100 86 44 92 57 93 96 80 39 98 100 100 100 100 97 93 94 81 78 100 100 100 100 100 100 100 100 100 100 100 100 100 100 100 100
28 0 0 0 0 2 11 8 0 49 99 97 74 5 39 9 5 3 5 4 9 74 100 98 70 78 59 30 91 100 100 100 100 100 100 100 100 100 81 99 100 100 100 100 100 100 100 100 100 100 100 100 100 100
0 0 0 0 4 0 0 0 0 1 5 8 14 5 5 0 0 0 0 0 0 2 5 5 65 65 98 100 100 98 53 98 100 100 100 100 100 100 100 100 100 100 100 100 100 100 100 100 100 100 100 97 100 100
0 3 0 0 7 7 0 0 0 3 5 5 41 37 8 5 5 0 1 0 0 0 4 10 57 97 80 17 5 5 14 54 88 77 94 76 81 100 92 84 100 100 100 100 100 100 100 93 100 100 100 100 100 100
1 0 0 0 18 0 0 0 0 2 11 10 5 48 48 18 5 2 2 5 5 5 5 12 69 81 51 5 1 5 5 6 32 100 96 96 84 51 18 9 5 76 100 100 100 100 100 100 100 80 86 98 100 100
0 0 0 0 0 0 0 0 0 0 0 6 1 13 44 60 6 5 5 5 5 5 5 5 5 5 0 0 0 0 0 0 5 5 22 70 56 94 40 5 5 0 7 44 100 100 100 100 100 100 100 100 100 100
0 2 0 0 0 0 0 0 0 0 0 0 16 4 12 6 5 0 3 44 37 60 5 5 5 4 5 0 0 0 0 0 2 2 1 3 5 5 5 5 0 1 0 3 5 5 49 40 77 98 100 100 100 100
3 10 0 0 0 36 42 1 1 0 3 0 0 6 20 55 5 5 5 37 98 14 5 5 5 2 1 4 5 2 0 0 0 0 0 4 9 26 5 5 5 2 4 5 5 30 22 3 5 7 76 97 97 54
58 0 0 0 5 32 0 0 0 0 0 0 4 5 16 9 22 5 5 5 5 58 35 5 5 5 5 3 5 5 0 0 0 0 0 0 1 5 5 5 5 5 5 16 42 42 45 42 3 5 5 5 5 5
44 11 36 83 5 5 5 1 0 0 4 0 4 5 8 66 100 94 96 12 6 5 23 15 5 5 5 5 5 4 4 5 2 0 3 0 0 5 5 5 5 5 5 5 24 56 73 87 96 75 81 6 5 50
61 3 46 5 5 5 5 4 0 2 5 5 5 5 25 19 28 30 52 28 47 42 44 77 8 78 59 5 5 5 5 6 11 5 4 0 2 5 5 5 5 37 3 5 5 49 74 77 86 69 77 78 16 60
12 0 0 1 2 5 5 5 5 5 5 18 80 75 11 45 78 27 7 61 67 83 98 98 91 100 93 94 30 45 46 54 90 65 22 5 5 5 5 5 5 4 3 11 64 91 100 100 87 84 94 99 96 91
1 0 0 0 5 4 2 5 5 5 8 5 26 8 40 43 53 50 58 55 58 77 58 100 100 100 98 84 42 34 69 89 100 97 71 30 9 35 5 5 5 0 1 7 38 93 100 100 97 100 100 100 100 97
4 3 5 5 5 7 30 5 5 5 5 5 18 21 36 5 29 77 63 74 97 100 100 100 100 98 83 56 72 100 100 100 71 20 49 74 82 54 12 15 61 41 42 98 34 3 10 39 59 64 96 100 100 100
34 95 83 5 23 29 74 71 80 5 5 5 16 30 5 5 5 5 40 88 100 100 100 100 98 100 98 55 55 83 100 100 88 13 11 24 59 75 94 95 85 93 96 100 100 94 27 71 93 91 100 99 100 94
2 4 5 5 12 84 30 5 5 5 5 5 5 5 5 5 17 36 69 100 100 100 91 92 96 98 100 100 100 83 8 52 4 3 4 38 98 99 100 100 100 99 98 98 100 100 100 97 100 98 95 100 100 97
39 5 49 29 34 5 5 5 6 40 61 9 5 6 7 46 40 50 100 100 100 100 100 98 60 67 75 51 6 0 0 4 7 66 48 89 98 88 100 100 100 100 100 100 100 100 100 100 100 100 100 100 100 100
4 5 5 5 5 5 5 25 81 100 100 86 98 97 56 6 5 10 66 100 100 85 72 38 5 5 4 0 0 0 2 4 0 3 5 5 66 84 80 97 93 96 100 100 100 100 100 100 100 100 100 100 100 100

GFSWCAN_prec_cloud_033.txt.gz
Cloud_Cover
100 96 60 86 70 99 100 1 0 0 2 100 100 100 100 100 98 100 100 100 100 100 100 100 100 100 100 100 100 82 58 92 98 97 100 100 99 100 96 100 100 100 83 65 86 97 76 81 79 96 78 5 0 3
100 100 94 100 100 90 75 5 14 5 92 100 100 100 100 100 100 100 100 100 100 100 100 100 100 100 100 100 100 100 99 92 96 100 71 100 100 100 100 99 40 73 100 100 96 78 5 5 76 39 74 5 0 8
97 100 100 75 100 73 5 6 49 100 100 100 100 100 100 100 100 100 100 100 100 100 100 100 100 100 100 100 100 100 100 100 100 100 96 48 36 82 100 100 99 87 5 9 92 25 82 1 3 5 3 4 4 4
100 91 98 75 100 50 20 100 100 100 100 100 100 100 100 100 99 100 100 100 100 100 100 100 100 100 100 100 100 100 100 100 100 100 100 100 100 85 78 93 86 100 100 86 24 13 44 5 1 3 1 0 0 0
96 94 100 100 82 79 100 100 100 100 100 100 95 100 100 96 11 70 100 100 100 100 100 100 100 100 100 100 100 100 100 100 100 100 100 100 100 100 100 58 61 64 76 95 99 83 17 10 54 4 0 0 0 0
100 82 95 65 100 24 100 100 100 100 100 100 100 100 100 22 21 100 100 93 100 100 100 100 100 100 100 100 100 100 100 100 100 100 100 100 100 100 100 100 100 100 100 97 67 64 100 97 79 70 75 0 0 0
100 90 99 100 100 69 100 100 100 100 100 100 58 5 15 50 99 100 99 100 100 100 100 100 100 100 100 100 100 100 100 100 100 100 100 100 100 100 100 100 100 100 100 100 100 51 14 5 20 40 12 44 20 2
87 100 100 100 98 58 100 100 100 100 100 100 28 17 55 99 99 97 66 100 100 100 100 100 100 100 100 100 100 100 100 100 100 100 100 100 100 100 100 100 100 100 100 100 93 68 53 100 10 42 46 36 12 5
100 100 100 100 30 8 48 78 100 100 100 100 90 20 100 100 99 73 70 100 100 100 100 100 100 100 100 100 100 100 100 100 100 100 100 100 100 100 100 100 100 100 98 100 52 100 100 99 78 26 79 1 62 16
100 100 100 70 82 92 42 88 100 79 74 100 100 100 100 100 100 100 94 100 100 100 100 100 100 100 100 100 100 100 100 100 100 100 100 100 100 100 100 100 100 100 100 98 45 93 87 74 35 21 54 74 17 82
99 3 0 0 1 12 49 93 98 48 8 97 100 99 51 76 100 100 100 100 92 100 98 100 100 100 100 100 100 100 100 100 100 100 100 100 100 100 100 100 100 100 100 100 100 97 100 100 90 37 100 100 80 35
16 1 0 12 6 3 1 56 48 100 98 99 84 52 96 87 100 100 100 100 100 100 95 80 96 100 99 100 100 100 100 100 100 100 100 100 100 100 100 100 100 100 100 100 100 100 100 100 100 100 100 100 100 100
2 4 12 13 0 0 0 1 100 100 100 100 71 75 79 100 100 100 100 100 100 97 86 100 88 78 90 100 46 100 100 100 100 100 100 100 100 100 100 100 100 100 100 100 100 100 100 100 100 100 100 100 100 100
0 1 1 0 0 0 2 5 6 87 41 26 57 100 100 100 99 82 100 100 100 100 100 100 100 94 88 100 60 98 98 100 100 100 100 100 100 100 100 100 100 100 100 100 100 100 100 100 100 100 100 100 100 100
0 0 0 0 0 0 2 51 6 6 2 4 4 59 71 100 59 81 92 92 95 87 100 99 100 96 38 82 100 91 56 100 100 100 100 100 100 100 100 100 100 100 100 100 100 100 100 100 100 100 100 100 100 100
0 59 11 0 0 0 0 0 19 5 38 49 13 5 4 8 94 4 2 2 34 96 96 100 74 88 69 60 60 97 100 100 100 99 93 96 100 100 100 100 100 100 100 100 100 100 100 100 100 100 100 100 100 100
53 0 6 0 0 0 0 0 0 0 1 5 5 5 0 0 1 2 0 0 4 5 11 70 56 94 98 98 96 99 100 100 100 100 58 73 98 94 100 100 100 100 100 100 100 100 100 100 100 100 100 100 100 100
0 0 0 0 4 0 0 0 0 5 5 5 19 5 5 0 4 2 0 0 1 5 5 5 78 86 97 98 95 100 100 100 88 100 32 14 87 92 74 70 74 49 100 100 100 100 100 100 100 100 100 100 100 100
1 14 1 0 17 8 0 0 2 5 4 5 16 7 3 5 5 2 0 0 3 5 5 2 18 65 77 68 19 21 5 5 90 21 98 69 87 88 55 11 5 5 32 89 90 100 100 100 100 100 100 100 100 100
24 4 0 0 21 0 0 0 3 5 16 9 44 68 20 30 5 5 5 3 3 4 5 3 5 5 6 5 5 5 5 4 5 35 82 93 89 73 53 5 5 5 5 5 9 49 85 100 100 100 100 100 100 100
71 10 0 0 0 0 2 4 38 3 5 67 64 100 88 84 5 5 5 5 5 5 5 5 5 5 5 5 5 5 5 2 5 5 4 0 0 5 5 5 5 5 5 5 42 53 14 5 24 90 100 68 38 96
0 8 1 0 0 0 1 0 3 2 32 14 57 58 82 65 5 5 5 5 5 5 5 5 5 5 5 4 5 4 5 5 5 5 5 2 5 5 7 5 5 5 5 5 14 44 28 18 8 8 5 6 5 5
6 10 0 0 0 36 42 3 22 4 29 5 27 82 79 76 8 5 24 8 27 6 8 5 5 5 4 5 5 33 5 3 5 5 5 3 5 46 50 5 5 42 8 31 15 43 30 1 5 6 19 14 52 40
63 0 0 0 5 32 5 5 5 5 6 50 54 70 51 5 9 25 9 5 5 46 39 3 5 6 5 5 5 5 3 4 5 5 5 3 5 5 5 38 47 30 20 22 95 98 98 92 32 62 57 24 20 14
53 11 36 82 0 2 3 4 5 5 53 41 70 97 100 35 38 26 12 5 5 5 11 47 11 5 21 7 5 5 5 5 5 5 5 2 5 5 6 39 56 84 33 5 64 98 100 100 100 100 99 51 3 51
84 5 64 0 2 2 4 5 5 5 5 43 97 100 100 94 98 87 57 10 63 100 92 76 88 100 100 81 89 26 5 5 5 5 5 5 5 5 5 18 35 95 17 38 87 99 100 100 100 100 100 90 40 89
48 0 0 0 0 4 53 49 5 10 14 99 100 98 100 95 100 100 79 18 80 100 100 100 100 100 97 83 39 29 59 98 94 60 61 57 50 42 12 13 50 32 4 78 100 100 100 100 100 100 100 100 100 100
0 1 67 79 9 92 90 99 97 73 98 88 78 100 100 99 100 100 92 22 82 100 92 100 100 100 100 100 62 61 29 32 6 50 64 46 69 92 37 71 70 1 1 21 10 68 95 100 100 100 100 100 100 100
41 74 45 65 100 97 94 54 84 100 100 90 100 99 89 85 35 5 5 56 93 100 100 99 92 100 60 62 50 63 4 5 5 78 98 100 100 97 98 100 100 100 100 86 26 24 5 5 5 34 95 100 100 89
100 87 65 92 94 81 33 98 92 89 100 96 33 34 78 95 12 88 76 32 96 100 100 100 100 64 74 100 31 41 39 23 6 5 62 94 100 100 98 99 100 100 100 100 100 95 46 73 83 92 97 100 100 100
77 88 88 80 99 100 100 8 26 98 100 100 100 89 37 22 90 99 71 100 100 100 50 82 99 100 96 12 4 0 4 70 38 14 2 43 100 100 99 99 100 100 100 100 93 100 100 100 100 100 98 100 100 94
92 88 100 86 100 68 5 30 13 71 100 100 100 100 98 82 99 94 95 100 85 77 49 6 100 33 5 5 5 4 0 6 97 87 93 45 47 45 84 100 100 100 100 100 100 100 100 100 100 100 100 100 100 100
90 92 5 89 95 88 100 63 25 96 100 100 100 100 100 53 25 65 100 84 30 27 5 5 5 4 2 2 1 5 30 39 0 0 5 5 9 48 67 97 90 98 100 100 100 100 100 100 100 100 100 100 100 100

GFSWCAN_prec_cloud_036.txt.gz
Cloud_Cover
100 100 88 100 100 100 100 10 13 1 32 100 100 100 100 100 100 100 100 100 100 100 100 100 100 100 100 100 100 100 100 91 87 98 100 96 81 52 13 86 100 93 100 100 96 6 100 50 100 100 100 43 4 3
100 100 100 100 100 100 99 54 28 85 100 100 100 100 100 100 98 100 100 100 100 100 100 100 100 100 100 100 100 100 100 100 93 99 92 61 100 97 100 93 100 90 67 100 100 55 90 100 100 100 27 100 99 2
100 100 99 96 100 100 47 80 100 100 100 100 100 100 100 100 100 100 100 100 100 100 100 100 100 100 100 100 100 100 100 100 100 100 100 96 53 71 66 82 100 99 94 100 96 11 72 100 70 70 53 6 28 40
100 100 100 95 100 100 100 100 100 100 100 99 100 100 100 100 100 88 100 100 100 100 100 100 100 100 100 100 100 100 100 100 100 100 100 100 100 51 29 21 50 34 5 4 74 7 18 14 5 5 5 0 2 5
100 100 100 100 100 100 100 100 100 100 100 100 100 86 42 66 32 96 100 100 100 100 100 100 100 100 100 100 100 100 100 100 100 100 100 100 100 100 67 12 11 26 48 59 5 5 5 1 0 2 1 0 0 0
100 100 100 100 100 100 100 100 100 100 100 100 36 48 98 48 20 100 100 100 100 100 100 100 100 100 100 100 100 100 100 100 100 100 100 100 100 100 100 100 100 100 84 19 5 1 2 0 0 0 0 0 0 0
100 100 100 100 100 100 93 100 100 100 99 17 16 100 99 84 56 100 100 100 100 100 100 100 100 100 100 100 100 100 100 100 100 100 100 100 100 100 100 100 100 100 100 100 100 99 46 0 0 0 1 1 0 0
100 100 100 100 100 45 91 100 100 100 100 99 100 100 100 100 99 100 100 100 80 100 99 95 100 100 100 100 100 100 100 100 100 100 100 100 100 100 100 100 100 100 91 64 88 82 60 4 5 0 0 3 5 3
100 100 87 100 0 2 92 100 100 59 97 99 67 100 100 100 100 100 100 100 100 100 100 96 100 100 100 100 100 100 100 100 100 100 100 100 100 100 100 100 100 100 100 99 52 93 100 91 99 0 3 5 0 0
100 100 100 42 38 25 42 100 19 9 100 36 100 98 100 100 99 96 100 100 100 100 100 98 100 100 100 100 100 100 100 100 100 100 100 100 100 100 100 100 100 100 100 100 100 86 99 100 100 66 12 16 4 5
98 97 45 39 33 20 16 30 100 100 55 95 100 92 20 56 100 100 100 100 98 97 100 100 100 98 86 100 100 100 100 100 100 100 100 100 100 100 100 100 100 100 100 100 100 100 100 100 99 100 67 7 8 57
74 20 32 23 1 0 0 0 83 94 94 100 92 64 64 65 42 48 100 100 100 100 100 98 100 100 97 74 100 100 100 100 100 100 100 100 100 100 100 100 100 100 100 100 100 100 100 100 100 100 99 68 86 100
0 8 15 8 0 0 0 5 0 37 91 36 82 91 72 33 96 75 98 84 100 100 100 97 98 100 100 100 86 96 100 100 100 100 100 100 100 100 100 100 100 100 100 100 100 100 100 100 100 100 100 100 100 100
0 0 3 0 0 0 0 0 4 5 5 94 64 96 16 98 84 90 59 54 69 68 68 100 100 99 100 26 61 100 100 100 100 100 100 100 100 100 100 100 100 100 100 100 100 100 100 100 100 100 100 100 100 100
0 0 0 30 0 0 0 0 2 5 3 5 7 61 64 23 11 13 5 5 11 14 85 66 81 100 84 37 67 13 27 99 97 98 100 93 100 100 100 100 99 100 100 100 100 100 100 100 100 100 100 100 100 100
0 59 11 0 0 0 0 4 19 0 4 5 5 5 2 2 2 2 1 5 4 5 88 64 60 75 77 100 73 73 64 100 86 100 91 72 90 98 100 100 81 100 100 100 100 100 100 100 100 100 100 100 100 100
55 0 1 0 0 0 0 0 4 1 1 28 12 5 5 1 5 5 0 0 4 5 5 39 60 15 82 85 61 39 48 34 17 37 13 91 25 82 59 92 97 68 100 100 100 100 100 100 100 100 100 100 100 100
0 0 0 0 4 0 0 2 4 4 5 1 37 14 5 5 5 4 1 0 1 5 2 2 28 50 53 92 96 95 89 84 70 64 71 4 99 36 100 58 19 81 100 92 100 100 100 100 100 100 100 100 100 100
1 10 2 1 29 8 2 2 3 6 16 13 10 67 17 19 5 5 3 5 4 0 0 2 3 5 48 14 5 5 5 5 5 64 91 84 87 92 100 69 6 67 88 100 85 100 100 100 100 100 100 100 100 100
44 3 0 0 41 0 26 5 1 14 66 8 53 4 2 65 18 5 5 2 5 5 5 5 4 5 5 5 5 3 5 3 5 5 22 6 5 7 93 30 20 5 59 94 98 86 100 99 100 100 100 100 100 100
0 0 0 0 0 1 4 10 100 14 4 89 76 6 5 55 82 5 5 9 5 5 5 5 5 5 5 4 5 5 4 0 5 20 5 4 0 71 60 70 71 62 54 58 89 100 86 46 66 96 100 100 100 100
0 0 0 0 4 4 9 5 3 3 69 91 87 32 97 95 86 38 11 90 7 5 5 5 4 0 5 3 4 3 4 0 4 5 5 5 5 21 91 64 65 82 66 88 63 92 87 5 7 96 72 71 76 100
0 8 0 2 3 36 42 1 29 42 56 30 52 100 66 83 74 5 92 65 74 14 18 5 5 5 5 5 5 5 5 4 2 5 5 5 2 14 63 64 91 94 81 87 100 100 97 88 41 94 98 65 80 78
63 0 43 91 8 32 4 56 57 64 72 98 36 27 98 93 3 89 98 86 19 30 78 59 57 100 98 65 90 36 19 5 2 2 5 5 1 5 28 68 76 100 43 44 100 100 100 100 94 100 100 11 58 100
54 38 36 99 0 1 49 5 12 87 86 100 91 42 36 22 8 43 41 99 51 6 45 75 96 76 94 100 81 51 5 5 5 5 29 5 5 5 36 68 97 85 50 44 97 100 100 100 100 88 92 11 3 99
84 5 64 5 64 44 77 65 100 100 100 100 92 67 86 100 100 83 91 44 40 5 21 85 100 97 100 97 97 54 5 5 5 5 5 5 11 23 36 68 84 86 5 48 97 99 100 100 100 90 100 94 73 81
48 60 57 10 5 31 80 100 100 100 99 100 100 100 97 51 74 100 80 11 66 10 18 66 100 100 100 92 79 52 5 10 1 1 4 4 53 82 62 94 89 2 0 57 80 99 96 99 100 100 100 100 78 86
35 69 18 41 50 92 100 100 100 100 96 100 100 80 100 98 89 100 100 17 39 7 49 47 84 92 81 24 17 5 5 5 64 74 91 100 100 100 70 98 91 5 12 26 5 76 18 71 87 91 100 96 97 79
73 100 79 54 11 10 100 70 57 100 71 100 100 100 100 100 60 60 87 70 23 30 26 21 51 70 28 95 100 100 100 87 56 73 82 100 100 100 92 91 100 100 100 94 77 19 31 7 5 7 76 94 100 91
17 5 11 82 100 83 100 100 33 90 98 100 100 100 100 100 100 100 100 68 20 32 88 31 100 100 100 100 100 27 6 96 96 34 6 88 100 100 72 92 100 100 96 100 100 96 97 75 96 83 96 96 94 96
21 45 80 66 81 98 11 29 49 64 98 100 76 78 42 53 100 100 45 99 29 6 77 91 98 91 97 85 9 4 0 4 36 11 5 72 100 99 76 99 100 100 85 96 96 100 99 96 94 94 91 95 81 94
80 26 99 39 65 65 97 13 51 15 51 62 100 100 100 39 24 17 5 6 5 72 35 86 81 25 4 1 4 5 3 14 9 39 10 5 5 65 100 99 100 100 98 93 96 97 98 100 100 98 97 99 98 100
56 86 58 99 87 62 39 98 9 7 53 88 27 74 80 19 9 2 5 3 5 1 4 5 5 5 3 4 2 27 26 5 5 5 0 5 5 28 88 100 100 100 100 100 98 100 100 98 83 100 99 99 82 87

GFSWCAN_prec_cloud_039.txt.gz
Cloud_Cover
100 100 100 95 100 92 100 100 100 100 100 100 100 100 100 100 100 100 100 100 100 100 100 100 100 100 100 100 100 100 98 56 100 100 100 100 100 100 100 100 100 100 100 92 100 100 100 100 100 100 97 99 65 61
100 100 100 100 85 87 100 100 100 100 100 100 100 100 100 100 100 100 100 100 100 100 100 100 100 100 100 100 100 100 100 85 98 45 94 100 100 100 100 100 100 100 100 100 100 100 100 100 100 83 100 100 91 53
100 100 100 100 100 100 100 100 100 100 97 100 100 100 100 100 100 100 100 100 100 100 100 100 100 100 100 100 100 100 100 99 69 67 5 49 100 100 100 100 100 93 11 94 7 83 99 100 100 100 91 99 100 36
100 100 100 100 100 100 100 100 100 100 100 100 100 100 100 98 100 100 100 100 100 100 100 100 100 100 100 100 100 100 100 100 100 96 99 98 85 6 10 69 100 8 6 61 5 65 4 42 100 100 13 60 17 0
100 100 100 100 100 100 100 100 100 100 100 100 98 95 89 78 100 100 100 100 100 96 100 94 100 100 100 100 100 100 100 100 100 100 100 91 55 54 7 2 84 83 98 99 84 5 2 3 40 100 99 5 5 0
100 100 100 100 100 100 100 100 100 100 100 87 36 31 29 100 100 100 100 100 100 99 100 94 94 100 100 100 100 100 100 100 100 100 100 100 100 99 98 59 99 100 100 100 100 17 1 3 5 61 89 72 5 5
100 100 100 100 100 30 95 100 100 100 85 66 100 65 81 100 100 100 100 97 100 100 100 86 100 100 100 100 100 100 100 100 100 100 100 100 100 100 100 100 100 100 100 96 13 42 90 72 7 47 74 88 97 17
100 100 92 100 57 100 100 100 100 100 9 100 100 100 100 100 77 100 100 100 63 99 100 96 95 100 100 100 100 100 100 100 100 100 100 100 100 100 100 100 100 100 100 100 78 55 4 0 4 0 0 0 1 19
100 100 100 18 95 82 99 100 100 46 51 100 100 100 100 100 100 100 100 100 100 100 100 96 100 100 100 100 100 100 100 100 100 100 100 100 100 100 100 100 100 100 100 100 54 92 100 78 1 0 0 0 0 0
100 100 1 16 66 33 28 96 29 69 5 7 53 83 100 100 100 100 100 99 100 100 100 100 100 100 100 100 100 96 100 100 100 100 100 100 100 100 100 100 100 100 100 100 100 100 100 100 100 100 92 2 0 0
42 0 1 31 46 9 0 1 66 100 100 59 77 100 29 5 76 100 100 88 90 100 100 100 100 100 100 100 100 100 86 98 100 100 100 100 100 100 100 100 100 100 100 100 100 100 100 100 100 100 100 100 37 11
0 0 1 36 5 0 0 0 0 41 88 100 72 39 83 54 31 5 21 74 100 53 63 93 90 97 92 100 100 100 100 94 52 81 100 100 100 100 100 100 100 100 100 100 100 100 100 100 100 100 98 93 58 79
0 0 16 19 1 0 0 0 0 0 0 1 18 90 99 44 51 72 85 84 96 84 86 98 62 76 28 12 50 80 100 100 46 56 96 100 100 100 100 100 100 100 100 100 100 100 100 100 100 100 100 100 100 97
1 10 21 10 0 0 0 0 0 4 0 3 0 24 6 62 100 75 5 5 5 1 90 99 12 99 7 50 23 85 44 34 99 100 100 99 100 100 99 100 100 100 100 100 100 100 100 100 100 100 100 100 100 100
4 9 3 40 0 0 0 0 0 0 2 2 5 63 5 10 31 5 4 1 0 5 7 9 92 39 95 40 17 5 10 66 59 96 59 76 82 79 100 92 95 100 100 100 100 100 100 100 100 100 100 100 100 100
19 52 11 0 0 0 0 0 20 0 0 5 6 5 0 0 1 0 0 0 0 0 32 95 6 2 5 8 13 97 42 79 57 80 75 4 5 12 30 100 21 23 100 100 100 100 100 100 100 100 100 100 100 100
57 2 0 0 0 0 1 0 0 0 4 40 98 7 0 0 0 3 0 0 0 3 3 3 5 5 33 6 37 63 90 100 16 5 36 19 39 31 84 40 98 5 21 100 100 100 100 100 100 100 100 100 100 100
0 0 0 0 1 0 0 0 3 5 25 6 82 96 90 1 1 3 2 0 0 0 0 43 8 2 20 35 5 5 5 6 5 82 96 98 58 6 36 94 4 6 5 72 74 100 100 100 100 100 100 100 100 100
3 10 7 6 65 10 0 0 1 30 62 15 11 6 5 41 9 10 5 5 5 1 0 0 2 5 5 5 0 0 1 0 0 4 85 95 89 81 100 98 4 64 53 13 96 26 96 100 100 100 100 100 100 100
85 13 2 0 54 0 53 42 10 5 78 14 10 18 4 15 100 59 5 5 5 2 0 4 4 3 2 0 0 0 0 0 0 5 5 2 0 7 100 49 70 46 99 96 5 59 23 84 100 100 100 100 100 100
0 0 0 2 0 0 0 2 13 35 4 5 100 80 46 91 27 39 5 1 2 1 5 2 5 5 0 0 1 5 1 3 5 5 44 5 0 54 100 85 9 95 36 11 100 48 5 5 85 96 100 100 100 100
0 0 0 0 6 91 8 45 2 4 22 57 37 36 78 15 20 74 75 7 4 2 4 5 5 5 5 5 12 16 26 16 5 5 5 5 5 4 43 82 97 94 56 46 99 62 6 2 5 57 11 100 99 100
0 0 0 0 3 35 32 0 3 93 94 5 45 29 53 100 94 98 96 100 52 5 20 58 49 60 5 5 39 57 10 5 3 2 0 5 5 5 5 100 99 41 6 9 100 100 86 40 5 4 0 8 93 100
29 0 6 84 41 32 0 14 97 100 96 89 100 92 57 100 100 100 100 100 80 37 70 85 6 87 81 51 70 66 5 5 5 1 4 5 5 1 59 100 98 10 14 5 45 100 100 99 78 10 0 1 55 99
54 47 36 99 0 3 5 92 52 100 100 100 100 100 100 47 99 100 100 99 65 96 95 100 18 90 94 100 100 63 6 4 0 0 0 0 0 5 5 95 20 5 5 24 6 65 77 100 99 88 5 5 5 9
84 5 29 2 41 93 100 100 100 97 100 96 92 80 99 94 90 100 100 100 100 100 100 100 99 55 39 43 66 28 5 0 0 0 0 0 1 0 2 3 11 3 1 12 54 78 82 98 99 90 19 63 92 60
48 72 40 0 40 63 100 100 100 77 89 5 81 100 100 100 93 92 100 99 100 100 100 64 14 1 3 5 3 3 5 0 5 5 29 10 99 10 29 52 5 2 5 17 5 10 21 55 73 92 84 93 5 5
0 15 54 4 62 67 8 41 51 58 39 28 98 99 60 100 100 100 100 98 100 85 11 75 5 0 22 66 89 98 32 72 59 94 40 40 96 100 67 78 6 5 5 7 37 40 34 67 71 75 42 86 5 5
5 4 36 6 17 93 70 48 20 27 93 60 15 82 93 100 100 86 54 100 96 61 69 15 10 36 89 100 79 99 100 100 97 81 95 99 100 100 98 51 87 69 78 5 58 51 97 88 100 94 99 100 83 41
98 67 4 5 11 35 20 5 5 69 82 98 100 100 100 100 100 100 99 38 5 4 25 95 66 99 99 92 48 17 68 21 3 4 48 76 41 74 64 57 91 100 100 92 27 37 84 100 100 100 100 100 81 98
24 2 33 42 19 100 96 78 99 68 16 25 100 72 71 100 100 100 96 18 42 36 5 11 11 5 5 5 5 2 0 1 4 5 5 5 5 6 90 94 100 99 94 97 98 99 96 95 98 100 99 100 97 91
4 85 100 98 50 96 58 92 16 69 78 3 26 4 12 21 23 5 5 5 0 0 0 0 0 0 0 0 0 0 0 2 5 5 1 0 2 5 8 68 100 100 44 97 99 98 100 98 76 82 100 87 26 27
88 38 45 68 16 76 52 100 100 68 43 6 24 5 9 68 8 4 5 3 0 2 0 0 2 2 5 5 0 4 5 5 5 5 3 0 0 0 3 5 29 76 83 81 90 97 87 70 72 76 99 100 93 95

GFSWCAN_prec_cloud_042.txt.gz
Cloud_Cover
100 100 100 100 61 94 100 100 100 100 100 100 100 100 100 100 100 100 100 100 100 100 100 100 100 100 100 100 100 100 93 100 54 72 100 100 100 100 100 100 100 100 100 100 100 90 100 100 100 100 96 100 84 39
100 100 100 100 65 85 100 100 100 100 100 100 100 100 100 100 100 100 100 100 100 100 100 95 100 100 100 100 100 100 100 100 100 35 100 100 100 100 100 100 100 100 100 100 100 76 100 100 100 100 100 100 93 5
66 100 99 76 100 100 100 100 100 100 100 100 100 100 100 99 100 100 100 100 100 100 96 98 100 100 100 100 100 100 100 100 100 52 100 84 100 97 100 100 100 100 100 100 84 55 19 100 83 100 100 93 100 10
100 98 100 90 100 100 100 100 100 100 100 100 100 100 100 98 100 100 100 100 98 100 100 100 100 95 91 100 100 100 100 100 100 79 47 96 100 90 96 100 100 100 100 100 95 13 6 95 98 100 100 100 24 0
34 93 100 99 98 38 100 100 100 100 100 100 99 74 100 100 90 100 100 100 99 55 100 98 100 98 64 91 100 100 100 100 100 100 100 100 100 94 91 95 100 100 100 100 100 96 100 99 100 100 100 100 93 46
68 97 100 94 100 100 100 100 100 100 86 100 98 86 100 100 81 94 100 100 100 91 98 100 100 100 100 94 96 100 100 100 100 100 100 100 99 100 96 100 100 100 100 100 100 100 100 100 99 100 100 100 100 48
78 99 22 28 100 100 100 100 100 92 16 98 100 100 100 100 100 100 100 100 36 74 100 79 90 81 96 100 100 100 100 100 100 100 100 100 100 100 100 100 100 100 100 100 100 100 64 59 19 100 100 100 100 100
56 29 3 37 99 100 100 100 97 8 66 100 100 100 95 100 100 100 100 100 100 100 100 100 77 70 62 86 100 100 100 100 100 100 100 100 100 100 100 100 100 100 100 100 100 100 99 87 100 70 5 96 100 99
5 0 0 14 64 100 100 100 66 17 69 100 100 100 100 100 88 82 100 100 100 100 100 100 100 100 87 63 99 100 100 100 100 100 100 100 100 100 100 100 100 100 100 94 58 98 100 100 99 100 100 99 100 100
0 0 2 0 16 72 20 2 0 90 100 100 100 84 100 87 100 99 86 99 100 100 100 100 100 100 42 87 98 98 94 100 100 99 100 100 100 100 100 100 100 100 100 100 100 100 100 100 100 81 99 71 35 87
0 2 0 3 6 38 6 0 0 0 100 100 100 76 20 39 40 81 59 18 7 64 37 58 92 72 91 69 88 95 88 99 100 100 99 100 100 84 73 97 100 85 93 96 72 98 100 100 100 100 100 100 99 92
0 1 5 5 8 16 3 0 0 28 0 0 5 9 3 27 39 30 14 5 50 61 27 44 50 100 100 100 88 100 97 57 72 94 94 100 100 96 61 18 84 100 100 100 100 100 100 100 100 100 100 100 100 100
0 3 25 10 2 0 0 0 0 0 0 3 2 0 2 2 60 52 42 5 5 4 87 47 70 47 28 5 65 46 90 12 7 52 100 100 100 100 100 100 43 62 99 97 100 100 100 100 100 100 100 100 100 100
5 13 22 11 6 0 0 0 0 9 1 0 0 1 4 17 13 5 4 0 0 4 15 70 68 1 5 43 6 6 5 7 6 87 97 59 7 5 8 93 100 98 100 96 86 100 100 100 100 100 100 100 100 100
5 19 9 48 0 0 0 0 0 1 0 12 1 4 0 0 2 0 0 0 0 0 7 5 5 4 5 26 6 5 4 51 58 80 84 5 5 5 5 5 51 94 100 100 89 68 94 100 100 100 100 100 100 100
13 19 2 0 0 0 0 3 21 0 0 5 37 52 4 4 3 4 4 4 4 0 3 0 0 0 0 1 0 0 8 63 94 50 5 5 5 5 5 0 0 4 8 76 100 100 100 100 100 100 100 100 100 100
10 4 0 0 0 0 0 0 0 0 0 45 95 21 5 5 5 5 5 5 4 2 0 0 0 0 1 3 5 5 5 5 5 65 81 7 5 5 4 1 2 0 12 5 23 89 100 100 100 100 100 100 100 100
5 2 0 0 35 2 0 0 0 2 62 10 68 5 5 4 4 5 5 1 0 0 0 1 3 5 5 5 4 2 4 2 2 0 5 8 12 58 14 5 5 0 10 44 97 48 87 100 100 100 100 100 100 100
6 16 12 47 88 38 0 0 0 4 42 83 69 5 5 17 6 20 42 26 5 0 5 5 5 5 5 5 5 4 4 2 5 4 5 5 45 57 97 73 20 4 5 11 5 37 86 12 94 100 100 100 100 100
14 8 0 2 61 0 1 31 2 59 52 38 87 74 36 48 12 11 5 23 83 65 60 29 5 8 5 5 5 5 5 5 5 5 78 87 50 88 46 20 99 65 5 5 5 14 7 5 21 81 100 100 100 100
3 0 0 0 1 0 0 0 5 62 100 40 74 100 100 19 93 100 64 79 54 47 50 35 23 84 40 100 63 5 5 5 5 20 5 70 13 11 97 97 100 100 69 5 5 2 5 4 2 5 61 97 100 100
0 0 0 0 0 24 7 1 10 100 97 45 95 100 100 74 100 100 100 100 73 95 100 100 100 100 97 100 88 96 100 100 43 5 14 0 1 5 5 75 97 97 100 97 72 16 7 5 5 1 5 5 37 98
0 0 0 0 5 0 1 5 4 21 100 100 100 100 100 100 94 92 88 100 100 100 100 92 70 70 100 80 10 88 75 33 36 43 54 0 5 5 5 75 87 100 88 97 82 31 18 5 5 5 3 5 5 9
0 0 0 0 4 43 84 92 68 94 52 39 30 55 99 92 100 100 100 100 100 100 100 100 95 100 56 5 85 16 32 100 97 20 0 0 0 1 5 81 44 27 87 100 100 73 99 10 66 15 5 5 3 5
56 47 8 58 4 45 8 34 6 74 74 18 5 75 78 100 99 100 100 100 100 100 100 100 52 100 66 5 10 65 75 9 1 0 0 0 0 0 2 2 5 88 81 56 74 50 92 89 57 5 5 5 5 5
84 8 2 0 31 36 99 92 91 10 5 18 89 100 100 100 100 100 100 100 100 100 100 100 100 68 0 5 34 21 6 5 5 1 1 0 0 0 3 3 4 2 0 1 28 85 94 48 5 5 5 5 14 32
49 2 57 5 76 69 100 100 78 5 5 86 100 100 100 100 100 100 100 100 100 97 100 93 31 1 0 4 32 87 89 29 12 17 66 46 78 53 73 11 5 5 5 24 41 31 25 44 48 16 5 46 10 5
3 4 4 4 22 97 60 5 48 66 97 78 81 100 100 100 100 100 73 100 100 78 7 6 5 5 87 99 81 8 13 89 100 100 99 82 100 99 94 14 5 5 81 76 66 99 83 46 5 5 12 55 93 10
8 6 4 10 5 6 5 5 58 94 90 4 42 99 50 6 5 5 8 6 5 5 4 5 5 5 23 20 58 83 100 100 100 99 100 95 87 98 92 94 100 44 96 100 93 77 100 82 67 17 32 36 72 87
2 24 7 5 67 50 82 8 27 4 4 34 18 9 13 25 0 2 5 5 3 4 7 24 88 100 100 100 96 86 50 6 4 33 43 36 64 100 98 100 100 100 30 90 100 47 26 90 88 74 80 94 78 70
27 19 9 24 40 14 98 5 5 5 18 84 84 44 37 35 3 4 5 3 0 2 1 1 4 23 17 0 0 0 0 1 5 59 96 86 92 92 96 99 94 100 100 100 98 96 67 10 17 62 67 58 13 84
3 13 5 52 82 69 96 92 5 6 51 6 5 5 5 5 5 5 5 1 0 0 0 0 0 0 0 3 2 0 4 47 99 31 2 0 0 0 2 48 100 70 97 92 100 94 99 77 24 5 5 8 5 5
20 5 5 5 27 71 5 36 61 39 86 82 88 9 5 5 5 4 5 0 0 0 0 0 0 2 5 5 0 0 4 1 0 0 0 0 0 0 3 5 4 5 5 5 18 54 98 80 5 16 48 64 44 52

GFSWCAN_prec_cloud_045.txt.gz
Cloud_Cover
5 0 5 5 4 65 100 100 100 100 100 100 100 100 100 100 100 87 90 100 100 100 100 100 100 100 100 100 100 100 83 82 100 100 100 100 100 100 100 100 100 100 100 100 100 100 100 100 44 69 28 74 77 4
3 5 5 5 5 100 100 100 100 100 100 100 100 100 100 100 100 100 70 99 100 100 100 100 100 100 100 100 100 100 100 100 98 100 100 100 100 100 100 100 100 97 100 100 100 100 100 100 79 100 100 100 93 10
5 3 5 5 15 35 100 100 100 100 100 100 100 100 100 72 88 100 100 100 100 93 100 100 100 39 98 100 100 100 100 100 100 100 100 100 100 100 100 100 100 100 100 100 100 100 100 100 92 84 90 100 100 87
5 5 5 0 47 100 100 100 100 100 100 100 94 100 100 97 100 100 100 92 100 89 100 100 100 100 97 100 100 100 100 100 100 100 100 100 100 100 100 100 100 100 100 100 100 100 100 100 100 100 100 90 100 100
13 11 0 1 97 100 100 100 100 100 99 100 100 100 100 100 100 100 100 97 94 46 100 100 100 100 100 100 100 100 100 100 100 97 100 100 100 100 100 100 100 100 100 100 100 100 100 90 71 90 100 100 100 100
6 4 0 11 100 100 100 100 100 64 8 12 98 100 100 100 100 98 26 32 93 82 95 67 100 100 100 100 100 100 100 100 100 100 100 100 100 100 100 100 100 100 100 100 100 100 100 98 83 98 98 100 100 100
10 4 0 44 100 100 100 100 98 10 26 100 11 90 80 100 96 77 37 24 44 66 74 96 93 90 91 100 100 100 100 100 100 100 100 100 100 100 100 100 100 100 100 100 100 100 100 100 100 48 23 60 100 100
92 1 0 29 100 100 100 100 95 0 1 8 74 100 68 18 47 99 100 54 69 77 24 93 79 69 92 60 99 100 100 100 100 100 100 100 100 100 100 100 100 100 100 100 100 100 100 100 100 88 100 100 100 100
92 2 0 22 70 100 100 100 48 0 1 18 70 82 100 94 42 68 82 6 82 17 26 66 80 100 91 69 65 100 100 100 100 100 100 100 100 100 100 100 59 100 100 100 100 100 100 100 100 100 82 100 100 98
29 4 0 12 63 88 26 25 0 0 0 0 13 87 98 99 100 63 9 84 100 76 24 99 77 100 100 99 100 76 80 100 100 100 100 100 100 100 100 100 100 98 100 94 100 99 100 100 100 100 100 100 100 100
1 0 0 6 75 83 11 4 0 0 0 0 0 14 2 1 25 100 100 86 37 75 39 17 34 74 85 98 100 93 74 73 73 100 100 100 100 100 100 100 100 100 100 100 94 94 84 99 100 100 100 100 100 100
2 1 0 10 74 69 3 0 0 27 0 1 0 2 8 51 74 58 4 4 47 42 3 5 57 91 32 68 48 52 55 61 19 35 85 100 100 100 100 100 100 100 100 100 100 64 64 30 43 100 100 100 100 100
5 1 1 32 36 3 0 0 4 0 2 7 1 0 24 6 5 4 5 5 4 0 6 29 99 32 49 31 99 100 86 5 5 76 98 19 14 82 61 100 100 100 100 100 100 98 7 7 11 36 100 100 100 100
6 4 8 26 62 0 0 0 0 26 1 0 0 5 5 5 5 5 5 5 2 0 1 67 11 0 6 62 5 6 5 5 5 90 60 5 5 5 5 4 5 12 83 98 100 84 18 5 13 54 91 89 100 100
5 2 17 45 0 0 0 0 0 2 0 0 4 5 13 3 5 5 5 5 0 0 4 2 1 0 2 5 3 2 0 5 23 35 14 5 5 5 2 0 0 5 5 5 23 75 37 26 7 83 99 100 100 100
5 2 5 1 0 0 0 2 1 0 5 15 5 5 5 6 31 69 42 4 0 0 1 4 5 7 5 5 5 4 3 42 2 10 5 5 5 5 1 0 0 2 5 5 5 5 7 8 78 81 100 99 100 100
5 5 5 0 0 0 0 0 0 3 17 51 99 35 5 23 50 22 6 10 6 5 5 30 5 5 5 5 5 5 14 5 5 5 5 5 5 5 5 5 5 5 5 5 5 5 5 5 5 44 85 100 100 100
5 5 3 0 87 21 1 0 0 5 5 5 62 98 97 8 14 70 59 10 11 8 5 71 28 62 5 5 5 5 5 5 2 0 4 5 5 5 5 5 5 5 5 5 5 5 5 4 5 6 55 97 100 100
5 5 5 6 91 43 0 0 0 5 14 5 79 58 96 100 29 17 35 66 78 14 45 11 14 40 72 78 42 8 5 3 5 5 5 5 5 3 5 5 5 5 5 5 5 5 5 5 2 30 5 32 100 100
7 6 0 0 63 0 0 0 2 5 5 57 74 12 14 68 99 100 84 90 100 99 100 95 44 100 100 100 100 8 4 5 5 66 47 52 18 5 5 5 5 5 7 5 5 5 5 5 3 0 1 5 5 72
5 3 20 3 20 1 0 3 5 5 48 86 37 98 100 89 100 100 100 100 100 100 100 98 70 98 100 100 100 12 81 99 9 4 5 5 2 0 3 5 43 60 81 86 5 5 5 5 5 5 0 0 4 17
5 2 0 0 0 0 0 0 1 18 7 70 91 85 100 100 81 84 100 99 98 100 100 100 100 100 100 100 15 22 40 90 37 5 4 0 0 5 5 5 12 90 100 92 17 5 5 5 5 5 5 2 0 5
5 1 0 0 0 0 0 1 12 55 82 69 94 100 91 70 99 83 96 100 100 100 100 100 100 100 100 99 85 100 100 100 81 5 3 0 0 4 5 18 100 100 100 100 100 47 5 5 5 5 5 5 5 3
5 1 0 0 0 0 1 22 91 100 91 65 37 90 42 100 91 99 100 100 100 100 100 100 100 100 98 11 8 89 97 92 86 5 5 3 0 0 0 5 5 10 48 28 44 79 66 25 84 74 5 6 5 5
49 8 0 30 0 4 3 7 85 74 96 72 100 75 100 100 99 100 100 100 97 91 99 31 6 5 3 0 12 25 58 99 93 93 5 5 5 0 4 6 34 12 2 0 20 53 84 46 81 68 84 69 25 5
85 9 21 9 3 2 5 5 8 64 95 70 5 27 53 8 25 24 4 12 6 5 5 5 5 5 5 5 4 48 62 58 90 83 21 97 13 7 5 46 97 100 11 5 25 99 100 94 92 96 99 95 87 15
50 2 53 1 5 6 9 5 8 5 9 26 5 5 5 16 5 4 3 5 5 5 5 2 5 14 5 3 5 9 33 62 92 93 99 100 88 59 90 94 84 93 92 99 91 67 86 76 32 78 40 75 100 83
3 1 0 4 8 76 16 34 42 5 5 5 57 73 98 41 9 5 4 3 1 4 2 14 33 5 5 21 99 100 58 99 99 66 100 95 99 100 100 100 100 100 100 100 87 51 57 77 68 71 84 56 13 5
20 6 4 5 8 89 10 24 5 35 8 58 81 57 98 10 5 5 1 0 0 0 1 54 97 97 100 99 98 56 5 34 100 100 100 97 49 35 65 99 100 100 100 100 100 60 6 88 94 90 98 96 98 78
3 5 40 11 5 3 5 5 5 13 61 35 5 10 46 65 45 5 0 0 0 4 19 3 5 49 68 42 0 0 0 0 0 5 16 80 94 69 98 100 100 100 100 100 95 95 10 81 100 97 96 96 93 58
3 2 5 5 36 44 5 5 5 5 24 8 5 29 100 99 57 5 1 0 0 0 0 0 0 0 0 0 0 0 0 4 5 5 2 8 22 63 80 42 37 72 82 100 93 98 80 35 49 8 11 77 28 5
5 5 5 5 5 5 5 5 5 5 5 5 20 24 100 100 66 29 5 0 0 0 0 0 0 0 4 5 0 5 5 1 0 0 0 0 0 0 2 64 42 12 8 6 7 6 19 11 5 5 5 5 5 5
4 5 5 60 42 87 84 31 11 5 5 10 22 5 19 97 98 73 1 0 0 0 3 0 0 2 5 0 0 0 0 0 0 0 0 0 0 0 0 2 2 1 3 5 8 54 81 6 5 5 20 5 5 5

GFSWCAN_prec_cloud_048.txt.gz
Cloud_Cover
96 14 0 0 1 95 82 100 100 100 100 100 100 100 100 100 100 100 93 100 100 100 100 100 100 100 100 100 100 100 100 100 100 100 100 100 100 100 100 97 100 100 100 100 100 100 100 100 72 86 16 88 81 100
57 17 0 0 21 100 100 100 100 100 100 100 100 100 100 100 100 100 100 100 100 100 56 100 100 100 90 100 100 100 100 100 100 100 100 100 100 100 100 100 100 100 100 100 100 100 100 100 100 54 92 10 80 100
5 1 0 0 60 100 100 100 100 100 100 100 100 100 100 100 100 100 100 100 75 48 20 28 28 96 100 72 97 100 100 100 100 100 100 100 100 100 100 100 100 100 100 100 100 100 100 100 100 48 6 21 100 100
0 5 0 0 99 100 100 100 100 100 100 100 93 100 100 100 41 80 72 82 20 31 68 75 61 64 70 96 99 100 100 100 100 100 100 100 100 100 100 100 100 100 100 100 100 100 100 100 95 59 84 59 100 100
0 5 5 3 100 100 100 100 100 100 100 35 75 69 98 100 100 96 63 99 87 100 87 48 22 29 60 100 100 100 100 100 100 100 100 100 100 100 100 100 100 100 100 100 100 100 100 100 94 98 99 99 83 100
5 5 0 4 100 100 100 100 100 1 0 1 6 52 41 52 6 100 19 15 77 73 100 80 33 90 93 95 100 100 100 100 100 100 100 100 100 100 100 100 100 100 100 100 100 100 100 100 100 100 91 74 96 88
5 5 4 21 100 100 100 100 67 0 0 0 2 4 12 6 43 22 60 27 50 45 14 100 98 100 98 76 100 100 100 100 100 100 100 100 100 100 100 100 100 100 100 100 100 100 100 100 100 100 100 100 79 100
5 23 0 15 100 100 100 100 84 0 0 0 0 3 5 5 5 5 6 8 76 4 5 71 86 100 100 100 100 100 100 98 100 100 100 100 100 100 100 100 100 100 100 100 100 100 99 100 100 100 100 85 67 100
53 9 2 5 93 100 100 99 56 0 0 0 0 0 2 3 6 31 3 15 75 12 32 96 98 100 85 100 100 100 100 100 100 84 100 100 100 100 100 100 100 100 100 100 100 100 100 100 100 100 100 100 100 100
54 53 5 5 61 100 100 33 0 0 0 0 0 7 4 0 10 48 87 99 99 100 98 100 85 88 68 99 100 100 96 100 100 100 98 98 100 100 100 100 100 99 99 100 100 100 100 100 100 100 100 100 100 100
13 9 6 5 73 100 99 20 0 0 0 0 0 17 11 1 66 97 83 68 39 72 94 74 76 28 55 61 94 88 97 100 99 100 100 100 100 99 100 100 100 100 100 100 92 90 100 100 100 100 82 100 100 100
4 5 5 2 78 100 67 2 0 9 0 0 2 8 8 66 72 32 5 7 51 42 4 5 54 81 56 40 79 92 95 83 21 14 100 100 100 100 100 100 100 100 100 100 100 100 72 4 21 70 96 100 100 100
5 5 5 5 41 33 0 0 10 0 1 5 0 1 36 5 5 6 8 5 1 0 0 3 51 46 65 26 41 81 95 77 5 54 36 24 93 88 70 100 100 100 100 100 100 95 5 0 0 9 45 74 100 100
5 6 10 5 83 2 0 0 5 61 6 0 4 4 4 45 27 6 4 0 0 0 5 5 10 4 16 29 5 5 5 5 5 68 35 5 5 16 78 75 38 97 100 100 100 100 99 26 4 0 3 5 50 85
5 26 6 48 23 0 0 0 1 32 1 1 0 4 5 5 11 12 5 4 4 5 6 12 9 34 28 5 5 5 9 4 4 4 3 5 5 5 5 5 16 17 6 50 58 86 96 29 5 5 1 3 5 5
48 26 11 5 4 6 0 12 8 0 2 6 3 7 7 72 69 22 5 5 39 11 16 31 48 8 5 5 5 5 32 84 27 5 4 5 5 5 5 5 5 5 4 1 2 4 1 15 66 5 4 1 76 11
36 69 6 5 3 5 0 0 0 0 0 5 5 23 76 14 98 94 95 60 8 11 66 31 51 95 90 64 89 5 100 100 100 17 1 5 78 100 66 5 5 5 5 5 0 0 0 3 3 4 3 0 2 46
32 20 5 5 91 52 47 36 0 0 1 5 5 62 100 78 57 12 78 51 36 100 100 95 75 100 70 100 88 13 100 100 82 4 5 35 74 42 0 2 5 47 7 5 5 5 5 0 0 0 0 0 0 15
72 5 5 6 93 9 0 0 0 1 0 4 13 97 100 99 100 100 95 97 47 100 94 99 90 100 100 88 40 100 100 44 24 5 5 4 1 0 0 4 17 70 78 22 5 5 5 3 2 1 0 0 5 5
7 5 5 7 60 0 0 0 0 0 0 15 94 99 100 100 100 91 98 94 98 98 100 100 100 100 100 100 100 100 100 100 100 49 5 2 0 0 0 1 5 71 87 78 5 18 47 5 0 5 5 1 0 5
5 5 49 26 11 0 0 0 0 18 92 100 100 100 100 100 100 100 100 100 92 100 100 100 100 100 100 100 100 100 100 100 93 100 70 1 0 0 5 5 5 5 100 100 98 62 41 36 5 3 5 5 2 5
5 5 5 5 0 5 3 0 5 5 5 61 22 62 98 98 71 53 88 98 57 91 94 98 100 100 100 100 100 94 42 40 94 55 0 2 0 0 0 0 4 54 99 97 94 96 80 69 7 5 13 94 10 5
5 9 5 5 0 0 3 3 4 7 6 5 15 9 5 12 93 48 11 6 85 100 96 98 79 83 80 66 92 33 77 27 6 9 95 19 5 4 0 2 19 100 88 16 5 55 84 83 97 90 88 100 72 5
5 14 6 0 0 3 5 5 5 5 5 5 20 5 9 20 7 5 5 12 89 21 100 100 100 5 5 1 1 55 32 5 76 88 70 56 69 11 54 82 20 4 5 4 77 98 100 100 82 54 89 100 80 62
45 17 2 30 0 3 5 5 5 5 5 5 78 98 24 5 5 5 5 5 32 59 88 87 4 0 1 0 0 7 12 78 92 84 92 10 15 100 100 100 100 16 5 5 5 5 56 97 99 93 96 100 96 72
84 6 1 2 3 4 5 6 92 63 5 22 73 96 26 6 5 5 5 12 5 4 4 5 0 0 0 3 5 52 92 87 13 38 61 86 42 70 100 100 100 100 23 6 6 17 80 90 99 95 58 23 86 80
50 1 0 2 5 33 25 66 99 60 92 100 75 90 64 11 5 3 3 3 0 0 0 0 5 5 15 62 86 100 10 4 88 72 74 18 100 12 34 87 100 97 82 95 92 28 75 100 100 90 75 88 56 26
0 0 0 2 5 50 71 51 18 83 90 45 5 87 49 5 10 5 5 0 4 5 5 5 5 5 28 20 1 2 4 7 14 93 100 86 24 92 100 22 100 96 100 77 91 33 12 100 100 81 78 76 96 62
5 5 4 5 4 4 5 5 5 5 5 44 31 28 22 72 100 12 1 3 10 3 4 0 0 3 7 0 3 0 0 0 2 45 86 100 100 63 90 15 32 100 100 69 5 5 6 76 89 68 88 54 38 49
3 5 5 4 3 5 5 2 3 65 8 48 30 17 45 93 74 33 4 0 0 0 0 0 0 4 1 0 0 0 0 0 0 4 6 14 36 66 58 30 89 82 60 77 24 8 5 82 98 82 15 8 14 81
5 44 5 3 4 4 4 1 2 34 35 51 37 49 100 94 78 100 44 0 0 0 0 0 0 0 0 0 0 0 0 0 0 0 0 0 0 0 2 8 50 71 41 8 18 78 5 5 5 5 5 5 5 5
5 25 5 3 5 4 5 5 5 5 6 6 13 5 7 34 13 95 51 1 0 0 0 0 0 0 0 0 0 0 0 0 0 0 0 0 0 1 5 6 5 5 5 5 5 5 5 5 5 5 5 5 5 5
44 22 5 5 13 19 22 27 73 41 58 70 6 5 5 5 5 46 99 4 0 0 0 0 0 2 0 0 0 0 0 0 0 0 0 0 0 0 0 0 0 1 2 5 8 10 5 5 5 5 5 5 5 5

GFSWCAN_prec_cloud_051.txt.gz
Cloud_Cover
6 23 5 4 71 100 100 100 100 100 100 100 100 100 100 99 100 100 100 81 100 100 99 100 100 99 100 100 100 100 80 100 100 100 100 100 100 100 100 100 95 100 100 100 100 100 100 100 100 100 97 92 100 100
72 48 5 5 99 100 100 100 100 100 100 100 100 100 100 92 61 22 67 96 92 100 40 8 33 71 83 84 100 100 54 100 100 100 100 100 100 100 100 100 100 100 100 100 100 100 100 100 100 100 96 100 100 100
6 5 5 5 100 100 100 99 100 100 100 96 17 79 99 100 100 100 100 100 78 53 62 5 8 15 5 100 68 86 66 100 100 100 100 100 100 100 100 100 100 100 100 100 100 100 100 100 100 100 100 100 100 100
12 20 5 11 100 100 100 89 88 100 57 72 1 5 5 11 34 11 67 95 51 91 84 5 14 10 20 75 92 100 100 100 100 100 100 100 100 100 100 100 100 100 100 100 100 100 100 100 100 100 100 100 100 100
22 5 14 21 100 100 100 82 30 0 2 0 0 5 5 5 5 5 33 30 5 19 82 18 84 67 99 64 100 100 100 100 100 100 100 100 100 100 100 100 100 100 100 100 100 100 100 100 100 100 98 100 100 100
10 29 91 8 100 100 100 70 16 0 0 0 0 2 5 5 5 96 59 8 5 5 58 47 100 100 100 76 98 100 100 100 100 100 100 100 100 100 100 100 100 100 100 100 100 100 100 100 100 100 100 100 100 100
9 100 74 18 100 100 100 72 73 0 0 0 0 0 0 1 5 6 5 5 5 1 30 53 100 100 100 93 88 100 100 100 100 100 100 100 100 100 100 100 100 100 100 100 100 100 100 100 100 100 100 100 100 100
63 100 100 5 72 100 100 93 100 1 0 0 0 0 0 0 3 0 28 32 43 33 19 82 89 64 86 100 100 88 100 100 94 93 98 100 100 100 100 100 100 100 100 100 100 100 100 100 100 100 100 100 100 100
100 78 76 5 34 100 99 100 100 27 0 0 0 0 2 3 31 62 100 100 96 76 66 99 100 72 84 97 100 100 95 81 100 100 86 99 100 100 100 100 100 100 100 100 100 100 100 100 100 100 100 100 100 100
96 84 66 5 8 100 100 100 81 2 0 0 0 41 55 18 21 100 98 94 96 100 100 100 100 61 46 96 100 100 98 87 65 76 87 97 100 97 100 100 100 100 100 100 100 100 100 100 100 100 100 100 100 100
22 56 20 5 5 96 94 100 39 0 0 0 3 28 23 2 95 96 98 75 50 73 92 89 64 96 80 78 68 96 100 100 100 91 80 46 14 86 71 35 77 100 53 96 100 100 100 100 100 100 100 100 100 100
74 37 5 33 5 52 86 99 15 0 0 0 0 5 20 97 53 2 2 4 17 38 22 5 5 38 84 42 62 70 97 90 99 82 73 76 33 37 8 78 57 6 31 61 100 94 88 100 100 100 100 95 100 100
33 7 45 5 5 17 5 7 30 0 0 3 3 6 81 23 5 5 5 5 20 36 5 57 85 84 94 69 94 62 41 82 7 54 75 10 6 52 88 21 9 87 61 5 10 80 89 78 38 95 94 100 89 100
64 29 81 40 5 5 5 5 54 67 2 0 5 96 5 33 36 73 27 33 73 61 5 6 81 84 64 70 5 5 5 5 5 5 57 5 5 5 5 24 64 5 5 28 5 5 33 19 6 5 37 91 39 38
64 14 5 56 13 5 5 6 90 84 0 1 0 28 5 24 34 25 27 90 48 72 38 54 83 75 92 100 98 34 43 5 4 3 4 4 5 5 5 5 5 5 5 5 5 5 11 94 96 22 3 4 1 1
6 73 17 5 5 6 5 71 73 5 0 0 2 5 5 59 75 34 13 35 81 98 100 100 97 83 98 99 100 99 89 10 5 5 9 8 9 5 9 48 5 5 5 5 5 5 5 5 25 50 24 2 1 0
11 4 68 5 5 59 20 3 0 0 0 0 11 98 100 100 98 90 81 6 29 36 98 94 82 93 98 100 100 97 40 64 100 92 88 71 94 100 44 21 5 5 5 5 5 5 5 5 5 5 4 0 0 0
65 4 5 5 68 92 61 6 0 0 5 50 92 100 80 97 100 100 67 91 100 100 100 100 100 100 100 100 100 100 100 100 100 100 100 100 21 0 0 3 62 84 43 63 53 5 5 1 3 5 5 5 0 0
4 6 10 31 80 12 4 0 0 0 2 4 2 5 5 50 100 88 89 91 92 94 100 100 100 100 100 100 100 100 100 100 100 100 100 100 50 2 1 5 53 95 79 97 93 6 5 4 0 3 5 4 2 0
5 43 5 24 41 29 1 0 0 0 0 1 2 5 5 21 20 5 64 56 71 86 85 100 100 100 100 100 100 100 100 100 100 100 100 94 4 0 0 0 4 27 98 99 100 50 5 5 5 4 5 5 0 0
24 64 52 25 48 5 0 0 0 0 2 4 4 20 5 22 5 66 57 5 5 6 27 96 100 100 81 83 81 8 70 88 100 94 86 7 24 4 0 0 0 0 36 79 100 100 100 67 37 5 5 5 0 0
99 9 11 11 31 2 0 0 3 2 0 0 2 6 71 81 18 17 8 5 5 94 41 30 5 5 78 100 67 56 86 55 100 90 55 47 20 23 2 0 1 6 49 54 52 29 92 99 100 47 45 5 5 4
38 8 28 49 3 29 30 3 1 0 0 1 4 5 34 30 5 5 5 5 83 51 92 100 99 36 66 44 21 6 34 71 99 81 90 100 97 95 98 54 22 5 3 4 4 40 87 99 99 92 54 5 5 5
10 5 16 5 5 14 2 4 2 29 70 5 2 5 19 53 8 5 5 5 9 68 100 94 85 36 3 0 0 3 5 5 48 100 93 100 97 92 70 98 40 5 84 11 4 50 88 89 92 81 62 83 20 5
49 5 9 38 0 0 0 5 82 91 5 5 5 5 5 21 64 84 21 5 1 2 4 1 12 5 3 5 5 28 87 92 68 14 94 100 99 100 82 100 67 100 100 100 95 8 22 68 98 78 9 5 81 70
83 9 29 0 0 0 5 7 77 6 5 23 5 6 5 12 55 100 5 5 5 5 7 13 5 5 5 5 4 5 24 23 17 100 94 100 100 100 73 26 62 100 100 100 100 75 39 80 50 47 76 42 5 55
49 5 0 0 1 5 8 25 5 5 5 5 5 5 5 5 33 60 5 0 0 12 39 13 5 34 86 46 3 0 0 1 10 69 99 100 100 78 86 88 100 57 99 89 65 7 5 34 14 15 28 5 5 8
5 2 0 1 3 6 9 3 0 3 5 5 5 5 5 5 52 52 5 1 15 26 0 0 0 0 0 0 0 0 0 0 0 12 98 75 58 93 100 19 93 92 85 48 5 5 5 44 26 11 19 47 68 14
5 2 4 0 2 5 3 0 6 34 5 5 5 5 5 31 7 10 5 2 7 0 0 0 0 0 0 0 0 0 0 0 2 4 6 93 95 64 90 87 71 64 80 5 7 3 5 5 19 30 7 30 5 5
0 1 5 5 5 5 5 8 6 33 9 5 5 33 48 53 20 6 12 3 0 0 0 0 0 0 0 0 0 0 0 0 0 0 0 0 4 62 71 5 5 5 5 5 5 5 6 7 16 28 5 5 42 90
2 5 5 5 6 16 59 12 5 5 5 8 23 92 94 76 66 95 35 16 0 0 0 0 0 0 0 0 0 0 0 0 0 0 0 0 0 1 5 5 5 5 5 5 36 55 18 5 52 41 34 5 5 23
5 11 6 16 15 33 42 32 56 41 98 100 100 100 100 100 100 100 92 55 5 0 0 0 0 0 0 0 0 0 0 0 4 5 5 5 4 5 5 0 1 4 5 5 5 7 7 5 5 7 60 40 5 21
37 7 5 5 5 5 5 5 6 34 46 90 100 100 100 100 100 100 100 66 9 0 0 0 0 0 0 0 0 0 0 0 0 9 0 0 0 0 1 4 5 5 5 5 12 36 8 5 5 5 6 5 14 62

GFSWCAN_prec_cloud_054.txt.gz
Cloud_Cover
100 100 100 100 93 100 100 100 100 100 100 98 7 3 5 100 100 99 100 84 99 100 100 89 53 100 66 100 100 76 98 100 100 100 100 100 100 100 100 100 100 70 83 60 93 100 99 100 100 100 100 100 75 91
100 100 100 100 98 100 100 100 100 100 88 100 58 0 5 5 26 48 100 66 53 100 9 5 40 97 15 87 100 91 99 100 100 100 100 100 100 100 100 98 38 92 49 100 94 98 100 100 100 100 100 100 100 100
100 100 100 100 100 100 100 100 96 61 9 0 0 1 5 5 5 16 46 69 95 7 43 80 91 31 37 13 94 100 100 98 100 100 100 100 100 100 100 100 100 100 100 100 100 100 100 100 100 100 100 100 100 100
100 100 100 99 100 100 100 100 39 40 0 0 0 0 4 5 5 5 32 6 11 5 29 73 100 92 94 32 100 100 100 100 100 100 100 100 100 100 100 100 100 100 100 100 100 100 100 100 100 100 100 100 100 100
100 100 100 100 100 100 100 100 4 0 0 0 0 0 0 5 4 37 56 17 5 17 69 99 84 74 100 63 84 100 100 96 100 100 100 100 100 100 100 100 100 100 100 100 100 100 100 100 100 100 100 100 100 100
100 100 100 74 100 78 100 100 2 0 0 0 0 0 0 0 32 99 100 39 19 41 89 100 100 44 97 67 95 100 100 53 32 100 100 100 100 100 100 100 100 100 100 100 100 100 100 100 100 100 100 100 100 100
100 100 100 100 67 78 98 100 71 0 0 0 0 0 0 0 82 99 36 35 41 57 100 95 58 29 34 89 100 83 100 100 98 100 100 100 100 100 100 100 100 100 100 100 100 100 100 100 100 100 100 100 100 100
100 100 100 100 92 89 100 100 100 6 0 0 0 0 0 0 16 63 56 100 100 100 70 80 6 66 46 78 99 98 98 87 100 100 94 72 100 100 100 100 100 100 100 100 100 100 100 100 100 100 100 100 100 100
100 100 100 100 94 79 100 100 100 82 0 0 0 0 44 56 100 100 88 97 100 58 100 99 31 18 56 87 44 100 98 100 35 100 100 76 100 100 100 100 100 100 100 100 100 100 100 100 100 100 100 100 100 100
100 100 100 100 100 17 100 100 100 6 0 0 6 85 100 99 5 82 86 82 100 98 95 99 45 36 42 73 71 52 82 89 79 77 52 100 100 100 76 70 92 100 100 100 100 100 100 100 100 100 100 100 100 100
100 100 100 100 89 5 100 100 83 4 26 0 6 65 77 9 94 100 96 35 6 20 7 43 19 14 8 96 65 28 80 69 86 82 75 66 79 92 96 63 14 73 97 100 100 100 100 100 100 100 100 100 100 100
91 96 79 100 19 17 100 100 25 5 0 24 11 9 36 100 84 5 5 5 5 15 5 5 32 54 48 92 71 45 49 52 100 65 65 59 84 18 10 97 100 46 65 88 100 100 100 100 100 100 100 100 100 100
100 25 100 98 5 5 31 70 8 5 11 0 30 93 26 45 85 13 81 86 98 34 7 8 34 57 98 97 89 96 25 94 41 100 75 74 35 75 46 5 31 40 58 92 100 100 100 94 100 100 100 100 100 100
89 97 25 98 5 4 5 5 30 3 6 0 1 96 100 100 100 99 96 83 7 5 10 33 72 39 81 99 76 73 47 7 88 53 82 100 87 63 7 5 18 11 5 60 98 56 96 63 81 98 69 100 100 100
55 76 100 28 5 4 5 10 100 1 0 1 6 58 15 6 100 98 89 73 61 46 29 67 100 100 100 100 100 91 45 98 100 69 100 88 14 3 38 76 96 99 88 69 67 87 100 84 70 22 41 38 60 90
100 94 23 5 5 5 16 100 46 0 0 0 0 0 4 10 76 79 79 95 100 100 100 99 97 100 100 100 100 100 100 100 100 100 100 86 44 42 20 62 32 82 100 100 81 68 14 86 58 54 5 35 45 9
77 15 27 30 5 84 16 13 2 0 0 0 3 4 0 2 93 100 96 100 96 80 100 100 100 100 100 100 100 100 100 100 100 100 100 100 100 100 100 100 100 35 94 100 100 90 19 17 5 6 32 5 7 46
16 24 6 5 7 100 7 5 0 0 0 0 4 5 5 71 60 92 72 29 14 54 96 100 99 95 100 100 100 100 100 100 100 100 100 100 100 100 22 88 84 5 77 100 98 49 47 81 99 77 5 5 55 59
6 5 5 84 76 5 12 4 0 0 0 0 2 16 66 76 34 5 5 5 5 5 18 66 99 100 88 81 98 95 80 32 68 67 52 86 79 64 12 14 0 7 96 100 90 100 97 5 18 46 81 93 100 57
7 45 75 38 44 14 4 0 0 0 4 9 4 5 27 43 61 8 14 5 48 98 48 61 100 83 49 65 11 5 26 5 76 99 80 99 6 2 8 33 3 7 75 100 100 49 95 99 100 98 46 9 100 100
33 28 48 24 56 4 0 0 0 1 0 0 0 1 5 5 5 7 12 42 22 46 6 6 5 4 5 21 35 6 34 96 88 26 82 97 5 9 54 6 3 5 84 100 100 77 100 100 100 100 100 100 100 100
8 18 52 94 52 4 0 0 2 5 0 1 1 0 4 4 5 11 8 21 5 5 42 86 14 46 57 40 10 28 15 7 56 99 70 77 100 100 92 32 100 100 100 100 100 100 100 99 95 100 100 98 76 35
37 21 55 89 8 37 42 3 0 0 5 68 3 3 5 3 5 5 22 2 0 3 4 4 5 5 1 0 0 0 0 5 58 93 100 98 83 86 97 100 100 100 100 89 5 84 100 26 86 100 88 99 100 100
68 51 51 6 9 32 0 1 0 5 72 5 5 5 4 3 5 10 52 0 0 0 0 0 0 4 12 14 88 82 5 5 65 57 38 85 100 95 14 98 100 100 100 100 100 100 100 99 25 93 95 100 100 100
54 37 41 99 3 0 0 5 5 5 5 5 5 5 1 5 5 7 8 2 1 0 0 0 0 1 46 72 67 63 5 22 70 100 100 98 92 100 99 100 100 100 67 100 100 100 94 98 93 98 100 100 100 100
69 51 64 5 0 1 2 5 5 5 5 5 5 5 5 5 5 5 3 5 4 0 8 7 0 40 9 0 4 4 3 3 30 70 94 100 86 73 94 85 91 100 100 99 100 100 98 95 97 84 85 73 23 91
68 8 5 1 0 4 5 5 0 4 5 5 5 5 5 5 5 50 6 5 3 0 1 0 0 0 0 0 0 0 0 0 0 1 13 83 81 95 89 100 73 93 92 93 100 100 74 100 100 100 100 100 80 99
19 2 0 0 5 3 3 0 5 5 5 5 6 5 5 5 59 100 19 5 4 0 0 0 0 0 0 0 0 0 3 2 4 5 6 26 78 85 88 72 5 17 24 82 59 100 98 97 100 82 98 93 99 100
3 0 0 0 4 5 1 0 5 5 5 6 43 100 100 100 100 98 19 5 5 0 0 0 0 0 0 0 0 0 1 5 5 38 98 96 100 100 100 100 100 100 100 16 17 43 67 84 93 100 87 77 100 98
0 0 4 4 6 19 5 5 4 5 5 5 11 98 100 100 100 100 34 5 5 2 0 0 0 0 0 0 0 0 0 0 0 0 4 11 42 36 100 100 100 100 100 100 74 46 12 74 52 100 94 92 87 100
0 5 2 5 10 5 6 15 5 5 5 5 28 99 100 100 100 100 17 5 5 5 0 0 0 0 0 0 0 0 0 0 0 1 5 5 5 67 98 98 99 95 90 98 100 100 99 100 100 99 99 100 88 90
0 5 5 5 5 9 6 5 5 5 5 5 73 100 100 100 100 100 100 91 30 6 5 2 0 0 0 0 0 0 0 0 0 5 5 5 5 5 5 41 58 91 99 97 96 100 100 100 100 100 100 100 100 100
12 23 5 10 13 23 9 98 50 8 11 21 89 100 100 100 100 100 100 100 91 48 8 5 5 0 0 0 0 0 0 0 11 10 1 0 0 2 5 5 5 5 35 93 99 90 85 89 94 95 100 97 95 90

GFSWCAN_prec_cloud_057.txt.gz
Cloud_Cover
100 100 100 100 100 83 96 96 97 5 0 0 0 0 0 4 0 34 0 12 73 100 64 11 5 26 99 93 97 72 93 57 100 100 100 100 100 100 93 100 19 100 99 88 99 100 93 33 3 2 26 96 100 100
100 100 100 100 100 100 100 99 95 2 0 0 0 0 0 0 0 0 87 1 5 5 27 5 5 38 54 59 95 89 100 93 100 100 100 100 100 100 100 100 98 100 99 100 100 100 68 88 97 91 62 100 100 100
100 100 100 100 100 100 90 98 100 5 0 0 0 0 0 0 0 3 5 5 64 81 100 100 100 13 38 69 97 100 61 98 86 100 100 100 100 100 100 100 100 100 100 100 100 97 100 100 100 100 100 100 100 100
100 100 100 100 100 100 85 99 97 8 0 0 0 0 0 0 0 1 28 48 78 94 98 100 82 94 98 28 100 100 99 89 99 93 100 100 100 100 100 100 100 100 100 100 100 100 100 100 100 100 100 100 100 100
100 100 100 100 100 100 100 100 98 10 0 0 0 0 0 0 0 19 44 85 53 81 95 74 24 24 7 19 69 100 100 100 92 99 99 100 100 100 100 100 100 100 100 100 100 100 100 100 100 100 100 100 100 100
100 100 100 100 100 100 100 100 100 0 0 0 0 0 0 0 38 94 100 98 100 100 99 99 42 24 86 5 81 39 93 100 100 100 96 100 100 100 100 100 100 100 100 100 100 100 100 100 100 100 100 100 100 100
100 100 100 100 92 69 100 100 98 0 2 0 0 0 0 0 27 89 83 63 74 89 98 57 71 54 5 44 100 100 92 100 100 100 100 100 100 100 100 100 100 100 100 100 100 100 100 100 100 100 100 100 100 100
100 100 100 100 72 100 40 100 100 67 0 0 0 0 0 0 13 40 68 41 97 100 91 24 55 55 23 43 78 13 90 91 66 100 100 90 98 90 100 100 100 100 100 100 100 100 100 100 100 100 100 100 100 100
100 100 100 80 100 98 78 100 100 100 7 0 0 0 56 62 99 84 82 97 66 90 99 5 23 97 6 85 53 86 24 64 100 35 72 100 100 100 84 100 100 100 100 100 100 100 100 100 100 100 100 100 100 100
100 100 100 100 100 100 17 62 96 89 2 0 22 87 98 95 99 85 86 100 100 100 77 6 14 75 99 53 100 70 68 100 100 76 82 32 71 93 100 98 100 100 100 100 100 100 100 100 100 100 100 100 100 100
100 100 100 82 91 95 75 98 99 10 28 10 74 100 42 12 100 100 100 21 43 8 49 49 23 77 100 64 78 100 94 54 77 96 94 62 73 79 84 98 100 100 100 100 100 100 100 100 100 100 100 100 100 100
100 100 100 53 100 82 95 45 69 26 5 11 11 0 30 89 79 84 100 92 100 58 94 92 67 69 98 71 67 96 100 84 98 64 98 59 91 65 98 100 98 100 100 100 100 100 100 100 100 100 100 100 100 100
100 99 54 100 84 53 5 70 11 10 19 12 65 95 91 9 64 81 55 68 100 100 100 100 100 97 79 100 100 100 100 100 100 100 100 100 95 31 31 99 96 99 100 90 100 100 100 100 100 100 100 58 100 100
100 83 100 98 85 63 6 4 4 11 6 15 66 96 24 78 100 100 100 88 99 96 100 100 100 100 91 68 100 100 100 100 100 100 100 100 100 100 96 80 73 94 97 99 100 87 100 100 100 100 100 100 100 100
6 96 100 100 86 5 4 10 29 7 0 14 38 64 75 82 100 100 95 100 98 96 75 37 50 31 100 100 100 92 99 92 92 100 100 100 100 100 79 99 98 83 91 72 95 99 22 97 100 100 100 100 100 100
100 100 100 56 5 5 48 82 34 4 0 4 3 28 91 98 97 49 91 42 79 56 100 23 79 66 62 46 99 88 100 75 100 100 100 100 100 100 99 74 67 79 99 69 100 83 99 85 96 100 100 100 100 100
100 100 22 9 6 20 6 13 5 0 4 4 80 98 100 100 89 100 16 100 87 86 35 33 90 46 46 91 99 99 88 99 100 99 100 100 100 99 70 100 94 98 96 96 99 44 32 100 48 70 96 100 100 100
89 99 11 35 30 46 7 5 1 4 24 58 100 100 100 100 81 81 83 7 53 5 67 91 91 95 80 86 98 89 57 84 71 78 85 35 5 5 4 5 5 81 96 100 91 91 43 100 75 100 89 53 100 100
100 50 25 5 14 10 5 6 0 62 68 99 90 86 79 90 93 96 75 26 31 78 60 85 54 78 78 93 66 82 96 93 100 100 100 48 49 14 10 72 57 88 100 84 100 68 94 60 14 89 100 100 100 92
80 89 22 80 46 5 5 20 0 22 88 84 91 80 86 48 88 100 100 63 87 97 94 88 18 26 100 58 79 100 100 100 100 91 27 74 36 79 63 91 67 59 27 68 99 17 100 33 82 99 58 6 94 100
72 30 26 35 6 5 4 14 88 66 6 47 100 77 81 66 100 100 97 100 100 99 99 97 100 93 52 84 6 5 5 86 67 99 88 52 100 100 100 100 73 100 100 87 26 96 40 73 100 100 89 87 88 97
64 32 83 32 19 12 1 4 41 50 3 67 97 60 98 69 56 29 67 85 83 78 77 52 3 4 2 0 0 1 4 6 42 96 94 100 100 20 100 100 97 100 100 100 83 33 70 41 97 97 94 93 60 80
70 90 73 12 25 36 42 0 4 54 75 74 97 100 76 88 24 40 51 90 59 30 89 21 0 0 3 70 96 85 48 1 10 5 75 90 77 93 94 92 100 96 100 100 95 98 66 44 66 5 94 100 72 100
65 67 13 12 10 37 14 38 52 67 35 100 100 100 20 5 15 100 57 91 90 98 85 9 3 61 99 70 99 100 53 40 56 28 48 21 81 100 100 86 80 83 100 100 60 73 100 7 39 69 100 95 82 100
56 60 37 99 5 0 64 100 100 100 100 100 92 77 6 46 97 82 74 20 5 6 3 0 48 82 90 5 5 17 44 5 84 98 100 30 23 100 94 18 100 93 61 76 78 96 100 98 26 56 100 100 66 88
84 13 64 5 6 31 100 100 100 79 46 44 97 73 100 97 100 100 37 5 5 5 5 5 4 4 3 0 0 0 0 0 14 100 49 69 98 97 58 42 100 84 82 98 100 46 96 100 83 93 55 67 18 94
99 7 5 0 2 4 56 47 0 23 59 100 100 40 92 100 100 75 34 5 5 1 0 0 0 0 0 0 0 4 4 4 3 18 58 38 73 90 76 72 46 79 100 84 100 93 90 58 78 100 38 100 99 71
27 5 28 18 0 1 5 6 31 98 100 53 53 95 61 34 66 88 81 47 5 5 0 0 0 0 0 0 0 0 4 21 55 84 94 80 56 100 94 90 15 1 14 4 30 96 90 100 69 88 61 98 100 100
3 0 3 14 7 16 3 32 92 100 31 58 98 98 33 14 98 100 62 74 10 5 0 0 0 0 0 0 0 0 0 1 35 58 84 99 98 95 88 41 68 92 97 10 1 4 20 45 73 91 99 53 100 100
1 6 68 100 87 95 100 87 71 10 5 5 5 12 13 53 100 100 100 82 8 5 1 0 0 0 0 0 0 0 0 0 0 2 5 28 45 83 99 91 98 100 84 94 85 37 5 51 48 100 94 100 100 100
5 5 39 66 98 97 20 5 5 5 5 5 5 42 76 74 96 100 95 100 88 6 5 3 0 0 0 0 0 0 0 0 0 0 2 1 46 83 55 67 80 100 99 98 92 97 96 98 99 98 99 99 95 84
5 34 84 39 79 31 5 6 40 56 5 5 5 57 84 87 93 100 100 100 100 98 31 5 1 0 0 0 0 0 0 0 4 5 5 5 5 9 7 83 95 96 100 98 96 88 81 93 99 99 100 96 98 96
86 100 100 88 68 11 36 23 68 14 5 5 24 64 86 94 73 100 100 100 83 100 100 56 5 1 0 0 0 0 0 0 0 0 1 0 0 5 5 5 5 7 65 100 100 98 97 71 96 95 100 100 100 100

GFSWCAN_prec_cloud_060.txt.gz
Cloud_Cover
100 100 100 100 100 100 100 100 88 5 29 5 0 0 0 0 0 0 1 0 4 39 86 60 5 7 9 14 87 64 71 49 79 100 93 100 100 94 100 99 85 93 96 100 100 95 83 43 51 96 22 5 2 0
100 100 100 100 100 100 100 100 64 60 12 5 0 0 0 0 0 1 27 1 0 24 90 73 53 2 5 5 45 94 100 100 56 95 98 99 100 100 100 100 98 98 100 96 7 85 59 32 91 48 47 17 4 0
100 100 100 100 100 100 100 100 25 100 13 2 0 1 0 0 0 0 0 57 94 71 88 33 10 93 72 5 7 76 87 29 26 100 100 100 100 100 100 100 100 100 100 100 100 100 99 100 50 79 100 99 33 5
100 100 100 100 100 100 100 99 86 100 18 5 5 0 0 0 0 0 3 61 95 64 97 61 20 4 93 55 39 74 87 63 100 90 91 77 100 99 100 100 100 100 100 100 100 100 100 100 100 99 91 55 11 4
100 100 100 100 100 100 100 100 100 100 93 5 3 0 0 0 0 13 34 49 100 68 55 19 100 90 1 17 90 62 100 100 80 100 100 94 54 98 100 100 100 100 100 100 100 100 100 100 100 100 100 100 95 100
100 100 100 100 100 100 88 100 100 100 99 5 0 0 0 0 0 78 77 93 66 100 86 81 100 38 6 18 62 100 100 100 99 100 100 81 100 100 100 100 100 100 100 100 100 100 100 100 100 100 100 100 100 100
100 100 100 100 100 22 100 100 100 100 65 5 4 0 0 0 7 98 84 55 0 36 98 54 93 34 55 82 96 70 33 95 15 51 100 100 100 95 100 100 100 100 100 100 100 100 100 100 100 100 100 100 100 100
100 100 100 100 100 55 93 100 100 100 16 5 0 2 0 0 4 96 98 24 92 70 81 51 88 60 29 28 50 100 94 56 14 8 60 100 100 100 97 100 100 100 100 100 100 100 100 100 100 100 100 100 100 100
100 100 100 100 87 87 100 100 100 100 89 2 1 0 24 47 76 84 73 100 60 88 63 11 16 99 20 46 99 72 99 94 14 11 27 9 62 100 98 56 100 100 100 100 100 100 100 100 100 100 100 100 100 100
100 100 100 100 46 96 23 100 100 100 55 3 25 95 74 89 0 1 29 93 100 99 55 5 5 60 74 98 100 38 68 100 98 100 87 20 42 14 44 65 29 69 100 100 100 100 100 100 100 100 100 100 100 100
100 100 100 100 50 8 87 100 100 98 26 7 60 100 37 5 43 100 55 39 49 33 26 53 95 100 100 100 100 95 100 100 100 100 100 100 57 76 73 63 98 63 54 100 100 100 100 100 100 100 100 100 100 100
100 100 100 98 5 6 99 100 100 28 10 22 4 0 35 58 57 90 29 92 100 100 100 33 74 100 100 100 100 100 90 100 100 100 100 100 100 100 92 91 62 17 80 36 93 100 100 100 100 100 100 100 100 100
100 100 100 6 9 100 100 100 18 4 7 5 56 72 52 46 65 79 60 94 100 100 100 100 91 11 16 6 72 100 100 100 100 100 100 99 100 98 100 100 93 94 84 92 99 88 100 100 100 100 100 100 100 100
100 97 10 5 97 100 100 5 4 51 6 16 56 96 4 30 68 32 92 60 77 99 100 100 92 44 90 91 100 100 100 100 100 100 100 100 100 100 99 68 100 89 84 98 9 100 52 98 100 99 100 100 100 100
99 100 9 42 100 100 100 7 15 10 5 12 84 64 12 99 80 52 85 100 99 20 22 5 23 28 59 98 68 90 85 100 100 100 97 100 100 100 100 99 93 96 44 96 99 31 64 68 100 100 95 100 100 84
98 100 73 73 100 100 55 22 24 5 5 7 13 22 62 30 66 68 3 54 33 5 1 41 55 94 86 64 99 65 50 70 99 97 94 100 100 100 99 60 48 74 98 85 100 29 93 95 44 77 75 80 91 100
100 97 8 99 100 83 5 17 11 5 5 65 100 85 88 68 22 100 5 5 1 33 65 9 13 94 21 78 41 95 100 98 100 100 99 83 10 5 5 12 26 9 82 6 100 26 77 3 44 55 80 11 93 100
100 9 100 98 34 50 8 5 6 10 70 6 23 57 99 98 12 5 52 5 4 4 4 4 21 76 79 89 31 71 100 100 83 48 98 61 8 5 5 5 5 5 22 16 13 59 86 89 23 97 91 74 100 100
93 100 96 91 16 10 11 20 5 52 88 90 26 58 4 5 5 5 40 100 83 39 65 24 17 24 30 25 88 53 28 43 76 91 89 56 66 88 9 42 5 88 27 22 62 26 100 33 24 27 76 14 94 50
100 83 99 38 56 8 23 42 5 16 88 38 21 74 5 94 100 47 47 5 37 99 83 25 7 91 14 29 90 95 53 24 10 100 100 100 69 91 100 85 33 69 79 71 59 99 94 39 81 4 22 11 92 20
78 97 93 17 5 5 5 23 91 97 100 95 53 73 51 15 64 54 90 79 32 18 97 99 67 5 4 5 4 2 31 40 3 77 64 99 76 100 96 68 7 100 22 100 63 100 75 98 17 82 5 90 100 100
99 100 27 5 6 52 8 5 90 47 90 90 100 50 34 22 96 28 66 60 47 21 21 6 6 0 3 1 74 10 3 24 1 3 86 60 75 61 96 100 88 90 5 5 54 100 100 100 5 96 98 98 84 5
100 13 35 40 62 63 42 15 41 3 35 98 77 16 85 69 42 61 47 30 50 45 55 22 0 4 24 33 70 6 16 78 4 0 5 70 72 5 72 100 100 84 43 8 76 98 63 39 49 66 32 3 10 98
62 5 60 62 9 73 15 39 32 12 72 100 60 29 64 11 41 41 73 81 11 86 34 3 20 52 69 98 92 81 17 4 52 6 64 60 100 39 4 32 100 99 99 75 25 76 40 100 91 26 56 99 59 5
54 47 37 99 71 37 80 86 100 88 87 14 6 16 5 10 78 86 80 5 5 5 5 5 5 5 12 1 0 1 0 0 20 53 76 60 45 6 14 58 100 84 55 81 36 84 100 100 99 38 26 96 58 65
84 9 64 5 5 44 79 98 87 99 100 36 73 100 36 58 100 56 67 5 5 2 0 0 0 0 0 0 0 0 1 5 22 20 73 71 51 91 95 94 81 54 77 78 82 49 24 55 75 100 28 32 7 34
48 53 6 5 29 79 99 100 89 20 37 66 61 94 100 70 42 46 39 14 17 5 3 0 0 0 0 0 0 0 0 0 0 3 2 13 30 83 82 70 80 4 86 92 92 95 41 50 40 98 75 60 93 34
48 13 93 35 5 58 94 81 28 47 32 67 33 100 67 78 96 90 100 100 82 14 5 4 0 0 0 0 0 0 3 20 51 88 64 30 18 36 30 9 0 0 0 0 14 2 5 85 100 100 90 90 92 74
8 5 41 98 100 23 100 100 100 100 53 56 34 44 75 5 5 38 98 100 68 16 38 7 4 0 0 0 0 0 0 1 30 16 61 79 63 49 27 89 65 73 62 1 0 0 1 3 4 60 75 96 61 76
5 17 89 42 23 100 100 100 90 100 8 5 5 10 5 31 31 53 100 100 96 89 99 90 12 2 0 0 0 0 0 0 0 2 1 1 18 22 52 74 88 96 80 84 67 10 5 26 36 84 96 83 98 51
36 94 83 81 83 100 100 97 59 14 5 57 47 26 68 25 81 54 99 100 100 99 100 100 72 15 0 0 0 0 0 0 0 0 0 0 2 0 5 38 46 58 56 80 89 97 91 96 98 70 98 58 72 78
25 52 7 100 100 100 100 94 19 61 100 88 26 61 83 56 41 99 100 100 100 100 100 100 100 99 7 0 0 0 0 0 0 0 1 2 0 0 20 52 76 73 74 84 86 77 93 79 85 75 97 84 76 99
9 80 18 74 97 88 95 79 83 65 73 42 74 59 100 95 77 97 100 100 78 99 100 100 100 100 58 5 4 0 1 0 0 0 1 0 0 0 3 11 5 10 44 87 90 82 89 64 97 89 93 94 91 95

GFSWCAN_prec_cloud_063.txt.gz
Cloud_Cover
100 100 100 100 100 100 100 100 100 100 43 100 100 94 0 0 0 0 0 0 0 4 6 47 5 0 3 1 25 15 42 10 5 6 80 78 58 84 100 94 78 90 83 79 26 100 90 38 100 100 100 9 11 5
100 100 100 100 100 100 100 100 100 98 32 100 100 79 0 0 0 0 13 1 0 0 3 9 5 5 0 0 8 90 16 92 6 46 84 70 74 66 92 90 21 97 100 100 100 100 71 70 67 100 97 9 95 0
100 100 100 100 100 100 100 100 100 100 20 100 100 20 0 0 0 0 0 0 0 0 0 0 1 1 5 49 45 71 83 100 100 61 100 88 100 100 93 89 62 99 98 100 100 100 100 100 64 28 88 79 100 80
100 100 100 100 100 100 100 100 100 100 81 100 100 15 4 0 0 0 0 0 6 19 13 0 16 4 3 24 4 20 29 73 77 100 97 91 66 98 100 100 90 83 76 79 88 96 98 100 65 71 100 100 100 98
100 100 100 100 100 100 100 100 100 22 79 95 100 100 4 0 0 0 4 28 88 8 5 2 5 6 2 0 8 80 8 95 6 100 100 54 100 86 78 100 100 100 90 100 100 100 100 100 100 100 100 100 93 100
100 100 100 100 100 100 100 100 100 99 4 100 100 100 0 0 0 0 71 29 93 1 44 16 0 4 52 10 16 100 100 100 74 100 46 53 100 55 100 100 100 100 100 100 100 100 100 100 100 100 100 100 100 100
100 100 100 100 100 100 100 100 100 100 61 100 100 2 0 0 4 2 6 9 39 59 99 53 4 3 19 8 71 22 74 20 100 97 9 39 47 18 93 97 100 100 100 100 100 100 100 100 100 100 100 100 100 100
100 100 100 100 100 100 100 100 100 99 100 100 44 0 0 0 0 0 1 3 77 100 83 51 13 40 6 5 60 100 100 98 94 27 11 99 62 28 98 22 27 100 100 100 100 100 100 100 100 100 100 100 100 100
100 100 100 100 100 100 100 100 100 82 100 96 2 0 2 2 10 4 15 98 100 93 100 100 100 100 93 97 97 97 62 88 90 80 51 59 98 6 4 5 23 59 100 100 100 100 100 100 100 100 100 100 100 100
100 100 100 100 100 100 100 100 23 100 100 13 24 52 72 25 42 72 95 80 100 100 100 100 100 100 100 100 100 100 100 99 100 100 100 100 100 100 91 32 7 26 42 52 99 100 100 100 100 100 100 100 100 100
100 100 100 100 100 100 100 93 15 100 100 5 11 66 94 40 33 100 68 74 100 100 100 100 100 100 95 49 80 78 100 100 100 100 100 100 100 100 100 100 100 33 15 12 50 64 100 100 100 100 100 100 100 100
100 100 100 100 100 100 79 7 50 100 100 7 5 5 18 92 49 84 47 100 100 100 100 100 97 93 50 5 80 86 100 100 100 100 100 100 100 100 85 76 85 73 38 100 100 82 100 100 100 100 100 100 100 100
100 100 100 100 92 100 91 6 97 100 4 0 6 71 63 49 66 26 100 100 100 100 100 100 100 100 26 4 39 98 84 96 89 100 100 100 100 100 100 100 97 88 98 33 78 70 23 92 100 100 100 100 100 100
100 100 100 100 100 100 100 79 89 58 7 5 52 96 5 59 100 100 100 100 76 92 18 4 37 96 3 47 67 76 18 41 98 87 100 100 100 100 100 100 100 98 100 19 87 94 11 5 30 83 100 100 100 100
100 100 100 100 100 100 92 9 10 5 5 5 54 64 77 95 100 100 94 73 4 11 78 97 67 7 5 5 5 11 68 92 82 80 86 6 73 93 100 100 100 100 92 94 61 100 100 47 5 3 63 100 100 100
100 100 84 100 100 80 85 46 29 2 5 5 5 7 75 100 72 59 5 8 5 3 13 1 3 100 25 5 5 5 23 33 12 13 42 5 5 3 5 5 7 4 99 95 26 80 100 100 52 32 36 99 97 100
100 100 98 100 100 87 6 58 5 5 5 44 84 88 100 100 28 58 98 100 5 0 0 0 3 4 5 30 5 20 6 6 5 11 29 5 17 5 5 5 5 5 34 6 5 5 9 94 100 99 99 94 82 76
100 100 100 100 100 5 88 20 5 6 37 60 100 100 26 68 75 55 64 5 5 5 0 0 2 4 5 5 5 5 12 6 44 15 92 41 98 89 58 100 100 100 70 28 19 99 27 4 96 96 84 93 27 34
100 100 100 100 24 60 88 16 5 14 48 71 90 100 100 100 100 8 11 20 14 2 34 43 3 4 23 6 25 5 12 5 5 12 58 100 98 100 100 100 100 98 72 98 67 41 64 94 100 100 98 98 5 5
100 100 100 83 100 61 10 34 5 10 5 100 100 95 98 100 89 5 34 13 71 28 5 16 89 5 4 1 1 5 1 1 5 0 2 13 76 100 99 100 87 100 76 48 13 100 100 100 100 67 44 70 13 75
100 82 61 100 99 8 5 47 62 10 57 78 100 100 97 100 36 49 71 14 0 0 0 0 2 4 0 0 0 0 0 0 0 0 0 3 52 76 64 5 39 91 95 2 4 100 100 100 100 100 92 61 79 44
88 28 99 99 5 13 13 5 5 26 24 46 98 77 80 90 6 5 5 5 6 4 0 0 0 0 3 1 1 5 1 5 7 0 48 15 43 64 81 13 11 98 100 100 96 87 97 100 100 100 73 100 100 87
69 100 78 7 5 49 42 5 4 25 100 90 5 34 55 8 5 5 28 19 5 5 5 4 0 3 22 7 14 11 5 5 2 5 24 48 48 68 88 97 12 56 100 99 84 10 66 100 100 100 100 98 48 78
100 96 58 70 50 32 5 0 92 100 100 16 2 5 8 9 66 71 89 5 5 5 4 3 0 7 80 10 2 0 0 0 1 6 71 16 6 5 5 43 77 89 57 89 100 89 32 100 100 87 42 68 15 92
100 47 45 99 22 24 11 90 95 91 5 5 36 98 63 9 90 98 61 32 16 5 5 5 4 0 0 0 0 0 0 1 4 5 38 99 38 33 28 64 94 91 97 10 11 6 36 98 72 5 40 4 5 54
83 55 97 8 29 5 61 100 100 99 5 8 82 32 95 89 82 94 69 25 6 5 5 5 5 4 0 0 0 0 1 2 0 0 1 5 5 5 5 32 50 54 5 8 4 5 19 80 44 50 27 2 20 44
77 96 51 26 6 94 100 100 99 82 99 72 55 10 17 36 69 93 100 82 26 5 74 75 5 20 0 0 0 0 0 0 3 4 0 2 5 5 5 13 5 16 2 11 34 14 27 44 58 65 20 31 5 6
62 14 5 62 38 4 34 32 49 47 100 60 56 45 64 42 29 67 99 66 55 85 93 100 68 57 5 0 0 0 0 0 5 12 5 5 5 0 0 0 0 0 0 4 5 5 6 76 40 76 87 5 39 73
5 7 5 17 6 87 100 100 59 54 52 79 98 100 100 39 6 75 100 43 99 88 95 100 100 100 31 2 0 0 0 0 86 1 49 6 4 2 46 59 6 5 5 0 0 0 0 0 1 40 13 33 30 12
5 5 3 5 100 100 100 100 100 98 82 100 100 100 100 98 21 99 100 29 85 100 99 90 99 100 97 45 6 0 0 0 0 0 0 0 0 4 5 5 5 52 40 28 4 3 2 14 16 6 13 5 5 38
5 4 25 92 94 100 97 99 88 96 100 100 100 100 100 100 50 96 84 94 89 100 100 100 94 93 100 95 100 86 0 0 0 0 0 0 0 0 5 5 32 14 5 5 79 51 46 100 74 8 5 5 5 24
5 44 98 100 54 100 100 99 18 95 100 100 100 87 99 100 100 100 84 95 100 38 54 100 92 100 100 95 100 100 93 2 5 0 0 0 0 0 3 5 87 33 6 52 45 5 32 5 5 54 25 78 43 90
4 8 81 59 36 9 17 70 100 100 100 100 100 87 100 100 98 94 28 88 5 7 5 71 99 100 100 100 76 100 100 90 5 5 5 5 3 1 2 4 2 0 34 98 96 76 74 56 78 51 70 26 18 9

GFSWCAN_prec_cloud_066.txt.gz
Cloud_Cover
100 100 100 100 100 100 100 100 100 100 100 100 35 0 73 60 0 0 0 0 0 0 0 0 0 0 0 0 0 9 5 5 5 7 5 20 11 51 80 12 20 52 90 49 80 65 80 19 6 26 51 52 5 0
100 100 100 100 100 100 100 100 100 100 100 100 96 1 100 62 0 0 0 0 0 0 0 0 0 0 0 0 14 15 6 5 1 20 41 32 87 98 59 34 5 76 39 95 100 100 71 91 98 81 97 31 5 2
100 100 100 100 100 100 100 100 100 100 100 100 100 11 100 0 0 0 0 0 0 0 0 0 0 0 0 0 1 4 5 5 5 5 4 44 48 60 67 50 14 5 10 94 56 97 100 98 62 9 6 7 2 46
100 100 100 100 100 100 100 100 100 100 100 100 100 29 98 0 0 0 0 0 0 0 0 0 0 5 5 3 1 5 5 0 2 24 48 33 22 54 42 23 78 44 57 83 66 24 50 100 86 72 83 4 61 93
100 100 100 100 100 100 100 100 100 100 100 100 100 78 72 0 0 0 6 0 2 1 0 0 0 0 3 4 34 5 8 5 94 17 53 86 27 18 99 100 96 49 91 93 100 100 93 96 88 100 66 92 100 100
100 100 100 100 100 100 100 100 100 100 100 87 8 100 7 0 0 0 64 70 17 79 100 99 4 12 100 100 74 84 99 74 83 16 83 100 7 50 27 84 36 100 100 100 64 32 77 100 99 91 64 100 100 100
100 98 100 100 100 100 100 100 100 100 100 57 72 97 5 0 4 0 0 62 27 92 98 100 54 5 97 100 100 100 100 100 100 100 99 98 40 94 39 38 0 5 22 94 100 100 100 91 72 100 99 88 100 100
100 99 100 100 100 100 100 100 100 100 100 100 100 82 0 0 2 1 4 76 96 100 100 100 100 30 100 100 100 100 100 100 100 100 100 100 100 100 99 12 0 4 4 60 74 94 21 91 100 100 100 88 100 100
100 100 100 100 100 100 100 100 100 71 100 100 82 5 0 4 20 77 100 100 100 100 100 100 100 100 100 100 100 100 100 100 100 100 100 100 100 100 100 99 5 6 5 5 27 74 76 100 100 100 100 98 100 100
100 100 100 100 100 100 100 100 62 100 100 100 24 1 38 17 51 95 98 100 100 100 100 100 100 100 100 96 100 100 100 100 100 100 100 100 100 100 100 100 46 5 5 5 5 26 100 100 100 100 100 66 98 100
100 100 100 100 100 100 100 100 100 100 100 75 5 7 23 51 53 100 88 78 100 100 100 100 100 58 100 100 100 100 100 100 100 100 100 100 100 100 100 100 100 96 82 5 6 2 31 8 92 100 100 100 100 100
100 100 100 100 100 100 100 100 100 100 100 8 5 5 46 54 75 67 100 100 100 99 97 83 12 38 99 100 100 90 95 92 97 100 100 100 100 100 100 100 100 100 100 98 100 83 5 5 8 79 100 100 100 100
100 100 100 100 100 100 100 95 100 100 9 10 9 81 97 69 94 79 28 37 50 39 6 52 8 10 41 100 20 84 92 99 100 100 100 100 100 100 100 100 100 100 100 90 9 67 100 46 8 53 92 100 100 100
100 100 100 100 100 100 100 100 100 99 45 5 30 94 27 46 83 33 9 4 2 92 66 4 11 1 9 0 5 97 97 53 100 100 85 5 20 31 85 100 100 100 100 69 96 96 98 100 50 3 0 72 100 100
100 100 100 100 100 100 100 100 41 36 66 5 7 58 54 49 99 100 29 10 12 4 6 33 57 1 2 2 0 9 7 86 81 45 5 5 4 1 2 6 45 60 57 43 66 100 42 100 99 5 4 5 8 94
100 100 100 100 100 100 100 100 49 100 5 5 5 52 99 72 92 100 100 87 5 4 4 0 0 0 1 0 1 5 5 5 3 5 5 5 5 5 4 32 5 6 8 8 37 95 18 30 77 8 47 5 4 5
100 100 100 100 100 100 100 50 100 14 5 5 73 92 100 100 100 100 100 57 5 1 0 0 0 0 3 0 3 5 5 5 5 84 98 65 34 74 100 100 89 77 100 35 81 100 68 36 67 96 65 5 4 1
100 100 100 100 100 100 100 100 37 5 5 59 100 94 100 100 100 100 96 5 5 5 0 0 0 5 5 5 8 85 8 68 88 96 5 5 44 61 88 96 99 100 100 100 100 100 100 88 99 65 88 11 5 3
100 100 100 100 100 100 100 90 5 5 25 100 100 100 93 100 99 42 84 16 5 6 4 2 3 4 4 5 1 2 1 0 0 5 3 0 3 12 69 60 78 59 89 100 92 99 100 100 97 80 8 24 5 3
100 100 100 80 90 100 100 5 5 5 34 76 72 90 94 83 17 8 46 29 3 1 2 4 0 2 9 1 2 2 0 0 0 0 0 2 21 90 94 90 43 61 82 66 64 6 6 98 100 100 78 38 5 6
100 100 100 77 100 82 5 8 55 36 26 5 72 51 100 31 7 15 5 1 69 52 5 5 4 0 0 0 5 5 0 0 0 0 2 5 5 5 29 92 87 100 100 37 100 82 99 75 100 100 100 72 69 91
100 67 98 100 98 6 26 11 4 74 80 62 89 49 12 6 5 5 6 94 98 24 15 6 5 2 1 54 98 5 5 0 1 2 58 53 92 56 30 59 92 99 100 74 100 100 100 100 83 100 100 96 27 94
100 100 100 100 79 35 36 10 29 89 100 100 21 16 95 10 5 5 6 41 90 10 29 11 10 9 3 3 5 0 0 0 6 60 41 8 3 5 28 98 85 100 93 46 62 98 100 100 100 100 100 100 53 17
100 100 100 96 14 67 28 95 39 94 81 50 11 58 99 92 22 47 69 48 6 5 42 86 24 5 6 0 0 0 0 0 0 1 5 5 5 5 10 8 5 5 12 1 0 4 79 100 99 92 93 99 96 80
100 100 80 99 90 37 13 98 91 31 60 5 42 100 100 86 92 49 29 64 32 15 48 100 100 82 5 4 0 0 0 0 0 0 0 0 0 43 57 7 5 4 1 5 5 31 98 98 96 22 12 34 61 87
100 34 47 99 42 25 5 49 96 84 7 57 58 94 100 100 100 100 44 88 54 86 100 100 100 100 68 84 6 0 0 0 0 0 0 0 0 5 5 5 5 0 3 4 4 5 5 5 60 56 33 3 60 29
49 85 85 5 75 15 88 100 73 17 59 94 100 92 100 88 100 100 100 100 86 100 100 74 95 100 100 100 100 9 0 0 0 1 0 0 0 0 1 0 0 0 0 0 1 3 4 4 8 33 13 77 28 5
100 100 42 5 24 10 14 11 62 49 27 100 100 100 100 58 68 92 100 100 90 100 75 26 98 100 100 89 100 86 4 2 5 3 0 0 0 0 0 0 0 0 0 0 2 5 7 45 54 81 14 8 11 12
99 24 5 5 6 33 88 98 81 83 87 40 77 100 100 92 100 72 99 95 99 97 53 100 100 100 88 49 52 100 23 5 0 0 0 0 0 0 3 0 2 5 2 4 5 4 2 31 5 5 5 4 5 63
14 5 5 5 44 83 93 80 29 30 89 81 96 98 100 100 100 100 99 98 92 5 63 52 73 96 76 100 37 16 94 6 5 0 0 1 0 0 0 2 3 1 5 5 5 5 5 5 5 6 5 5 5 5
5 5 6 50 8 60 63 23 8 61 100 100 100 100 100 100 100 74 78 41 28 6 5 5 23 71 77 100 100 7 10 22 76 8 4 2 5 5 5 5 5 5 5 5 5 5 5 26 22 5 5 5 5 5
5 1 8 6 77 79 13 80 70 100 100 100 100 100 100 100 100 100 100 100 85 16 23 46 57 7 5 46 100 38 51 8 96 100 51 5 5 5 5 5 5 5 5 5 5 5 5 5 5 5 5 9 5 5
1 5 32 81 81 97 54 5 5 9 83 42 55 100 100 100 100 99 82 99 33 24 8 16 46 39 5 98 22 7 51 43 34 100 100 54 5 5 5 5 5 5 5 5 5 5 5 5 5 5 5 5 5 5

GFSWCAN_prec_cloud_069.txt.gz
Cloud_Cover
100 100 100 100 100 100 100 100 100 100 100 100 100 98 58 1 0 0 0 0 0 0 0 0 0 0 0 0 4 5 2 0 0 6 8 39 5 53 25 5 10 11 75 49 56 59 36 5 3 4 22 0 0 0
100 100 100 100 100 99 100 100 100 100 100 100 100 100 100 0 0 0 0 0 0 0 0 0 0 0 0 0 0 0 0 2 5 22 32 18 75 95 83 55 5 27 8 14 13 4 4 5 5 4 4 4 2 4
100 100 100 100 100 100 100 100 100 100 100 100 100 100 8 0 0 0 0 1 0 0 0 0 0 0 3 5 4 1 5 5 0 0 4 12 73 9 38 16 5 5 5 4 2 2 4 14 27 32 21 26 3 5
100 100 100 100 100 100 100 100 100 100 100 100 100 82 4 4 0 0 0 2 0 2 4 5 0 0 2 17 43 6 5 5 19 36 5 20 18 4 13 5 18 12 8 5 5 2 1 10 5 16 66 81 97 99
100 100 100 100 100 100 100 100 100 100 99 100 58 5 5 5 0 0 4 4 1 3 1 3 2 3 0 0 50 100 82 82 57 100 100 93 47 8 15 82 100 3 48 100 98 5 5 4 14 66 69 100 100 100
100 100 100 100 100 100 100 100 100 100 100 99 9 99 48 5 0 0 43 5 5 5 64 99 38 71 99 76 100 98 100 100 100 100 100 100 97 97 86 91 5 5 5 0 4 44 5 5 5 51 67 98 100 100
100 100 100 100 100 100 100 100 100 100 100 100 100 100 62 3 0 2 0 0 35 100 98 82 13 83 100 100 100 42 100 100 100 100 100 100 100 100 100 100 100 7 5 8 20 0 48 97 36 100 52 100 100 100
100 100 100 100 100 100 100 100 100 100 100 100 100 86 5 0 0 2 22 98 97 98 87 90 100 100 100 84 100 100 100 100 100 100 100 100 100 100 100 100 100 99 21 31 5 5 5 4 29 82 5 87 97 100
100 100 100 100 100 100 100 100 100 100 100 100 100 34 5 0 4 5 14 75 100 91 100 100 100 100 88 80 82 100 100 100 100 100 100 100 100 100 100 100 100 100 100 100 9 77 5 5 5 5 5 5 6 98
100 100 100 100 100 100 100 100 100 100 100 100 100 11 1 1 25 57 18 41 99 99 91 98 74 97 71 70 100 100 100 100 100 100 100 100 100 100 100 100 100 100 100 100 100 100 100 63 5 5 36 26 5 58
100 100 100 100 100 100 100 100 100 100 100 100 82 2 0 4 4 23 5 75 86 73 20 13 6 6 8 97 99 100 100 100 100 100 53 100 100 100 100 100 100 100 100 100 100 100 100 100 100 78 27 37 5 5
100 100 100 100 100 100 100 100 100 100 100 78 43 13 79 56 21 49 100 100 60 100 54 58 8 40 34 90 99 82 96 99 100 100 98 95 100 100 100 100 100 100 100 100 94 96 89 90 62 46 5 21 14 100
100 100 100 100 100 100 100 100 100 100 95 16 32 90 97 11 67 90 100 100 99 100 5 3 0 24 93 92 4 12 80 99 92 94 100 100 100 100 100 100 100 100 100 99 100 100 100 98 100 72 27 5 5 28
100 100 100 100 100 100 100 100 100 100 84 40 7 96 42 5 47 75 97 100 100 19 5 11 15 10 8 5 5 8 49 40 47 51 29 15 5 1 53 24 94 93 97 69 73 100 100 99 60 95 79 83 100 10
100 100 100 100 100 100 100 100 100 76 90 11 5 63 67 100 97 98 100 100 99 5 11 42 62 3 1 4 0 4 20 5 5 2 2 3 5 5 4 5 5 5 5 40 81 100 100 99 77 69 60 100 100 25
100 100 100 100 100 100 100 100 56 25 6 5 5 38 98 74 100 100 100 79 5 5 5 0 0 0 0 0 0 0 2 4 2 5 37 39 6 31 84 68 77 90 47 46 100 100 100 100 98 19 50 50 5 5
100 100 100 100 100 100 100 28 30 52 6 5 6 97 100 100 100 100 59 37 21 3 0 0 0 0 0 0 0 5 6 5 73 70 25 56 5 5 53 95 84 43 100 100 100 100 100 90 89 86 8 100 21 5
100 100 100 100 100 100 83 51 93 34 5 82 80 93 93 82 79 96 57 97 8 5 5 3 5 2 0 1 5 2 5 11 6 0 0 0 0 0 35 100 13 67 94 100 37 72 100 100 100 100 96 35 71 100
100 100 100 100 100 65 98 97 6 5 5 12 72 46 82 55 5 57 95 53 62 46 5 8 25 5 40 79 6 5 0 0 0 0 0 0 2 8 70 53 47 89 93 100 83 48 76 94 100 100 100 95 74 99
100 100 100 100 100 85 100 48 5 5 4 5 15 54 5 5 10 44 28 7 31 9 5 62 12 5 4 0 1 0 0 0 0 0 0 5 5 5 6 41 65 90 83 100 98 100 92 82 54 86 100 100 92 31
100 100 100 100 100 100 100 69 5 5 26 18 22 5 5 25 8 57 96 78 7 20 75 100 100 25 5 4 22 92 5 5 0 0 5 18 53 5 6 7 5 82 94 90 85 50 100 100 100 100 100 100 100 44
100 95 99 100 100 100 97 5 5 6 63 9 11 5 38 88 100 100 100 100 95 100 100 100 100 72 11 14 1 4 12 2 0 92 93 38 8 5 5 5 5 80 55 9 21 92 100 100 100 100 100 100 90 73
96 100 100 100 100 100 44 5 5 9 25 7 10 8 70 100 100 100 100 100 83 99 100 89 92 100 72 78 7 0 0 0 0 3 3 0 2 5 5 2 5 8 5 4 4 35 81 100 100 87 100 95 100 99
97 100 100 100 100 58 12 8 18 64 15 68 10 24 54 100 100 100 100 100 99 64 23 6 79 100 100 31 53 2 0 0 0 0 0 1 2 1 0 1 2 0 0 0 5 83 57 55 100 100 78 93 23 5
100 100 100 100 5 10 5 41 57 38 5 5 5 28 80 99 100 100 100 100 100 92 53 5 57 100 100 13 98 5 0 0 0 0 0 0 0 5 0 0 0 0 0 4 5 5 5 58 66 68 5 5 5 13
100 100 100 14 91 86 10 59 48 6 5 6 64 7 55 99 97 100 100 100 99 79 5 5 85 100 99 15 4 5 2 1 0 0 0 0 0 1 1 0 0 0 5 5 5 5 5 5 3 4 5 4 5 4
98 100 100 100 100 90 12 66 79 33 5 7 13 91 82 100 100 100 100 100 98 36 16 5 38 85 48 18 5 5 5 5 2 0 0 0 0 0 0 0 0 0 3 5 5 2 3 1 4 3 3 5 5 5
100 100 100 100 98 9 48 22 23 90 61 6 10 55 89 100 100 100 100 100 88 57 56 5 5 64 11 28 5 20 5 5 5 4 1 5 0 0 0 0 0 0 0 5 1 5 4 2 0 4 5 5 5 5
100 100 100 94 18 5 4 41 99 73 63 74 18 5 38 51 100 100 100 100 100 52 72 12 5 49 44 64 18 53 8 5 5 5 5 3 5 1 0 2 4 0 5 5 4 2 5 5 5 5 5 5 5 50
100 99 41 5 5 4 44 12 62 37 42 74 64 99 92 100 100 100 100 100 100 100 100 99 37 60 42 18 21 6 25 8 5 21 60 5 5 5 2 0 5 5 5 5 5 5 5 5 5 5 5 4 5 42
16 5 16 5 1 6 8 84 81 70 67 54 88 100 100 100 100 100 100 100 100 100 100 100 100 86 29 9 17 7 16 5 3 4 19 8 5 5 3 4 1 4 5 5 5 5 12 77 92 37 5 5 5 5
8 51 6 3 58 76 28 97 97 6 7 51 52 100 100 100 97 64 100 100 100 100 100 100 100 100 36 5 17 6 5 5 5 7 82 54 5 5 5 5 2 0 5 9 5 5 5 5 13 51 67 58 58 19
11 46 92 13 5 5 3 19 47 8 11 51 30 37 100 100 81 74 100 100 100 100 100 100 100 100 94 11 37 26 9 11 5 5 84 86 5 5 5 5 5 3 1 3 5 5 5 22 88 90 84 80 81 87

GFSWCAN_prec_cloud_072.txt.gz
Cloud_Cover
100 100 100 100 100 100 100 100 100 100 100 100 97 74 100 0 5 0 0 0 0 0 0 0 0 0 0 0 0 1 2 3 1 11 11 62 18 81 51 5 5 5 31 89 39 7 5 0 0 0 0 0 0 0
100 100 100 100 100 100 100 100 100 100 100 100 57 95 81 2 5 1 0 0 0 0 0 0 0 0 0 0 0 5 12 5 1 43 52 17 10 45 87 5 5 5 5 14 4 4 0 4 4 0 0 0 0 0
100 100 100 100 100 100 100 100 100 100 100 100 98 100 74 100 3 0 0 1 0 0 0 0 0 0 0 1 1 4 4 3 5 1 7 7 78 5 68 48 5 5 1 4 1 0 0 0 0 0 0 0 3 5
100 100 100 100 100 100 100 100 100 100 100 100 83 100 100 100 0 1 0 3 1 0 0 3 0 0 2 3 4 6 7 3 5 4 3 4 5 5 31 5 5 1 4 5 4 5 4 2 0 0 0 2 5 5
100 100 100 100 100 100 100 100 100 100 100 100 100 100 100 43 5 2 4 0 0 0 1 5 7 14 22 70 99 34 11 4 5 5 7 94 14 10 96 20 12 2 1 1 5 1 1 0 5 3 4 5 8 76
100 100 100 100 100 100 100 100 100 100 100 100 100 100 97 44 11 0 0 0 0 0 7 4 55 100 100 100 100 100 100 100 99 99 88 24 100 99 68 100 100 32 96 97 51 5 1 0 0 1 48 36 58 100
100 100 100 100 100 100 100 100 100 100 100 100 100 100 28 100 3 0 5 2 11 100 70 7 85 100 100 100 100 91 79 96 99 100 100 93 100 100 100 100 100 18 99 100 68 16 18 52 8 0 3 12 20 22
100 100 100 100 100 100 100 100 100 100 100 100 100 100 100 92 1 0 5 60 96 66 61 34 6 47 43 89 91 100 100 100 100 100 100 100 100 100 100 100 100 100 93 85 26 88 100 42 14 10 2 5 5 5
100 100 100 100 100 100 100 100 100 100 100 100 100 100 100 4 2 0 5 48 100 100 42 92 30 67 5 18 63 73 96 100 100 100 100 100 100 100 100 100 100 100 100 100 87 60 48 71 11 5 30 5 5 3
100 100 100 100 100 100 100 100 100 100 100 100 100 100 30 5 5 67 6 35 89 90 99 100 47 83 5 32 63 100 100 100 100 100 100 100 100 100 100 100 100 100 100 100 100 100 100 38 33 100 100 69 86 89
100 100 100 100 100 100 100 100 100 100 100 100 100 93 9 5 6 26 9 47 87 100 100 98 7 0 16 96 91 64 89 97 95 96 91 100 96 42 100 100 100 100 100 100 77 60 90 99 96 100 66 7 18 17
100 100 100 100 100 100 100 100 100 100 100 100 96 54 5 5 76 51 30 85 74 100 100 87 25 62 45 56 93 98 90 96 28 100 90 100 100 91 43 97 100 100 100 100 100 100 100 100 59 82 93 82 27 15
100 100 100 100 100 100 100 100 100 100 100 100 100 62 25 17 90 46 61 79 46 23 5 5 5 56 92 93 25 14 84 89 88 78 100 20 4 7 5 80 100 100 100 100 92 98 100 100 100 100 100 100 81 5
100 100 100 100 100 100 100 100 100 100 100 66 10 97 91 6 99 29 81 22 44 42 5 7 19 7 13 5 5 6 34 61 48 49 5 4 5 5 2 2 5 61 55 68 94 69 14 70 91 25 67 100 100 100
100 100 100 100 100 100 100 100 100 100 39 26 33 76 50 6 53 60 32 6 5 7 8 59 74 6 0 6 4 3 12 5 3 2 5 5 5 10 16 5 5 7 8 29 92 81 100 100 100 100 100 100 100 79
100 100 100 100 100 100 100 100 100 42 99 5 5 5 5 41 99 70 100 14 5 38 5 5 5 5 4 0 0 0 0 4 5 5 51 5 2 21 36 72 84 93 78 69 80 100 100 100 100 100 100 100 95 100
100 100 100 100 100 98 98 99 53 99 9 5 8 5 58 60 47 78 21 5 5 32 5 5 5 5 5 1 0 0 2 2 5 5 5 0 0 0 0 0 11 76 64 34 98 100 100 100 100 100 100 100 86 87
100 100 100 100 99 100 98 66 94 90 99 6 42 76 5 5 77 82 100 31 37 11 27 91 99 8 31 5 1 5 1 0 0 0 0 1 0 0 5 5 96 100 84 98 99 100 100 100 100 100 100 100 100 100
100 100 100 100 100 96 39 98 99 37 29 5 9 8 5 5 72 100 100 100 60 36 100 100 100 83 14 13 4 1 0 0 3 0 0 0 5 4 5 5 84 100 86 100 99 96 100 99 100 100 100 100 100 100
100 100 100 100 91 52 99 100 85 32 5 4 5 5 18 5 6 71 100 100 100 81 100 97 90 100 94 31 5 3 5 5 66 2 2 46 5 5 1 5 16 39 16 7 11 6 74 100 100 100 94 98 100 100
100 100 100 100 74 96 100 91 63 5 6 5 5 25 41 38 98 100 100 100 100 88 92 100 100 100 99 61 6 1 2 31 33 1 23 5 5 0 0 5 5 4 25 30 33 80 100 91 95 100 100 100 100 100
100 100 99 98 96 90 100 14 5 5 24 5 15 8 6 94 100 100 100 100 100 100 100 96 98 100 71 5 5 5 0 27 1 0 6 0 0 0 1 5 5 3 26 28 16 85 100 100 100 100 100 100 100 94
100 100 100 100 100 98 62 5 16 8 2 59 54 8 37 34 50 100 100 100 50 94 56 94 60 82 11 5 5 5 0 0 0 0 0 0 0 0 0 1 0 0 0 0 2 9 23 43 64 88 79 86 55 81
100 100 100 80 99 99 59 59 67 51 5 10 9 40 95 22 89 95 100 100 79 21 67 62 10 43 5 5 5 3 0 0 0 0 0 0 0 0 1 0 0 0 0 0 5 5 17 16 10 5 16 27 5 5
100 99 92 99 92 100 100 100 90 20 5 6 36 99 82 5 82 100 100 100 47 86 100 98 65 6 5 5 5 3 5 2 0 0 5 0 0 5 2 0 0 0 5 5 5 5 0 1 2 0 5 5 20 7
100 69 81 55 100 100 100 99 25 29 5 5 6 35 9 5 54 100 98 100 100 100 95 100 100 74 24 5 5 5 0 5 5 0 3 5 0 2 5 5 1 4 1 5 5 5 5 5 5 5 5 2 1 5
100 75 65 92 100 100 99 79 9 5 9 5 9 5 5 39 27 69 96 100 100 100 91 100 100 100 84 37 5 5 5 5 5 4 0 2 5 1 4 5 5 5 5 5 5 2 5 5 5 4 0 0 0 5
100 90 88 100 100 100 96 74 4 16 59 38 35 38 86 99 94 94 100 100 100 100 100 100 100 100 99 75 21 5 5 5 5 22 2 0 5 1 0 3 2 5 5 5 5 5 3 0 0 3 5 4 5 5
100 100 100 100 100 98 53 14 40 88 73 84 65 8 86 100 100 100 86 55 100 100 100 100 100 100 100 100 24 17 5 5 5 5 5 0 0 5 5 0 0 2 5 5 5 5 29 26 5 5 5 5 5 5
100 92 100 98 55 7 5 5 10 40 47 5 5 17 43 90 100 28 6 29 91 100 97 100 100 100 100 100 86 10 16 27 7 5 5 4 0 0 5 5 1 0 4 5 5 5 5 5 5 5 5 5 5 5
100 100 62 9 5 2 5 6 47 80 15 24 7 18 44 94 97 100 91 16 37 96 95 98 100 100 100 100 100 70 42 38 62 26 21 5 5 2 0 4 5 5 0 4 5 5 5 5 5 5 5 5 5 5
14 16 44 68 14 3 30 73 27 5 8 62 56 54 51 76 100 88 98 64 79 8 100 100 100 100 100 100 100 100 80 23 35 77 62 29 6 5 5 4 5 5 5 5 5 5 5 5 5 24 95 89 85 78
45 94 37 5 5 5 5 5 5 5 15 37 86 91 98 97 100 100 100 95 99 85 100 100 100 100 100 100 100 100 100 82 95 71 63 31 5 9 6 5 5 5 5 5 5 5 5 5 57 78 90 100 100 100

GFSWCAN_prec_cloud_075.txt.gz
Cloud_Cover
100 100 100 100 100 100 100 100 100 100 100 100 100 98 100 100 100 96 1 0 0 0 0 0 0 0 0 0 0 0 2 0 0 1 2 7 5 37 5 4 5 5 16 56 37 10 5 4 0 1 1 3 0 0
100 100 100 100 100 100 100 100 100 100 100 100 100 100 100 100 100 46 5 0 0 0 0 0 0 0 0 1 1 4 2 0 0 0 26 6 19 69 7 5 4 4 3 4 2 4 5 5 5 0 0 0 0 0
100 100 100 100 100 100 100 100 100 100 100 100 100 100 100 100 100 7 8 2 0 0 0 0 3 2 3 5 1 5 5 0 0 0 0 0 66 4 29 24 5 3 0 3 0 0 0 0 0 0 0 0 0 0
100 100 100 100 100 100 100 100 100 100 100 100 100 100 100 100 100 100 28 0 5 2 0 4 3 0 4 44 67 34 79 68 29 19 4 0 0 1 4 3 4 1 1 4 4 0 0 0 0 0 0 0 0 0
100 100 100 100 100 100 100 100 100 100 100 100 100 100 100 100 100 100 15 5 5 3 2 4 5 3 17 98 100 80 100 100 100 95 8 85 1 7 76 15 5 0 0 2 0 3 4 2 0 0 0 0 0 4
100 100 100 100 100 100 100 100 100 100 100 100 100 100 100 100 100 96 5 5 5 5 28 5 5 5 6 7 5 8 42 100 99 100 91 100 91 100 65 82 37 52 3 0 0 0 1 5 7 8 5 5 5 5
100 100 100 100 100 100 100 100 100 100 100 100 100 100 100 100 98 20 5 5 4 15 7 11 57 5 5 5 10 43 84 100 100 100 100 100 100 100 100 97 98 81 100 67 20 5 3 4 5 3 5 5 0 0
100 100 100 100 100 100 100 100 100 100 100 100 100 100 100 100 22 11 5 67 98 30 17 11 31 6 4 11 51 75 96 100 100 100 100 100 100 100 100 87 100 91 100 100 92 100 5 4 5 5 4 7 2 3
100 100 100 100 100 100 100 100 100 100 100 100 100 100 100 100 55 5 5 4 60 23 20 5 5 5 8 25 82 70 97 89 100 100 100 100 100 100 97 82 18 76 100 100 94 93 94 97 26 5 5 5 1 0
100 100 100 100 100 100 100 100 100 100 100 100 100 100 100 100 6 7 4 68 8 82 5 4 2 5 5 16 96 94 100 100 100 100 99 100 100 100 100 69 100 100 100 100 100 100 100 100 100 100 51 6 18 36
100 100 100 100 100 100 100 100 100 100 100 100 100 100 100 13 43 16 3 48 69 19 15 34 5 5 19 66 94 51 70 64 59 68 68 100 63 8 5 45 83 100 100 100 100 100 100 100 81 68 85 99 95 95
100 100 100 100 100 100 100 100 100 100 100 100 100 100 16 50 92 63 49 75 78 5 16 67 61 85 83 91 94 100 98 79 66 100 93 98 2 2 2 20 62 100 100 100 95 100 100 100 100 100 99 88 39 98
100 100 100 100 100 100 100 100 100 100 100 100 100 26 54 37 81 15 5 22 6 5 5 29 24 99 93 93 89 72 84 100 85 83 92 6 0 4 5 4 10 96 76 43 33 49 73 56 100 100 97 94 95 69
100 100 100 100 100 100 100 100 100 100 100 99 43 93 70 5 56 100 86 96 5 5 5 10 76 80 64 34 31 42 80 66 82 13 13 5 5 5 5 5 7 42 6 5 25 56 95 100 98 64 96 96 100 63
100 100 96 94 100 100 100 100 100 100 98 71 53 61 49 4 55 99 99 21 13 5 11 94 100 96 6 28 8 6 29 11 4 3 5 5 5 5 2 4 5 66 100 46 86 51 10 32 75 85 84 100 95 96
100 96 93 100 100 100 100 100 100 95 70 78 5 5 5 44 72 70 100 100 40 5 19 100 100 100 77 32 1 0 0 0 2 5 5 5 5 0 0 0 0 6 32 100 41 46 100 44 71 100 99 100 100 100
100 100 99 100 100 100 100 100 96 90 97 6 5 4 14 15 5 98 100 100 98 5 99 100 100 100 100 31 0 0 0 4 0 0 0 0 4 2 0 16 15 16 100 100 100 100 99 86 100 100 100 100 100 100
100 100 100 100 100 100 100 100 100 100 52 5 5 6 5 5 5 89 100 100 99 96 100 100 95 98 100 12 5 0 2 2 0 3 0 0 4 8 5 6 33 76 96 100 41 97 98 90 100 100 100 100 100 100
100 100 100 100 100 100 98 100 100 76 8 5 5 5 5 22 6 47 100 100 41 99 100 72 10 36 43 4 5 0 0 3 5 5 5 1 8 5 4 0 5 5 39 10 12 61 96 100 100 96 100 100 100 100
100 100 100 100 100 96 100 100 88 36 21 20 11 8 49 41 15 42 98 70 33 20 34 12 5 28 54 5 0 0 3 3 5 5 2 2 7 2 0 4 2 0 0 29 38 9 41 80 49 100 100 100 100 100
100 100 100 98 100 58 86 100 45 51 56 54 5 13 74 49 53 5 22 68 59 42 24 10 5 78 34 5 3 5 0 0 5 2 0 16 0 0 0 0 0 0 3 21 45 58 90 86 100 100 100 100 97 100
100 100 100 100 100 100 100 81 77 47 21 36 5 43 79 26 47 5 8 27 100 100 68 33 10 49 18 9 15 5 5 0 0 5 5 0 4 0 0 3 0 0 0 3 7 38 65 84 51 98 100 96 100 100
100 100 100 100 100 100 94 67 95 100 7 6 5 50 56 55 58 62 96 86 77 97 30 78 100 69 25 43 15 60 5 5 2 5 5 2 0 2 0 5 5 0 0 4 5 5 5 23 5 5 67 68 67 15
97 100 100 100 99 91 100 100 100 100 49 9 5 34 42 96 68 44 50 54 26 100 63 58 99 100 100 31 52 69 54 5 2 0 3 5 0 0 3 5 5 5 0 0 4 5 11 18 30 94 95 13 5 5
100 100 100 100 85 100 100 100 100 99 88 5 11 15 73 8 89 81 39 100 96 82 100 91 41 100 100 100 58 76 80 60 8 5 0 3 5 0 0 5 2 4 0 0 5 2 0 0 0 1 4 0 0 4
100 100 96 100 99 99 100 100 100 100 68 6 11 55 6 31 100 100 98 100 100 77 28 49 62 31 98 100 100 64 64 60 49 6 5 2 1 3 0 2 5 5 5 3 3 4 5 5 5 3 4 5 5 10
100 100 100 100 100 54 87 100 100 98 50 10 7 18 65 85 93 35 45 88 71 88 99 71 37 38 98 100 100 91 50 51 69 47 5 5 5 5 0 0 0 0 0 0 5 5 5 56 58 9 5 5 5 5
100 100 100 100 90 93 70 100 100 58 46 91 78 94 86 47 58 27 58 21 46 17 76 99 84 98 90 100 100 100 100 66 60 62 44 10 5 5 5 5 5 4 0 0 0 5 5 5 5 5 36 87 88 40
100 100 100 97 100 98 100 100 96 52 98 100 71 89 38 25 56 75 26 58 46 90 100 93 96 88 94 99 100 100 100 100 100 70 66 49 65 14 7 5 5 5 5 0 0 0 5 10 70 64 49 74 84 100
100 100 100 100 96 100 93 33 16 50 62 61 58 81 5 5 10 21 57 73 100 98 100 96 67 100 100 100 100 99 100 100 100 100 100 91 91 100 68 19 8 5 5 5 1 2 5 26 68 100 100 100 100 100
72 100 100 99 96 68 29 5 5 5 22 13 21 8 53 22 57 98 100 100 100 100 70 73 98 100 100 100 99 98 100 92 100 100 100 100 100 100 100 65 38 23 5 5 5 5 5 29 97 100 100 100 100 100
72 92 99 32 6 32 5 5 5 5 26 83 12 15 5 25 100 100 100 100 100 100 99 74 100 100 100 100 100 100 100 100 100 100 100 100 100 100 100 100 87 78 40 5 5 5 5 5 5 64 98 100 100 100
17 5 6 68 92 52 23 5 5 5 49 75 6 61 92 88 100 99 100 100 100 100 100 100 100 100 100 100 100 100 100 100 100 100 100 100 100 100 100 100 100 92 64 10 5 5 5 5 5 55 96 75 53 79

GFSWCAN_prec_cloud_078.txt.gz
Cloud_Cover
100 100 100 100 100 100 100 100 100 100 100 100 100 100 100 100 100 86 95 86 0 1 0 0 0 0 0 0 0 0 0 0 0 3 4 5 34 98 100 100 88 22 5 5 5 5 38 100 100 100 82 90 8 5
100 100 100 100 100 100 100 100 100 100 100 100 100 100 100 100 100 100 100 83 0 5 4 0 0 5 0 0 0 0 0 0 0 1 2 5 5 20 10 5 34 75 65 31 5 17 0 0 1 24 5 5 5 5
100 100 100 100 100 100 100 100 100 100 100 100 100 100 100 100 100 100 100 33 5 5 0 0 0 1 0 0 5 87 30 13 5 5 4 1 66 4 5 5 3 0 0 0 0 1 5 4 0 0 0 1 4 5
100 100 100 100 100 100 100 100 100 100 100 100 100 100 100 99 100 100 99 5 6 5 5 5 4 0 0 3 0 33 100 94 86 72 45 11 4 0 3 3 1 1 2 0 2 1 0 0 1 0 0 0 0 0
100 100 100 100 100 100 100 100 100 100 100 100 100 100 100 100 100 100 85 34 5 2 4 9 5 5 3 0 0 0 0 0 5 93 100 100 100 31 5 5 5 2 0 0 0 2 0 0 0 0 0 0 0 0
100 100 100 100 100 100 100 100 100 100 100 100 100 100 100 100 100 100 37 24 5 0 5 5 1 0 1 5 5 5 5 5 22 98 97 70 9 81 100 98 35 63 20 5 5 0 0 0 0 0 0 0 0 3
100 100 100 100 100 100 100 100 100 100 100 100 100 100 100 100 100 100 68 15 3 0 12 6 7 3 4 5 6 34 26 72 78 100 100 100 100 96 98 94 98 72 13 9 5 7 32 0 0 1 4 3 1 0
100 100 100 100 100 100 100 100 100 100 100 100 100 100 100 100 100 73 6 3 2 9 5 5 12 7 4 48 70 67 99 62 73 100 100 100 100 100 100 100 100 40 80 34 39 93 69 72 41 4 5 5 5 5
100 100 100 100 100 100 100 100 100 100 100 100 100 100 100 100 91 20 2 26 5 36 9 5 11 64 5 24 43 56 98 100 72 100 100 100 100 100 100 100 96 100 98 83 91 97 100 100 90 12 5 82 5 14
100 100 100 100 100 100 100 100 100 100 100 100 100 100 100 100 6 5 37 55 24 5 10 5 5 29 5 18 62 22 30 64 98 54 77 100 100 100 100 100 98 57 50 100 100 100 100 100 100 100 95 100 99 10
100 100 100 100 100 100 100 100 100 100 100 100 100 100 100 70 50 87 92 51 11 25 5 5 39 83 65 42 15 8 62 44 79 72 99 100 51 29 39 20 48 84 100 98 100 100 83 96 100 100 100 100 97 86
100 100 100 100 100 100 100 100 100 100 100 100 100 100 18 66 100 100 47 75 42 7 4 5 71 100 73 50 12 28 38 8 100 26 89 81 70 5 3 4 23 25 31 69 73 74 64 27 25 84 100 100 100 97
100 100 100 100 100 100 100 100 100 100 100 100 100 70 92 59 74 25 9 29 9 4 5 5 83 100 66 47 49 29 85 59 14 78 100 52 34 45 2 0 2 4 9 18 6 6 6 42 55 75 67 82 100 100
100 100 100 100 100 77 94 100 100 100 100 100 77 93 45 13 11 5 8 5 5 42 93 69 100 100 99 48 28 68 52 48 72 78 28 100 27 0 1 0 0 9 24 19 20 28 40 90 100 92 13 99 88 96
77 100 100 92 93 56 99 100 100 100 100 85 66 58 10 17 38 5 28 89 17 65 94 100 100 97 90 11 5 8 23 56 15 65 100 89 1 1 0 0 0 4 2 16 91 100 100 93 72 38 56 32 51 97
100 100 99 90 83 100 100 100 100 97 36 85 6 5 3 5 6 10 61 99 25 44 27 47 6 32 31 5 5 5 5 5 94 99 89 25 4 0 0 0 0 2 4 16 61 39 60 68 30 58 55 69 80 97
100 100 93 72 99 100 100 100 100 61 99 6 9 5 5 6 5 56 19 5 5 5 5 5 4 1 2 1 5 5 5 12 62 54 74 1 0 0 3 10 32 8 15 56 0 1 5 29 40 44 96 100 100 100
100 99 100 100 100 100 100 100 94 100 31 5 5 5 56 7 5 5 6 37 11 5 5 5 5 5 5 5 5 5 5 5 14 5 5 4 16 4 3 2 1 0 1 2 4 4 25 53 69 100 58 99 100 100
100 88 100 100 100 100 100 95 100 57 5 12 8 5 28 28 5 5 10 39 95 8 5 5 6 5 5 5 5 7 5 5 29 35 19 12 0 5 1 4 14 6 5 4 6 47 95 99 76 72 100 100 100 100
100 100 100 100 100 100 100 96 100 31 28 20 24 5 13 40 34 5 5 6 66 39 5 5 56 78 5 5 5 14 4 1 4 80 83 78 50 10 4 8 11 19 78 42 56 22 92 79 63 50 76 100 100 100
100 100 100 100 100 100 100 100 98 8 72 47 25 10 28 63 12 5 8 42 68 13 12 63 81 14 8 5 5 5 5 5 5 3 1 4 0 5 5 5 5 5 59 80 22 97 83 96 100 100 100 100 100 97
100 100 100 100 100 100 100 99 54 85 100 78 50 5 44 52 43 47 16 73 99 96 80 83 51 5 95 59 8 5 5 5 5 5 1 0 5 5 5 5 5 6 64 92 83 46 68 99 78 39 86 60 28 62
87 100 100 100 100 100 87 74 100 100 100 33 34 5 12 48 35 48 78 28 100 76 58 55 5 5 58 100 98 17 5 5 5 5 5 4 0 0 5 5 5 10 76 24 53 54 42 50 20 78 6 19 46 84
81 98 100 100 100 97 82 73 100 100 100 38 40 63 16 11 7 26 53 43 94 76 95 88 32 19 5 89 100 100 66 7 10 5 5 5 5 0 1 2 5 5 5 10 79 22 6 40 70 98 97 100 100 100
70 65 100 100 100 94 77 100 100 100 100 88 47 7 16 5 11 48 85 9 46 97 97 94 85 73 11 38 100 100 100 100 69 5 5 5 5 5 3 2 5 5 4 36 57 59 58 93 100 99 100 100 100 100
88 95 100 100 79 97 98 100 99 94 100 90 81 8 5 11 31 59 82 28 54 33 52 82 88 96 42 62 100 100 100 100 100 44 5 11 22 5 5 5 5 5 5 5 5 54 94 94 99 100 100 87 22 86
53 100 100 100 98 100 100 99 75 84 100 82 80 44 39 18 20 39 90 82 22 92 100 99 100 97 77 92 100 100 99 64 75 100 33 17 19 33 25 6 5 5 5 5 5 12 86 89 96 99 100 99 100 100
59 100 100 100 100 100 98 63 98 100 92 27 44 100 98 77 81 31 98 71 99 100 100 100 92 97 94 99 100 100 100 93 100 98 100 100 75 85 98 86 9 6 5 5 5 5 14 97 88 93 92 97 100 100
100 100 100 100 100 100 100 100 100 98 20 44 98 90 94 23 5 8 76 86 100 100 100 100 100 93 100 100 88 100 100 100 100 100 100 100 100 97 100 100 100 66 20 5 44 5 5 23 81 70 36 73 96 100
91 92 99 100 100 100 100 100 89 9 5 8 21 38 28 26 10 40 87 100 100 100 100 100 100 100 100 100 100 100 82 99 100 100 100 100 100 100 100 100 100 100 86 23 6 5 5 19 49 64 90 97 97 96
70 100 100 100 100 100 100 50 11 5 5 5 5 5 8 10 10 50 100 100 100 100 100 100 100 100 100 100 100 100 100 100 100 100 100 100 100 100 100 100 100 100 100 97 29 5 5 41 72 92 88 68 57 61
99 100 92 100 100 68 46 53 5 5 5 5 20 58 25 64 92 100 98 100 100 100 100 100 100 100 100 100 100 100 100 100 100 100 100 100 100 100 100 100 100 100 100 100 84 18 5 9 49 100 50 60 5 5
97 89 46 5 22 61 22 5 5 5 5 15 74 16 15 57 100 100 100 98 100 100 100 100 100 100 100 100 100 100 100 100 100 100 100 100 100 100 100 100 100 100 100 100 100 94 31 5 25 92 80 5 5 5

GFSWCAN_prec_cloud_081.txt.gz
Cloud_Cover
98 99 100 100 100 100 87 100 99 95 95 100 100 100 100 100 100 81 100 98 63 2 2 0 0 0 0 3 5 0 2 0 0 4 43 100 99 88 48 32 65 11 7 60 68 100 98 100 100 100 57 21 32 100
47 100 100 100 100 93 95 100 91 100 100 100 100 100 100 100 100 100 100 100 79 5 16 0 0 0 0 0 4 0 2 3 0 2 1 3 14 69 96 46 5 9 70 85 11 95 15 16 100 100 100 48 7 9
100 100 100 100 100 100 100 100 100 100 100 100 100 100 100 100 100 100 100 100 83 5 5 0 2 0 0 3 5 8 9 5 41 100 42 3 0 4 5 5 52 75 6 5 5 6 5 4 22 99 100 23 74 100
100 100 96 97 100 100 100 100 100 100 100 100 100 100 100 100 100 100 100 100 58 1 10 22 0 2 0 1 0 3 4 0 2 12 13 5 41 7 5 5 1 7 4 12 6 5 5 5 5 5 25 91 100 100
100 99 99 97 100 100 100 100 100 100 100 100 100 100 100 100 100 100 100 100 3 27 30 41 4 3 5 4 2 0 2 0 47 77 66 91 87 36 93 100 40 5 5 4 5 38 5 5 4 5 0 0 0 1
100 95 95 100 100 100 95 100 100 100 100 100 100 100 100 100 100 100 100 6 1 0 4 89 9 5 0 5 2 5 17 75 100 100 100 98 99 71 62 100 100 100 98 5 55 15 5 7 4 5 0 5 5 5
100 87 100 100 100 98 100 100 100 100 100 100 100 100 100 100 100 100 100 36 1 0 2 50 88 5 2 4 60 100 100 81 66 67 82 94 100 99 100 100 96 82 40 93 71 86 36 6 6 5 5 5 2 5
100 100 100 100 100 100 100 100 100 100 100 100 100 100 100 100 100 100 30 21 30 8 5 65 96 40 7 29 94 99 97 86 91 71 77 99 100 100 100 83 100 50 26 35 96 100 67 100 100 95 32 7 3 4
100 97 100 100 100 86 100 100 100 100 100 99 100 100 100 100 100 22 2 26 7 31 55 82 66 96 49 24 79 23 48 77 90 75 94 92 100 100 100 100 100 99 100 99 98 97 99 30 100 100 100 57 21 15
100 98 100 100 100 100 100 100 100 100 100 100 100 100 100 100 56 5 15 47 12 5 5 80 16 100 100 78 48 73 87 89 53 95 52 47 36 7 99 100 100 100 100 98 96 51 50 7 97 100 100 100 68 70
100 100 100 100 100 100 100 100 100 100 100 100 100 100 100 81 79 94 70 36 12 42 60 84 56 100 100 100 21 22 48 50 50 88 42 45 20 84 75 95 80 100 100 100 100 100 82 56 100 100 100 100 100 100
100 100 100 100 100 100 100 100 100 96 100 100 100 100 100 91 83 82 36 5 9 70 68 100 100 100 96 99 30 66 21 62 36 78 98 51 19 95 96 100 100 11 13 66 22 48 89 61 64 99 97 85 91 100
100 100 100 100 100 100 100 100 100 100 100 100 100 100 97 98 68 88 97 98 99 74 72 72 74 14 96 37 36 2 92 33 26 63 28 27 97 70 13 98 100 100 60 59 100 80 100 100 100 99 100 100 100 69
89 100 100 100 100 99 100 99 100 100 100 100 100 96 50 54 47 81 57 39 53 5 14 4 5 4 3 29 55 21 55 55 51 14 38 99 34 97 23 5 51 90 99 100 100 100 100 100 93 91 100 86 100 57
5 5 68 100 100 61 61 100 100 100 100 74 87 58 15 99 86 14 2 14 8 5 5 5 39 14 82 69 81 48 58 97 99 81 100 20 5 2 5 36 86 82 99 95 100 94 46 84 100 100 100 100 68 53
6 51 100 100 58 34 100 100 100 100 94 100 34 5 53 99 100 62 56 89 6 5 6 5 5 5 15 5 54 99 64 47 100 100 95 86 5 2 12 96 100 100 100 100 99 56 35 66 56 65 84 86 44 20
89 100 100 100 21 50 100 100 100 100 100 37 5 5 37 92 99 78 37 98 9 54 81 22 5 5 5 5 5 62 84 99 100 100 96 5 0 0 5 5 44 12 13 11 38 66 95 78 34 34 29 48 37 61
92 98 100 97 66 71 100 100 100 100 73 8 5 73 100 97 67 100 18 5 5 81 72 90 15 100 73 17 5 24 45 62 45 81 76 19 55 60 5 5 8 15 59 62 73 66 65 39 66 14 20 98 98 67
100 96 97 100 78 74 100 100 100 90 44 5 5 85 100 95 100 78 36 12 5 5 5 88 52 51 95 99 90 5 5 5 54 51 4 5 2 100 11 17 38 70 82 70 85 44 82 100 62 70 54 96 95 100
100 100 100 98 93 100 100 100 41 99 42 50 31 83 48 40 40 84 62 58 15 19 61 68 100 36 63 87 7 4 5 5 5 36 33 47 20 16 10 8 5 50 86 15 86 5 40 98 34 23 86 100 100 100
100 100 100 100 100 100 100 60 70 100 69 100 47 8 5 60 64 100 100 100 93 88 100 84 44 88 6 100 40 98 9 5 5 5 5 6 5 5 19 3 5 63 53 96 79 17 8 41 68 56 48 100 92 70
100 100 100 100 100 100 100 99 70 43 57 92 33 26 19 69 97 100 100 100 100 100 100 47 94 57 7 42 95 100 98 5 5 5 5 3 5 5 5 5 14 92 92 33 100 76 49 24 19 28 42 93 100 95
100 100 100 100 100 100 100 100 74 20 45 99 17 10 36 89 97 10 6 87 92 78 72 88 100 96 58 5 64 100 100 31 5 15 7 5 5 5 5 5 5 94 100 98 93 100 100 38 17 44 70 66 97 99
100 97 93 100 100 100 100 100 73 19 47 12 35 94 100 42 27 14 24 95 90 56 59 86 100 100 62 50 19 98 100 95 5 50 36 5 5 5 14 6 7 27 54 98 16 85 94 99 37 30 94 96 86 100
100 93 66 100 100 100 100 82 32 7 40 75 94 100 78 21 44 43 100 100 66 78 81 65 100 100 100 100 100 95 100 100 82 100 100 100 97 22 5 18 23 12 95 100 100 100 94 86 88 100 100 100 100 100
96 45 68 100 100 100 100 99 61 30 67 100 100 93 65 84 100 60 81 94 52 96 87 100 100 100 100 100 100 95 70 99 29 100 100 100 99 72 97 100 89 66 21 61 99 100 100 100 98 84 88 83 99 100
100 56 34 97 100 100 100 100 71 94 80 100 100 93 100 100 100 100 73 18 50 100 100 100 100 100 100 100 100 94 87 93 21 74 100 100 100 100 100 100 90 77 79 31 10 94 99 100 97 90 84 99 100 100
56 18 82 100 100 100 34 21 32 99 100 100 100 82 100 100 98 100 84 5 5 19 100 100 100 100 100 100 82 100 96 99 66 89 69 100 100 100 100 100 100 100 100 98 52 6 88 96 100 98 100 100 75 91
38 41 90 100 100 100 100 84 42 60 100 100 100 98 100 92 47 82 62 8 17 74 100 100 100 100 96 92 82 76 100 100 100 100 100 100 100 100 100 100 100 100 100 100 100 14 5 40 96 64 56 95 98 100
69 66 83 100 98 79 98 100 100 100 100 94 66 39 70 92 24 81 5 27 60 100 100 100 100 100 100 100 100 100 100 100 100 100 100 100 100 100 100 100 100 100 100 100 100 87 12 7 95 91 56 99 100 100
82 31 54 82 69 94 100 100 100 63 5 5 5 5 5 47 100 100 88 99 98 100 100 100 93 100 100 100 100 100 100 100 100 100 100 100 100 100 100 95 82 73 93 100 100 100 100 97 100 98 100 100 99 62
68 88 100 99 100 100 100 77 13 5 5 11 25 96 100 93 100 100 100 100 100 92 100 100 100 100 100 100 100 100 100 100 100 100 100 100 100 100 100 66 36 50 99 100 100 100 100 100 97 99 98 100 99 100
52 100 100 91 62 20 5 5 7 29 83 100 100 100 100 55 74 100 100 100 100 100 100 100 100 100 100 100 100 100 100 100 100 100 100 100 100 100 55 46 90 94 98 94 100 100 100 100 100 100 97 85 98 100

GFSWCAN_prec_cloud_084.txt.gz
Cloud_Cover
100 91 100 100 100 100 34 33 96 95 100 100 100 100 100 100 100 100 100 100 100 100 17 0 0 0 0 5 75 2 9 4 24 39 82 96 30 28 98 100 100 97 90 100 100 100 100 100 84 68 100 64 1 4
95 100 100 100 100 100 7 7 49 100 98 100 100 100 100 100 100 100 100 99 100 100 60 0 0 0 0 0 4 1 7 0 5 5 3 23 100 100 54 67 100 100 72 100 100 100 92 93 98 100 100 100 98 99
80 80 99 100 100 100 83 58 68 24 100 100 100 100 100 100 100 100 100 100 100 19 20 6 2 0 0 0 3 37 20 0 1 7 74 70 13 10 97 100 73 9 21 37 92 42 15 83 100 100 100 100 100 65
100 46 100 100 97 98 98 98 63 100 100 100 100 100 100 100 100 100 100 100 100 82 73 84 1 0 2 2 0 1 2 0 0 0 3 29 43 8 4 13 59 54 83 35 8 53 5 4 55 100 100 100 100 100
100 98 100 100 98 100 100 97 87 69 100 100 100 100 100 100 100 100 100 100 92 47 69 98 5 1 3 0 3 0 3 2 77 60 27 91 100 39 28 21 87 49 51 6 81 50 31 94 35 7 6 81 100 100
100 100 100 100 100 100 89 49 100 79 100 100 100 100 96 100 100 100 100 95 5 0 1 84 18 3 5 5 5 5 20 15 7 37 17 14 5 5 5 5 81 5 31 6 6 46 19 5 5 6 7 5 4 70
100 98 98 100 100 87 100 42 100 100 100 100 95 54 82 100 100 100 100 7 1 0 8 100 57 22 25 49 56 44 100 80 100 56 13 40 7 5 38 64 54 30 82 79 73 6 14 8 9 5 5 5 5 5
100 100 100 100 100 96 95 100 100 100 100 100 44 20 100 100 100 100 86 40 29 13 5 99 93 100 88 100 100 35 92 89 59 94 43 70 52 38 99 1 5 37 98 87 100 61 53 99 100 96 75 16 11 5
100 100 100 100 100 97 100 100 100 100 100 100 9 71 100 100 100 100 5 0 0 12 5 98 100 96 100 100 78 69 64 76 38 85 53 58 99 100 23 0 9 80 87 69 81 83 73 93 100 100 100 100 93 8
100 100 100 100 100 95 96 100 100 100 100 100 100 100 100 100 100 74 4 2 5 5 42 100 98 100 100 89 98 9 58 5 38 84 70 74 30 0 2 5 46 100 100 100 100 100 100 100 100 100 98 86 100 100
100 99 95 100 100 100 100 100 100 100 100 100 100 100 100 100 91 5 31 100 99 100 75 52 12 12 65 46 18 65 28 18 51 44 84 84 39 0 58 26 29 98 93 100 100 91 62 99 100 100 86 100 100 100
100 100 100 100 100 100 100 100 100 100 100 100 100 100 100 100 73 72 61 23 19 51 37 61 22 2 5 1 56 42 66 67 48 5 18 18 19 4 10 1 1 7 63 70 88 100 100 70 59 22 56 99 100 100
100 100 100 100 100 100 100 100 100 100 100 100 100 100 100 74 61 65 11 12 24 66 30 32 48 45 6 8 86 30 6 32 89 35 8 29 10 100 100 12 14 60 5 82 48 5 5 20 19 32 57 81 100 98
81 96 64 100 100 100 100 100 100 75 100 100 100 100 70 95 39 71 72 81 95 52 82 14 19 5 68 37 50 74 40 67 88 48 6 56 59 48 5 7 5 40 67 90 23 98 79 5 83 20 97 54 36 58
5 13 63 77 82 100 100 96 24 99 100 100 100 86 27 64 39 100 23 37 36 5 5 39 47 36 41 39 74 49 47 100 93 46 100 10 30 4 0 0 4 20 86 83 95 99 86 100 81 36 43 76 100 100
44 39 5 16 86 96 100 100 96 100 100 100 100 8 93 18 17 52 67 72 36 5 19 27 28 32 16 97 57 96 99 8 83 96 67 5 5 11 0 0 2 64 27 97 100 100 100 100 80 51 65 93 74 40
56 24 5 43 100 98 99 100 100 100 100 100 41 5 55 66 98 13 100 10 5 34 96 82 70 84 5 23 43 8 53 82 64 67 5 1 0 0 0 4 5 5 6 67 82 79 96 72 61 16 4 2 3 16
50 78 33 99 100 100 100 100 100 100 100 85 10 67 62 48 97 5 50 78 5 52 88 77 65 51 100 81 95 100 15 5 5 5 5 5 1 0 0 2 0 1 48 78 67 88 98 4 30 48 15 6 22 66
84 100 99 100 100 100 100 100 100 100 90 67 16 100 49 19 15 10 94 100 6 7 17 61 92 65 94 97 88 95 79 40 5 5 5 5 5 5 0 0 3 6 6 50 5 5 46 7 25 36 24 93 68 61
53 100 99 96 100 100 100 100 100 100 74 100 28 96 17 98 76 81 9 62 83 78 87 100 40 82 65 28 100 78 93 91 18 5 24 17 8 5 5 5 4 19 96 26 16 2 9 98 99 27 22 8 17 34
100 100 100 98 100 100 100 100 99 53 100 100 30 100 75 69 23 100 33 100 99 87 60 40 99 100 100 100 73 100 100 100 63 5 5 52 6 45 5 5 5 31 29 23 99 85 65 98 49 14 18 9 50 38
100 100 100 100 100 100 100 100 98 62 52 7 63 76 42 36 55 41 16 48 94 12 72 22 88 100 100 100 100 100 100 100 98 79 100 100 88 60 5 5 5 66 12 27 5 51 84 99 73 37 87 77 12 10
100 100 100 100 100 100 100 100 100 100 100 8 13 22 9 19 14 21 70 5 12 18 5 17 33 92 100 100 100 100 100 100 85 30 44 17 40 99 100 82 18 39 70 12 33 4 22 11 49 44 84 81 34 92
100 100 100 99 98 100 100 100 100 100 97 83 44 33 34 100 95 42 8 42 93 100 51 17 62 97 100 100 100 100 100 100 100 83 8 5 54 100 100 100 98 83 53 15 5 11 72 87 10 51 90 63 99 100
100 100 100 99 86 91 100 100 100 77 100 99 87 100 100 92 57 32 98 83 100 100 100 63 72 100 94 100 100 100 100 97 100 97 47 70 100 95 100 100 100 100 100 100 66 86 93 56 44 100 97 53 87 100
100 100 85 63 57 99 100 100 100 100 100 97 87 92 99 100 100 100 100 100 77 100 24 83 73 100 83 100 99 84 61 64 100 72 90 84 100 99 100 100 100 100 100 100 100 78 85 68 77 69 85 17 5 16
100 99 67 39 78 99 100 100 100 100 94 96 100 100 90 98 100 100 100 100 100 95 7 45 19 98 100 100 98 66 55 58 99 98 100 100 100 80 100 100 100 100 100 100 100 100 91 99 99 88 100 95 88 22
100 100 100 95 81 100 100 100 100 100 71 85 86 100 100 55 76 100 100 100 100 62 17 5 72 92 98 97 61 91 92 99 100 100 100 99 100 99 100 100 100 100 99 97 100 100 100 100 84 98 100 100 98 44
100 74 76 99 94 100 100 100 100 98 76 78 99 100 100 100 92 100 94 66 98 100 93 24 99 100 100 82 89 100 100 100 100 100 100 100 90 100 100 100 100 100 34 55 91 100 100 100 100 36 32 72 80 68
96 57 47 77 96 89 96 97 99 96 100 100 100 93 100 100 32 5 9 44 93 100 100 100 100 100 100 100 100 100 100 100 100 100 100 99 99 100 100 100 100 100 33 10 89 95 100 100 100 87 60 86 54 84
95 70 73 62 67 43 55 78 91 99 100 70 27 91 94 97 81 87 90 84 54 36 76 97 100 100 100 100 100 100 100 100 100 100 100 100 100 100 100 100 100 99 36 82 93 95 90 99 99 100 100 100 96 81
100 100 100 100 100 47 75 99 99 34 69 46 96 99 72 100 100 100 100 100 99 100 100 100 100 91 100 100 100 100 100 100 100 100 100 100 100 100 100 100 100 52 58 63 11 92 100 100 100 100 100 86 55 67
17 15 28 68 88 89 95 64 16 36 100 89 100 100 100 100 100 94 94 81 20 5 5 43 76 100 100 100 100 76 98 100 100 100 100 64 87 99 96 30 83 97 21 19 70 86 92 100 100 100 100 100 92 88

GFSWCAN_prec_cloud_087.txt.gz
Cloud_Cover
100 100 83 100 100 72 92 6 5 5 5 73 95 18 32 99 100 95 98 93 100 100 100 5 0 0 0 3 18 4 2 0 6 49 46 100 100 100 95 100 100 100 100 100 100 100 100 85 100 58 100 19 4 72
100 97 91 100 100 100 90 19 5 5 5 85 100 96 100 100 100 100 100 94 100 100 90 0 0 0 0 0 0 0 0 2 1 1 89 20 100 100 55 73 100 100 100 100 100 97 82 100 100 100 100 100 59 5
100 100 38 100 100 93 100 26 5 5 53 100 100 100 46 59 99 100 100 100 100 100 3 26 1 0 0 0 0 0 4 0 0 0 4 5 5 94 69 10 26 56 98 99 100 100 100 100 100 100 100 100 100 89
100 100 100 100 100 88 77 40 5 5 16 52 100 97 100 100 100 100 100 100 100 18 83 60 10 1 0 0 0 2 0 0 0 0 0 32 86 70 66 99 35 4 80 87 100 80 100 100 100 100 100 100 100 98
100 100 100 92 96 88 67 29 5 5 73 20 100 100 100 100 100 98 100 100 89 5 48 60 4 5 3 4 5 5 5 4 1 25 4 7 5 5 64 52 28 59 88 5 5 8 74 100 100 100 100 100 100 100
100 100 95 71 32 39 88 20 5 16 96 88 100 94 77 98 94 100 100 100 5 0 5 87 32 4 5 71 80 22 100 98 68 6 5 5 4 5 7 6 5 5 5 5 5 5 5 5 5 26 100 100 100 100
100 100 100 70 86 96 86 20 4 43 98 100 100 51 5 84 97 100 100 90 6 0 4 5 34 84 100 100 100 100 99 10 34 45 5 10 1 4 10 60 3 4 39 55 11 12 14 5 5 5 5 75 100 100
100 100 100 100 100 100 49 65 15 86 20 100 100 100 68 26 100 100 100 21 29 0 0 67 74 80 100 100 86 82 100 5 1 2 2 36 28 74 97 0 0 4 5 5 29 52 45 80 13 5 5 5 5 3
97 100 97 100 100 100 68 91 30 44 61 90 100 100 96 100 100 100 51 5 1 2 14 89 67 9 8 42 82 48 37 4 5 13 32 20 100 97 21 0 0 18 16 35 54 6 13 39 35 7 99 100 75 15
100 100 100 85 100 88 100 87 94 10 44 15 62 98 100 100 100 74 5 4 2 5 2 50 68 75 31 31 5 5 34 3 0 1 2 4 7 0 0 0 0 0 5 5 0 5 26 91 5 75 99 79 100 99
100 100 100 100 100 98 100 100 98 74 76 28 96 100 100 100 100 5 38 10 17 55 31 78 24 47 6 5 50 8 3 10 1 4 4 49 5 66 4 27 1 0 3 0 4 5 78 95 95 53 95 100 86 100
100 100 100 100 100 100 100 93 100 100 100 93 100 100 100 100 53 11 5 51 15 9 24 24 5 2 1 5 37 100 30 26 22 0 4 21 4 6 99 12 25 5 2 3 13 4 0 12 64 23 5 62 100 100
100 100 100 100 100 100 88 99 100 97 88 76 100 100 100 81 65 60 5 6 12 32 39 95 14 4 0 1 26 5 5 24 14 5 2 10 5 5 5 53 22 6 7 96 99 89 97 4 5 12 65 71 8 100
100 100 100 100 100 100 90 100 100 100 88 100 100 100 100 18 5 6 70 5 25 59 10 11 5 5 5 76 5 10 5 13 5 78 5 38 75 2 40 2 0 0 0 3 5 5 5 5 44 10 5 27 6 8
100 100 62 100 100 99 99 100 100 100 59 100 100 100 43 5 100 69 9 92 5 1 2 6 5 5 32 70 93 5 25 95 7 4 5 1 0 0 3 0 0 0 0 0 1 5 7 75 95 53 61 50 55 75
98 15 5 47 95 100 100 86 76 66 100 100 100 82 68 42 56 93 21 60 30 4 13 6 6 12 25 90 55 40 59 8 4 4 0 5 3 0 0 0 0 1 0 0 0 4 5 5 1 8 6 3 2 2
52 22 5 5 5 21 91 47 36 94 100 100 100 11 82 14 99 70 6 95 92 5 84 62 55 34 5 35 61 6 100 96 5 5 5 0 4 5 5 5 5 0 0 0 0 1 6 9 5 0 0 0 0 0
55 35 5 10 12 53 79 61 79 92 100 96 36 50 100 92 15 10 100 100 94 84 14 38 9 60 50 98 100 100 100 100 62 5 32 8 34 20 16 5 5 5 4 2 1 1 0 0 1 0 3 3 2 0
92 5 34 79 95 96 90 45 89 100 100 100 100 35 29 100 24 31 6 72 98 100 73 72 77 100 100 100 100 100 100 100 99 72 5 5 5 87 100 72 3 5 5 5 4 0 0 2 1 0 2 3 4 11
79 6 5 100 57 81 94 75 60 98 100 92 95 100 94 6 5 5 12 86 41 100 66 15 46 27 50 100 100 100 100 100 100 99 72 58 44 10 100 73 100 39 89 8 5 1 0 5 0 0 0 0 1 2
90 14 99 98 93 24 34 36 65 93 100 90 100 95 91 66 18 30 5 89 6 91 60 54 73 51 27 100 100 100 100 100 100 29 7 69 100 100 100 100 100 100 100 96 25 5 5 3 5 3 5 3 4 4
17 9 100 92 100 82 48 9 98 76 56 58 80 70 78 29 80 100 86 29 70 84 74 100 100 100 100 73 99 79 100 100 99 74 27 31 15 74 74 68 100 90 100 100 88 21 3 4 1 5 72 5 43 87
8 8 100 100 100 90 75 76 88 100 100 100 100 83 53 34 26 13 64 100 100 100 100 100 100 100 100 100 89 61 54 100 28 84 76 89 80 70 100 92 99 99 100 100 100 100 93 5 4 12 18 12 12 100
39 12 99 100 93 99 75 60 70 100 100 98 64 83 87 100 100 100 100 100 100 100 100 100 100 100 100 100 100 94 76 100 92 12 76 98 100 90 100 55 74 100 98 96 99 98 100 100 73 82 52 62 98 5
100 59 90 100 95 74 56 78 100 100 90 76 100 73 100 47 100 100 100 100 100 100 100 100 100 100 100 76 99 81 100 100 100 97 64 100 94 100 100 100 62 100 100 98 68 99 100 92 83 67 47 5 5 3
86 38 66 100 98 69 60 77 99 100 100 100 99 45 95 100 100 100 100 100 100 100 100 100 99 100 51 72 100 100 100 99 44 70 100 100 100 100 100 92 99 85 99 100 74 76 85 93 9 87 8 5 5 7
100 26 92 53 77 70 95 88 95 100 100 100 96 95 100 100 100 100 100 100 100 94 99 100 100 90 100 100 100 100 100 100 100 100 100 100 100 100 100 100 100 100 100 100 50 47 68 100 86 45 36 93 5 46
34 20 72 88 97 98 93 92 100 100 100 100 79 48 88 58 83 100 100 100 100 100 100 100 100 89 50 100 91 94 100 100 100 100 100 100 100 100 100 100 100 100 100 100 48 5 64 95 100 94 85 8 5 33
31 100 100 98 92 98 99 100 100 100 100 100 91 100 84 96 100 100 100 100 93 63 92 97 100 100 100 100 100 100 100 100 100 100 100 100 100 100 100 100 100 100 100 60 5 68 89 94 100 100 99 10 3 4
100 100 93 86 96 100 99 100 100 100 91 100 96 100 100 96 99 100 100 98 16 26 81 99 100 100 100 100 100 100 100 99 100 100 100 100 100 100 100 100 100 99 29 30 55 58 55 76 100 100 100 68 49 99
100 84 92 77 88 74 67 56 48 81 43 98 100 94 66 7 19 85 100 97 96 75 90 99 100 100 100 100 100 100 100 100 49 44 82 100 100 86 78 67 34 14 13 18 75 5 6 28 100 92 100 99 100 71
100 100 100 92 99 98 98 87 22 100 100 96 20 93 100 100 100 46 100 81 100 100 100 100 100 100 100 100 100 100 100 47 69 86 67 44 5 25 64 81 5 5 6 60 47 7 93 98 92 100 100 100 100 100
74 74 7 10 22 65 87 98 99 100 91 50 100 100 100 96 98 100 100 100 100 98 95 86 62 41 11 75 99 38 33 10 6 5 5 5 5 15 67 92 33 5 41 56 48 6 18 84 82 100 100 97 100 97

GFSWCAN_prec_cloud_090.txt.gz
Cloud_Cover
100 100 100 100 34 100 100 100 7 1 4 5 6 86 97 6 66 100 100 100 100 100 100 7 0 0 0 0 0 0 0 0 0 92 65 100 100 100 100 100 100 93 67 100 100 100 100 100 100 88 58 24 58 39
100 100 100 99 96 100 100 100 38 4 5 4 14 44 80 9 46 100 100 100 100 100 90 0 0 0 0 0 0 0 0 0 0 0 3 6 99 100 100 100 100 58 11 52 100 100 100 100 100 100 100 100 68 20
100 100 100 100 100 100 100 100 46 4 5 5 59 6 54 39 100 100 100 100 100 83 4 0 0 5 0 0 0 0 0 0 0 0 0 0 31 82 100 100 100 100 89 67 4 96 100 100 100 100 85 18 53 100
100 100 100 100 95 99 89 100 52 1 5 5 8 5 89 81 100 100 100 100 74 28 2 2 10 3 2 0 1 0 3 5 0 0 0 0 0 2 14 72 100 100 100 100 100 82 75 100 100 100 100 100 100 86
100 100 100 100 95 95 30 100 30 5 5 25 14 49 35 88 70 44 79 92 91 0 3 24 4 3 5 25 18 99 82 71 10 1 5 1 5 5 5 4 16 100 100 94 100 100 99 100 100 100 100 91 88 80
100 100 100 100 43 76 75 98 4 5 5 14 12 5 5 9 9 5 70 100 11 0 5 5 17 75 100 88 100 100 100 5 9 6 5 11 4 5 56 99 25 5 6 8 14 93 100 100 100 100 100 39 54 100
100 100 100 99 99 94 81 73 5 5 5 27 35 5 5 82 28 5 100 64 0 2 5 33 62 54 10 80 59 35 16 14 31 6 0 0 0 1 18 39 0 4 5 5 62 77 28 94 100 100 100 100 100 64
100 100 100 100 100 100 99 9 5 75 5 29 84 5 7 62 5 84 100 5 0 0 3 4 96 5 5 60 84 4 0 0 0 0 0 0 0 69 82 3 0 0 4 4 4 5 6 67 91 99 100 100 100 100
100 100 100 100 89 73 93 1 5 99 17 5 47 5 27 97 79 100 54 0 5 0 0 3 64 5 5 23 65 3 0 0 0 0 0 2 94 47 0 0 0 0 0 0 2 1 0 1 1 37 57 62 48 13
100 100 100 100 100 100 7 19 100 26 26 100 6 29 99 100 99 97 4 4 0 0 0 68 6 45 5 5 5 4 0 0 0 0 0 4 10 0 0 0 0 0 0 0 0 0 0 0 0 0 0 25 100 70
100 100 100 100 100 22 5 56 6 51 100 44 16 69 90 100 100 5 0 4 0 0 0 3 5 5 4 40 5 4 4 5 0 0 0 2 0 0 1 0 5 0 0 0 1 0 2 0 0 0 3 5 15 43
100 100 100 100 93 94 99 31 24 98 100 89 74 58 100 100 61 5 4 7 3 4 5 4 5 4 4 0 0 24 67 2 5 1 0 18 0 0 0 0 0 0 0 0 21 89 13 5 27 1 0 0 4 27
100 100 100 100 100 100 100 11 5 29 52 80 99 81 100 100 7 5 5 5 4 3 17 5 93 5 5 5 5 5 4 4 5 5 4 0 4 4 0 3 0 0 0 0 0 0 1 5 2 5 5 5 5 4
100 100 100 100 100 84 95 5 40 30 100 100 82 100 100 28 5 5 5 5 5 3 5 5 5 5 56 100 98 42 9 5 8 5 5 5 5 4 0 0 0 0 0 0 0 2 4 5 5 5 5 5 5 7
100 100 98 100 100 100 97 100 83 67 100 100 100 100 93 7 5 8 22 9 4 5 5 5 5 5 5 55 100 100 65 34 6 5 5 8 56 5 4 0 5 5 1 0 0 0 0 2 5 5 5 5 5 80
100 75 62 47 90 100 100 100 100 89 94 97 100 100 64 5 88 8 16 5 18 65 12 5 5 5 8 100 100 100 85 99 54 5 5 27 99 95 25 37 68 92 28 5 3 0 0 0 0 0 0 0 0 0
71 100 24 0 4 65 98 100 91 96 98 100 100 100 80 34 28 97 97 11 84 46 37 7 71 56 5 27 92 100 83 32 21 5 22 5 6 38 38 15 5 5 5 5 5 5 0 0 0 0 0 0 0 0
99 72 5 5 5 6 5 67 100 80 97 100 100 39 5 5 34 5 5 16 12 69 40 91 84 21 28 92 97 98 100 92 5 36 35 66 5 7 5 13 27 34 98 100 43 9 5 2 0 0 0 0 0 0
71 52 5 5 29 59 59 99 86 90 100 100 100 100 53 70 49 100 60 85 65 88 88 18 76 100 100 100 100 94 100 96 90 100 29 18 85 97 52 91 87 52 99 100 92 96 6 23 4 0 0 0 0 2
82 40 5 5 5 5 42 99 66 66 94 100 100 100 100 9 16 23 34 22 5 5 21 75 100 100 55 100 81 100 100 94 100 55 5 26 5 7 26 98 61 76 61 100 100 100 98 100 100 44 1 0 0 4
70 5 26 5 16 29 26 73 87 45 100 96 89 99 100 50 49 62 13 16 41 76 100 100 100 100 77 100 96 100 100 42 99 81 34 63 5 62 62 99 100 100 26 87 100 100 100 61 35 25 5 0 1 5
10 22 49 10 48 95 99 70 73 94 30 97 64 68 64 41 40 10 5 56 100 100 100 100 100 100 100 100 100 100 100 72 100 65 99 24 5 10 54 98 100 100 64 100 100 100 100 100 31 59 13 6 5 4
7 24 8 26 90 84 100 93 51 99 92 96 100 100 100 27 6 11 44 93 100 100 100 100 100 100 100 100 100 100 100 100 82 64 82 44 67 88 99 100 100 100 100 100 100 100 100 100 40 5 5 6 5 3
90 84 34 52 97 99 100 100 100 100 100 100 100 100 46 5 5 5 11 42 98 100 100 100 100 100 100 100 100 100 100 100 100 99 38 15 26 100 100 100 100 100 100 100 100 100 100 100 86 86 9 24 5 5
100 98 46 99 100 90 99 100 100 95 100 100 100 100 97 46 61 98 100 100 100 100 100 100 100 100 100 100 100 100 100 100 100 100 100 89 100 100 100 100 100 100 100 100 100 100 100 100 87 92 77 25 5 5
100 95 51 16 98 89 65 91 100 100 100 100 100 100 98 65 65 100 100 100 100 98 100 100 99 100 100 100 100 98 75 88 96 100 100 100 100 100 100 100 100 100 100 100 100 100 92 47 43 18 5 5 5 5
100 21 8 28 84 96 66 49 93 90 100 100 87 71 68 61 100 100 100 100 100 100 100 100 100 99 100 100 100 100 100 100 100 100 100 100 100 100 100 100 100 100 100 100 76 48 50 22 24 57 72 53 5 5
9 5 44 64 50 97 97 100 82 39 100 92 100 100 100 91 100 100 100 100 100 100 100 99 97 100 100 100 100 100 100 100 100 100 100 100 100 98 97 100 100 100 97 36 6 8 24 87 100 96 49 68 6 5
5 5 17 84 95 100 78 49 92 50 100 100 100 100 100 100 100 83 93 99 100 100 99 99 100 100 77 99 100 100 100 100 100 100 100 90 27 78 100 100 100 65 97 8 18 17 56 78 69 89 100 90 36 96
5 74 73 67 88 97 79 41 60 93 100 100 100 98 69 33 26 15 77 100 100 100 100 90 96 100 99 100 100 100 100 100 100 99 100 60 55 85 99 15 5 65 52 5 23 38 42 75 86 96 100 100 99 100
19 38 98 43 80 92 80 52 77 100 100 78 99 99 90 90 92 46 64 42 72 57 34 65 99 68 100 100 100 100 100 85 76 59 18 98 78 29 23 5 5 5 5 5 5 45 98 89 100 100 99 94 37 89
99 95 73 92 100 94 100 98 98 100 99 100 100 100 100 96 97 100 84 9 7 43 84 85 95 95 95 100 100 100 100 100 63 6 5 5 5 4 0 5 27 37 62 50 35 67 79 71 73 82 93 16 68 63
98 100 100 91 94 98 96 81 52 50 67 61 64 86 100 76 33 23 16 52 50 14 23 34 37 26 46 86 70 91 94 98 39 5 5 0 0 2 5 5 7 90 100 78 96 99 95 100 100 100 100 99 100 98

GFSWCAN_prec_cloud_093.txt.gz
Cloud_Cover
100 100 100 100 77 92 100 100 100 21 3 3 3 3 5 5 13 99 42 96 99 100 100 44 0 0 0 0 0 0 0 0 0 1 72 100 100 100 100 100 100 100 92 98 96 100 100 100 100 97 100 100 92 44
100 100 100 100 99 99 100 100 100 29 4 5 5 5 5 38 93 100 97 88 95 91 89 0 0 3 0 0 0 0 0 0 0 0 0 24 87 100 95 100 100 100 100 100 66 98 100 100 92 100 100 100 100 100
100 100 100 100 100 100 100 100 100 42 4 5 5 5 43 92 100 100 100 93 100 39 2 0 0 0 0 0 0 0 0 0 0 0 0 0 0 3 94 100 80 100 100 100 100 100 100 100 100 100 100 100 100 100
100 100 100 100 100 100 100 98 100 30 4 2 4 5 5 82 99 100 94 82 37 5 0 0 1 2 0 2 6 47 8 24 6 5 2 0 0 0 1 26 100 90 83 99 10 100 100 100 100 100 100 100 100 100
100 100 100 100 100 100 100 96 100 7 5 5 5 6 6 92 90 52 5 5 24 0 0 1 4 5 41 96 32 70 100 100 100 67 53 31 4 0 3 1 40 100 100 100 91 5 81 100 100 100 100 100 100 75
100 100 100 100 100 100 100 100 89 10 5 5 5 5 47 8 24 5 3 5 5 0 1 4 18 48 5 2 4 6 44 66 14 5 5 2 5 24 5 8 5 6 83 100 98 97 74 30 13 100 100 100 100 100
100 100 100 100 100 100 100 100 53 5 5 13 99 5 23 5 54 8 3 35 0 0 4 6 8 8 5 5 2 2 0 0 0 0 0 0 0 6 21 25 5 5 4 5 11 84 100 100 13 3 30 100 100 100
100 100 100 100 100 100 100 100 5 5 5 16 55 70 5 7 98 39 79 3 1 0 4 4 5 5 5 19 94 5 1 0 0 0 0 0 6 95 50 0 0 0 0 0 0 2 14 56 64 71 34 15 7 96
100 100 100 100 100 100 100 28 5 5 5 5 20 94 17 32 100 99 78 0 0 0 2 0 0 5 5 16 62 3 0 0 0 0 0 0 88 35 0 0 0 0 0 0 0 0 0 0 2 30 88 90 59 57
100 100 100 100 100 100 88 5 5 6 5 5 85 59 47 83 100 100 50 0 0 0 0 0 5 5 3 4 5 1 0 0 0 0 0 4 17 0 0 0 0 0 0 0 0 0 0 0 0 0 0 0 3 94
100 100 100 100 100 100 5 29 5 10 5 38 91 60 95 100 100 100 29 0 0 0 0 0 2 4 5 43 90 5 0 3 0 0 0 0 1 0 0 0 0 0 0 0 0 0 0 0 0 0 0 0 0 1
100 100 100 100 85 51 74 13 5 5 5 66 88 71 100 100 100 100 4 0 0 0 2 0 4 5 3 8 4 5 29 0 2 0 4 5 1 1 1 0 0 0 0 0 0 0 2 2 0 4 5 0 0 0
100 100 100 100 100 82 76 9 25 5 56 57 34 100 100 100 100 38 0 2 1 0 0 5 92 7 4 5 42 5 4 0 4 16 5 5 6 5 6 6 5 2 2 0 0 0 0 0 0 0 0 0 0 0
100 100 100 100 100 100 100 100 70 58 67 63 100 100 100 100 98 5 0 5 4 0 5 4 5 5 5 23 32 5 4 4 4 1 5 23 66 89 40 20 5 5 5 4 1 0 0 0 1 1 1 5 1 0
100 100 100 100 100 100 100 87 89 100 92 81 100 100 100 100 6 5 1 1 1 5 5 5 5 5 5 5 5 15 5 5 5 5 5 8 5 5 16 6 5 5 6 51 14 5 3 0 0 0 0 0 0 0
100 100 100 100 100 100 100 96 99 100 90 94 100 89 100 100 48 5 5 5 5 5 5 6 11 72 91 13 9 5 5 20 61 5 5 5 15 14 34 5 5 5 5 4 13 6 24 10 4 1 0 0 0 0
100 100 100 100 100 97 75 96 100 100 100 100 85 97 100 93 66 99 84 78 87 17 75 74 71 100 100 49 37 96 55 70 69 31 49 6 41 17 10 6 5 5 5 5 9 5 45 98 9 27 10 5 4 1
100 100 100 100 97 5 27 81 92 99 100 100 89 84 100 35 5 5 47 7 26 81 56 68 76 100 100 37 37 100 100 99 35 35 48 60 94 15 7 6 5 5 5 93 100 79 100 100 100 34 24 5 5 1
100 100 100 78 9 40 62 5 25 99 100 85 86 87 81 100 60 14 5 5 72 18 8 79 67 97 100 86 99 100 100 100 100 70 53 75 74 73 44 10 5 5 89 100 89 9 100 100 100 100 72 7 5 4
100 100 98 58 11 65 86 55 95 100 100 89 71 78 100 100 33 7 5 55 10 8 11 5 98 24 100 100 94 92 30 100 100 100 100 78 53 88 47 56 90 12 77 100 100 96 100 100 100 100 72 50 5 2
100 100 90 9 7 8 80 100 86 100 99 57 61 88 100 100 100 22 5 5 9 87 5 51 56 97 100 79 93 96 14 100 100 100 100 100 100 100 100 100 100 98 34 100 100 100 100 100 100 100 50 5 3 5
100 100 87 50 54 11 67 98 97 100 100 95 98 100 100 99 64 5 5 5 2 5 37 66 66 100 91 95 48 100 86 100 100 100 96 100 100 100 100 100 100 100 95 100 100 100 100 100 100 46 5 5 0 0
100 74 58 15 86 71 100 100 96 100 100 100 100 81 99 100 100 52 5 5 5 5 61 100 93 99 53 71 99 100 100 100 100 100 100 100 100 100 100 100 100 100 100 100 100 100 100 100 45 5 5 5 0 2
100 99 82 5 44 77 100 100 100 100 100 100 99 100 91 100 100 46 5 40 11 56 55 33 97 100 100 100 96 100 100 100 100 100 100 100 100 100 100 100 100 99 100 100 100 100 100 10 5 5 48 69 22 5
86 53 81 99 86 100 100 100 100 100 100 100 89 57 100 100 46 5 5 8 88 57 86 9 100 100 100 100 100 100 100 100 100 35 100 84 95 100 100 100 100 100 100 100 100 100 100 20 5 27 66 84 100 68
96 54 51 11 5 51 100 100 100 100 100 72 45 76 99 52 64 44 43 88 22 72 81 96 99 100 100 99 100 100 100 100 100 100 100 98 100 100 100 100 100 99 100 100 100 97 22 11 28 57 97 86 89 10
100 70 12 9 57 42 88 100 100 100 97 100 98 49 100 100 26 98 87 97 100 90 48 44 99 80 78 99 100 100 100 100 100 100 100 100 100 100 100 70 68 100 100 100 100 100 100 72 63 64 52 21 16 6
56 5 28 72 81 100 96 89 100 100 84 100 100 100 100 100 96 47 8 17 92 100 100 98 90 80 19 19 76 100 100 100 100 100 100 100 100 58 31 18 94 71 99 100 88 100 92 99 26 36 5 5 31 5
26 5 31 97 36 45 97 100 100 97 46 27 98 98 78 100 100 100 98 100 100 100 100 100 100 100 100 100 100 100 100 100 100 100 96 69 29 22 35 73 40 5 5 11 5 5 8 58 100 60 22 48 93 87
5 5 5 22 100 100 98 99 64 54 95 80 84 100 100 100 100 100 100 99 100 100 100 100 100 100 100 100 99 97 72 42 21 16 14 22 4 3 6 8 35 5 5 37 23 13 64 100 100 75 36 47 39 80
27 5 39 91 94 99 100 98 100 100 97 87 95 93 84 79 41 25 51 60 81 62 81 96 78 61 38 52 94 88 30 78 82 40 7 5 0 0 5 5 5 5 5 15 73 64 91 100 98 63 90 65 89 63
90 100 100 100 94 98 99 75 55 74 53 49 85 97 100 97 78 100 95 98 99 75 41 14 54 86 45 7 50 94 100 100 100 42 1 0 1 5 5 5 5 5 5 5 5 71 100 100 100 95 91 22 87 100
100 99 100 100 100 100 95 79 34 38 12 31 41 28 68 85 86 99 96 100 100 100 100 86 63 32 94 90 44 67 88 73 56 4 0 2 3 5 5 5 5 66 5 6 16 58 86 98 100 93 63 78 70 53

GFSWCAN_prec_cloud_099.txt.gz
Cloud_Cover
79 100 100 100 100 100 100 100 100 100 100 85 88 30 44 2 4 1 1 5 7 90 29 5 5 0 0 0 0 0 0 0 0 0 0 0 88 100 96 75 100 100 100 94 100 90 16 21 65 98 100 10 11 75
100 94 39 100 89 98 100 100 100 100 100 100 71 95 99 2 5 5 5 21 90 97 67 14 1 0 0 0 4 5 56 91 40 4 0 0 0 19 100 100 100 100 100 100 100 100 82 5 5 89 97 100 88 65
100 90 79 100 100 100 92 100 100 100 100 100 47 95 94 49 5 5 58 92 100 100 69 1 0 0 0 1 5 44 70 19 5 87 41 26 0 0 9 100 100 100 100 100 100 95 100 70 74 34 100 100 100 100
100 100 100 100 100 100 100 100 100 100 100 100 95 70 20 98 56 68 65 27 6 2 0 0 0 0 0 2 2 0 0 4 19 83 100 100 35 3 0 2 98 100 100 100 100 100 100 83 99 100 100 100 100 100
100 100 100 100 100 100 100 100 100 100 100 100 100 100 93 73 62 94 12 7 3 0 0 0 0 2 0 0 0 0 0 0 2 7 100 84 100 5 5 0 0 45 100 100 100 100 100 100 100 91 100 100 97 100
100 100 100 100 100 100 100 100 100 100 100 100 100 100 92 100 38 30 5 5 4 0 0 0 2 0 2 5 0 0 0 0 0 0 0 2 0 0 0 0 0 0 0 83 100 100 100 100 100 100 100 100 82 100
100 100 100 100 100 100 100 100 100 100 100 100 100 100 19 100 37 48 5 5 3 0 0 1 2 0 4 5 5 0 0 0 0 0 0 0 1 0 0 0 0 0 0 0 22 100 100 100 100 100 100 100 100 82
100 100 100 100 100 100 100 100 100 100 100 100 100 100 100 94 32 20 49 6 4 0 0 1 0 0 1 5 4 0 0 0 0 0 0 0 0 4 76 0 0 0 0 0 0 1 31 100 100 100 100 100 100 100
100 100 100 100 100 100 100 100 100 100 100 100 100 100 100 75 100 19 88 44 5 0 1 0 0 0 0 5 5 1 0 0 0 0 0 0 37 99 1 0 0 0 0 0 0 0 0 0 5 5 58 100 100 100
100 100 100 100 100 100 100 100 100 100 100 100 100 100 100 91 72 6 86 72 5 0 0 0 0 0 1 1 2 5 0 2 0 1 0 4 8 0 1 0 0 0 0 0 0 0 0 0 0 0 0 0 8 98
100 100 100 100 100 100 100 100 100 100 100 100 100 100 100 100 12 17 50 74 5 5 0 0 0 0 0 0 10 4 4 3 5 5 5 5 5 5 31 5 30 67 62 39 35 13 0 0 0 0 0 0 0 0
100 100 100 100 100 100 100 100 100 100 100 100 100 100 100 100 38 23 100 27 6 5 0 0 3 2 2 0 0 3 0 4 5 5 5 5 7 5 11 5 5 13 5 15 20 23 44 98 65 14 4 0 0 0
100 100 100 100 100 100 100 100 100 100 100 100 100 100 100 76 99 86 99 9 10 5 3 2 5 5 5 2 0 1 4 5 5 6 11 26 93 93 98 96 98 94 73 51 22 5 4 4 3 5 8 5 0 0
100 100 100 100 100 100 100 100 100 100 100 100 100 100 80 72 100 100 28 49 17 5 5 5 5 5 5 5 8 26 33 7 38 68 85 99 77 70 82 74 86 71 46 55 77 62 19 60 17 6 5 5 21 25
100 100 100 100 100 100 100 100 100 100 100 100 100 75 14 83 99 96 76 60 43 5 5 2 5 18 19 5 5 28 99 100 100 99 41 40 22 16 10 6 10 6 46 80 56 56 25 20 88 100 65 65 96 66
100 100 100 100 100 100 100 100 100 100 100 100 84 92 50 74 95 100 100 52 28 6 5 5 5 7 49 9 29 5 5 5 27 100 100 84 100 99 95 73 54 34 13 6 27 51 100 76 50 71 95 100 100 100
100 100 100 100 100 100 100 100 100 100 100 82 100 98 68 6 89 100 100 100 86 5 5 5 5 5 22 77 46 43 6 5 5 5 100 100 100 100 100 100 100 92 76 29 29 21 100 95 100 33 61 10 86 100
100 100 100 100 100 100 100 100 100 100 100 100 96 62 52 5 87 100 100 100 89 78 75 62 44 32 13 39 71 99 82 16 5 20 72 36 71 100 100 100 100 100 57 9 42 100 96 98 100 100 84 50 7 83
100 100 100 100 100 100 100 100 65 88 98 98 92 74 87 98 78 95 100 100 94 25 34 74 91 40 15 5 5 5 18 66 57 44 93 99 75 7 99 100 100 95 97 27 28 32 84 100 100 100 100 100 8 72
100 100 100 100 100 100 100 28 8 58 54 21 29 88 100 100 98 73 100 100 100 58 15 5 5 5 5 5 8 16 46 34 8 76 100 99 94 99 100 100 100 99 54 29 95 74 47 99 100 100 100 100 69 97
100 100 100 100 99 80 64 53 37 49 23 26 5 43 97 100 99 100 92 100 100 39 25 5 5 5 5 5 5 65 100 80 11 7 42 100 95 100 97 100 100 100 100 100 100 100 11 99 100 100 100 100 68 100
100 100 100 100 100 94 88 79 39 58 27 74 94 85 100 100 80 99 97 100 100 58 14 7 5 5 5 5 31 96 100 94 98 100 100 100 65 99 100 100 100 100 100 100 100 100 100 100 100 100 100 59 100 93
100 100 100 100 99 100 87 12 29 25 5 8 38 100 76 100 100 72 100 100 99 96 55 18 5 5 5 19 82 96 99 91 98 99 100 100 100 93 100 100 100 100 100 100 100 100 100 100 100 100 97 100 58 5
100 100 100 100 100 71 49 33 27 7 38 58 81 88 100 100 98 100 100 91 92 51 49 5 5 5 38 98 100 100 100 99 70 96 100 100 100 100 100 100 100 100 100 100 100 100 100 100 100 92 24 6 5 4
100 92 100 99 69 79 31 44 48 100 100 100 100 100 99 100 100 100 92 100 98 74 11 60 89 51 47 50 98 100 98 88 98 100 100 100 100 100 100 100 100 100 100 100 100 100 100 100 88 4 5 3 5 5
100 98 85 59 28 25 100 26 92 100 100 100 100 100 100 100 100 100 91 86 98 80 99 83 100 100 100 99 49 48 94 100 100 100 100 100 100 100 100 100 100 100 100 100 100 82 40 0 4 5 4 5 5 29
70 100 60 5 73 50 8 68 100 99 100 100 100 100 100 86 84 95 100 97 99 100 80 85 100 100 100 98 100 100 100 90 94 100 100 100 100 100 100 100 100 96 73 18 5 5 5 1 0 1 5 5 5 46
54 60 28 37 23 99 66 31 51 100 100 100 100 100 100 100 100 100 100 99 100 100 100 100 100 100 100 99 100 100 100 100 100 100 100 100 100 100 100 76 7 5 5 5 5 5 4 0 0 4 7 6 21 34
77 60 62 17 14 48 86 99 73 100 100 100 95 100 100 100 100 100 100 100 100 100 88 66 92 100 100 100 99 100 99 100 100 100 100 100 97 48 5 5 4 0 3 1 3 2 4 3 6 5 12 26 39 46
46 5 19 5 5 5 5 66 72 84 80 96 87 88 98 100 100 100 100 100 100 100 100 100 100 100 100 54 94 100 94 75 72 97 70 13 5 17 13 6 0 1 4 5 5 5 5 5 5 5 5 5 51 90
99 60 5 5 17 50 52 81 92 100 99 97 98 96 100 100 100 100 100 100 100 100 100 100 100 99 65 20 22 32 43 28 11 11 7 5 5 5 5 5 4 5 28 50 10 5 6 13 5 5 5 5 5 87
38 67 25 72 98 100 100 100 100 100 100 92 82 97 100 100 100 100 100 84 88 100 94 58 8 5 3 0 0 0 5 5 5 40 8 1 5 5 46 52 52 48 8 40 77 83 21 48 55 13 5 5 5 21
51 78 100 100 100 100 100 100 98 97 88 64 87 93 86 88 100 96 31 4 1 2 5 5 3 0 0 2 6 4 5 5 5 30 20 5 5 10 99 100 92 59 36 73 100 100 100 73 62 53 8 5 5 5

GFSWCAN_prec_cloud_102.txt.gz
Cloud_Cover
25 95 100 100 58 29 71 100 99 58 97 100 57 42 6 97 40 11 5 5 5 5 31 18 33 34 0 0 0 0 0 2 3 5 4 5 4 28 95 82 68 86 100 100 92 100 100 5 5 9 6 5 57 83
100 65 100 89 93 96 100 96 100 99 100 100 76 96 98 100 100 99 8 10 14 84 38 41 5 0 0 0 0 0 4 2 5 5 5 5 1 0 1 82 91 82 90 100 27 90 46 10 2 5 5 38 5 66
100 100 96 100 100 100 100 98 88 100 100 100 98 100 100 100 20 76 36 23 5 38 41 7 1 0 0 0 0 0 0 0 0 0 4 46 91 5 0 5 98 97 100 87 95 43 100 29 4 5 5 5 45 86
81 99 100 100 100 99 100 100 98 100 100 100 100 100 96 100 100 100 100 90 5 16 5 4 0 0 0 0 0 0 0 0 0 4 50 91 100 97 2 2 2 100 100 82 90 85 93 100 79 9 5 69 99 70
94 100 100 100 99 100 100 100 100 100 100 100 100 100 100 100 100 100 100 77 8 12 5 5 0 0 0 0 0 0 0 0 0 4 3 45 79 30 83 3 5 1 76 95 100 94 22 100 100 83 39 77 69 100
70 98 100 100 100 100 100 100 100 100 100 100 100 100 100 100 100 100 94 90 32 9 5 2 0 0 0 0 3 0 0 0 0 5 3 0 0 2 6 5 5 0 0 4 100 98 61 24 100 100 100 100 98 70
73 100 80 46 95 100 100 100 100 100 100 100 100 100 100 100 100 100 100 78 46 12 5 4 4 0 0 1 5 2 0 0 0 0 0 0 0 0 0 2 0 0 0 0 0 22 95 6 5 90 100 100 70 98
55 95 99 98 78 100 100 100 100 100 100 100 100 100 100 100 100 100 100 81 48 9 5 5 9 0 0 9 76 0 1 0 0 0 0 0 0 0 75 0 0 0 0 0 0 0 0 76 20 8 57 100 100 100
100 100 100 100 99 100 100 100 100 100 100 100 100 100 100 100 100 100 94 87 55 12 10 5 19 55 0 3 4 3 0 5 0 1 0 0 29 99 1 0 0 0 0 0 0 0 0 0 6 38 6 7 99 92
100 100 100 100 100 100 100 100 100 100 100 100 100 100 100 100 100 100 41 99 84 6 5 2 4 5 2 0 30 3 3 5 5 3 5 5 9 6 5 6 5 3 1 0 0 0 0 0 0 0 2 5 13 28
100 100 100 100 100 100 100 100 100 100 100 100 100 100 100 100 100 100 92 90 37 31 5 2 3 4 0 11 74 2 5 2 5 5 5 6 5 5 5 5 5 5 5 5 5 0 0 0 0 0 0 0 0 0
100 100 100 100 100 100 100 100 100 100 100 100 100 100 100 100 100 100 89 97 38 46 9 5 1 5 0 1 5 4 7 1 5 14 62 58 6 24 68 88 94 94 85 82 53 14 4 3 2 2 2 0 0 0
100 100 100 100 100 100 100 100 100 100 100 100 100 100 100 100 100 100 99 92 78 35 10 5 2 0 4 5 3 2 5 5 5 19 70 77 53 64 47 64 54 29 7 10 87 48 25 16 10 5 4 1 0 1
100 100 100 100 100 100 100 100 100 100 100 100 100 100 100 100 100 86 96 61 90 43 42 5 5 4 5 5 5 5 5 39 6 5 5 5 5 7 35 56 87 70 14 13 10 82 74 94 98 88 42 6 5 20
100 100 100 100 100 100 100 100 100 100 100 100 100 100 100 100 100 97 78 62 99 89 55 8 5 5 5 5 6 6 5 5 21 59 53 94 95 51 98 36 54 83 22 5 5 5 5 5 5 14 52 15 15 5
100 100 100 100 100 100 100 100 100 100 100 100 100 100 100 100 100 64 99 98 66 94 69 7 25 20 7 5 16 28 5 5 50 5 5 20 90 89 100 100 100 100 4 5 5 5 5 5 5 5 5 48 69 5
100 100 100 100 100 100 100 100 100 100 100 100 100 100 100 100 96 45 100 100 100 91 50 12 25 12 22 5 5 5 34 79 72 75 40 5 15 6 5 92 100 100 99 10 14 30 5 5 4 5 4 5 71 33
100 100 100 100 100 100 100 100 100 100 100 100 100 100 100 87 76 5 72 100 100 87 100 86 45 5 5 5 5 8 26 59 66 37 20 7 14 68 46 23 7 96 100 100 100 100 100 56 5 5 5 5 81 100
100 100 100 100 100 100 100 100 100 100 100 100 100 100 91 98 100 15 5 80 100 100 100 99 88 5 5 5 5 64 100 82 88 96 92 52 6 16 35 88 88 100 100 100 100 100 100 100 42 64 30 52 94 100
100 100 100 100 100 100 100 100 100 100 100 100 82 74 94 99 98 100 59 72 100 100 100 100 66 68 82 71 95 100 97 66 60 94 85 35 23 47 99 100 98 85 100 100 100 100 100 100 100 98 100 100 100 100
100 100 100 100 100 100 100 100 100 100 94 51 47 18 63 64 95 100 100 56 60 100 100 96 46 70 52 32 7 38 5 5 6 37 58 95 100 100 100 100 95 100 100 100 100 100 100 100 100 100 99 100 100 100
100 100 100 100 100 100 100 100 81 80 99 85 14 5 12 45 83 90 91 83 100 100 100 96 95 91 79 8 8 5 5 4 5 16 72 100 76 82 86 100 98 100 100 100 100 100 100 100 100 100 100 100 100 100
100 100 100 100 100 100 100 78 62 60 87 18 7 79 63 5 33 26 86 100 100 100 100 100 100 100 48 5 5 5 5 5 7 41 100 100 100 100 100 100 100 100 100 100 100 100 100 100 100 100 100 100 100 100
100 100 100 100 100 100 99 84 58 68 83 73 88 64 96 96 100 100 100 93 96 100 100 100 69 79 100 84 11 5 6 5 54 71 74 100 100 100 100 100 100 100 100 100 100 100 100 100 100 100 100 62 27 74
100 100 97 100 99 72 50 63 68 89 78 33 33 78 97 100 100 100 100 100 100 99 100 92 11 28 60 83 96 100 99 87 95 96 75 100 100 100 100 100 100 100 100 100 100 100 100 100 91 8 1 5 13 81
100 57 87 65 82 31 74 95 28 94 100 100 100 100 100 100 100 100 100 100 100 100 99 100 100 97 100 100 100 100 100 84 100 100 100 100 100 95 100 100 100 100 100 100 100 100 87 31 5 1 2 4 2 41
55 98 92 25 57 52 13 34 47 84 100 100 100 100 100 100 100 100 100 96 99 100 93 77 80 100 100 100 100 100 100 100 100 100 100 100 100 100 100 100 100 100 100 100 89 24 57 48 81 5 5 5 5 5
100 95 74 74 32 10 82 95 41 43 100 100 100 100 100 100 100 100 100 99 99 90 99 100 100 100 100 100 100 100 100 100 100 100 100 98 100 100 100 100 100 100 77 11 21 26 88 83 92 46 5 5 42 36
41 58 71 55 50 42 9 10 52 49 87 79 98 99 100 100 100 100 94 100 100 100 100 100 100 100 100 100 100 100 100 100 100 99 92 81 86 78 96 95 70 11 5 5 5 6 28 68 97 89 40 61 100 99
93 62 40 5 23 75 55 76 41 67 91 100 100 61 44 99 100 98 100 100 100 100 100 100 100 100 100 100 100 100 98 60 23 39 91 100 97 98 8 5 5 5 1 2 4 5 5 5 5 6 33 94 95 98
95 89 59 9 5 5 6 22 49 97 100 100 100 100 100 100 100 100 100 100 100 100 100 100 100 99 84 47 24 7 5 5 5 5 5 23 6 89 96 40 24 5 5 14 81 89 31 14 82 71 55 65 92 65
98 100 96 29 37 94 99 100 100 100 100 100 100 100 100 100 100 100 100 100 100 91 7 6 1 0 4 5 4 2 0 0 5 5 5 5 5 20 28 6 5 5 16 99 100 97 52 57 100 100 100 91 94 88
100 97 97 100 100 100 100 100 100 100 100 100 100 98 76 74 59 40 4 1 0 0 3 4 4 6 6 5 5 5 5 5 3 3 5 5 5 5 5 11 34 87 100 100 97 99 96 99 100 100 100 100 100 91

GFSWCAN_prec_cloud_105.txt.gz
Cloud_Cover
99 100 100 81 100 96 64 100 84 100 100 82 94 7 5 6 94 100 100 100 100 100 30 50 18 5 5 2 5 8 0 42 2 2 83 100 15 74 43 45 96 100 100 96 100 48 100 21 69 97 100 32 89 72
100 100 96 15 84 100 100 100 100 100 98 100 100 16 94 93 99 100 100 100 99 100 34 5 5 2 0 0 0 4 2 4 6 14 24 20 6 3 0 4 46 78 100 100 15 88 28 7 5 6 5 5 57 18
100 88 6 15 99 100 100 97 100 100 100 100 100 97 100 100 100 100 100 100 100 87 11 8 3 0 0 0 0 3 27 0 0 0 13 72 5 4 5 5 49 8 2 3 99 98 100 90 62 4 0 6 100 35
98 75 62 100 100 100 100 100 100 100 100 100 100 100 100 100 100 100 100 100 100 100 48 41 5 0 0 1 0 0 0 0 0 0 5 59 97 84 30 6 2 100 34 72 31 64 100 99 86 5 4 1 39 37
100 90 97 100 100 99 96 100 99 100 100 100 100 100 100 100 100 100 100 100 100 97 28 83 5 3 2 0 0 2 1 0 5 26 49 67 70 95 100 93 5 66 67 100 100 100 78 77 12 5 5 59 100 66
99 90 100 66 100 100 100 99 96 100 100 100 100 100 100 100 100 100 100 100 99 100 16 6 6 0 1 0 0 0 2 1 5 20 92 21 0 0 77 99 85 7 0 6 95 97 100 87 7 16 20 6 48 36
86 71 42 88 40 27 42 98 78 100 100 100 100 100 100 100 100 100 100 100 100 22 32 5 70 4 0 0 13 52 6 4 2 23 5 82 44 0 5 22 60 6 4 0 0 25 100 100 85 34 99 100 70 68
99 100 100 65 14 57 98 100 99 83 100 100 100 100 100 100 100 100 100 100 100 30 22 5 81 6 1 5 55 95 23 5 3 23 4 5 22 3 5 4 5 8 2 0 0 3 67 19 85 22 17 100 100 97
97 100 71 96 96 100 100 100 98 100 100 100 100 100 100 100 100 100 100 100 100 98 39 5 57 99 5 5 90 49 3 5 11 5 6 5 32 92 5 4 5 5 4 4 1 2 4 5 5 8 5 6 96 100
100 93 100 100 100 100 100 100 100 100 100 100 100 100 100 100 100 100 100 100 100 89 31 5 54 100 4 68 96 72 44 5 5 67 5 5 5 5 5 5 5 6 50 16 5 5 5 5 5 5 1 5 5 54
100 99 90 100 100 100 100 100 100 100 100 100 100 100 100 100 100 100 100 100 100 100 31 5 44 69 9 77 90 47 72 9 5 90 5 5 13 16 16 9 5 5 2 4 5 5 5 2 5 5 5 5 2 1
100 88 93 100 100 100 100 100 100 100 100 100 100 100 100 100 100 100 100 100 100 100 83 5 11 93 48 0 10 26 46 8 5 13 5 5 5 5 5 5 5 39 63 6 5 5 5 5 5 5 5 5 4 4
100 82 100 100 100 100 100 100 100 100 100 100 100 100 100 100 100 100 100 100 100 100 65 5 21 66 14 3 54 53 5 4 3 4 5 5 5 5 5 5 5 5 5 60 42 7 5 5 5 5 5 5 5 40
100 100 100 100 100 100 100 100 100 100 100 100 100 100 100 100 100 100 100 100 100 100 28 27 21 19 20 23 5 5 5 5 5 7 40 13 43 52 74 84 71 4 1 3 5 5 5 5 5 2 1 4 5 6
100 100 100 100 100 100 100 100 100 100 100 100 100 100 100 100 100 100 100 100 100 100 44 86 46 85 80 50 5 8 6 5 17 74 46 88 95 49 100 100 100 100 34 28 26 10 81 25 28 8 15 5 5 5
100 100 100 100 100 100 100 100 100 100 100 100 100 100 100 100 100 100 100 100 100 74 62 100 94 90 86 12 13 5 47 51 61 77 38 15 14 8 5 5 14 50 98 100 100 100 100 100 100 100 100 82 5 3
100 100 100 100 100 100 100 100 100 100 100 100 100 100 100 100 100 100 100 100 100 100 100 100 100 94 88 91 80 17 5 25 94 91 69 10 5 5 2 5 5 5 5 5 100 100 100 100 100 100 100 100 5 5
100 100 100 100 100 100 100 100 100 100 100 100 100 100 100 100 100 100 100 100 100 100 100 100 100 100 78 79 77 92 56 86 58 65 48 48 23 61 11 5 18 5 15 18 54 79 100 100 58 98 100 98 5 4
100 100 100 100 100 100 100 100 100 100 100 100 100 100 100 100 100 100 100 98 30 100 100 100 100 100 91 98 96 83 100 100 67 10 37 100 52 100 99 36 47 100 100 100 100 100 100 100 100 100 100 67 47 99
100 100 100 100 100 100 100 100 100 100 100 100 100 100 100 100 100 100 99 99 83 88 100 100 100 77 100 69 44 80 87 32 28 98 84 74 85 21 24 88 56 48 94 62 87 83 100 100 100 100 100 97 99 90
100 100 100 100 100 100 100 100 100 100 100 100 100 100 100 100 100 91 99 92 99 99 100 100 92 100 92 57 100 100 91 49 5 6 5 5 5 60 55 89 100 100 100 100 91 76 100 100 100 100 100 100 100 100
100 100 100 100 100 100 100 100 100 100 100 100 100 100 100 98 72 60 76 96 100 100 71 62 99 99 97 100 100 89 36 26 5 5 5 26 27 54 93 100 100 62 72 100 100 100 100 100 100 100 100 100 100 99
100 100 100 100 100 100 100 100 100 100 100 100 100 90 72 64 81 72 43 84 99 96 79 75 98 100 100 99 100 99 100 97 26 10 100 86 91 100 100 93 95 100 100 100 100 100 100 100 100 100 100 100 100 100
100 100 100 100 100 100 100 100 100 100 96 100 86 62 99 100 59 96 77 100 93 71 88 86 85 98 100 100 76 84 100 100 100 99 99 87 20 51 5 18 100 100 100 100 100 100 100 100 100 100 100 100 100 82
100 100 100 100 100 100 100 100 100 100 87 100 100 99 99 56 89 36 100 100 100 100 100 96 100 100 100 88 100 100 92 99 100 100 100 90 62 54 34 100 100 93 100 100 100 100 100 100 100 100 100 98 32 95
100 100 100 100 100 100 100 100 100 100 100 96 87 59 100 98 95 100 100 100 100 100 100 100 100 100 99 98 100 100 100 100 100 94 100 100 89 99 100 100 100 100 100 100 100 100 100 100 100 100 84 5 20 75
100 100 100 100 100 100 100 100 100 82 100 97 99 100 100 100 100 100 100 100 100 100 100 100 100 100 100 100 100 100 100 100 100 99 99 100 100 91 80 88 92 100 92 93 100 100 100 100 100 94 79 67 44 5
100 100 100 100 100 100 100 100 100 61 76 81 99 100 100 100 100 100 100 100 100 100 100 100 100 100 100 100 100 100 100 100 100 100 100 100 99 60 97 56 61 100 100 100 76 23 96 100 100 91 91 100 98 62
99 100 100 100 100 100 100 100 100 100 100 87 100 100 100 100 100 100 100 100 100 100 100 100 100 96 100 100 100 100 100 100 100 100 100 100 96 56 98 79 100 100 99 6 40 96 100 99 98 100 100 91 94 100
98 98 99 94 59 63 49 100 100 99 70 100 100 98 99 99 97 96 100 100 100 100 100 100 100 100 100 100 100 100 100 100 89 94 68 66 100 100 100 100 13 29 45 98 87 5 5 20 76 100 100 94 100 100
55 67 72 31 20 25 84 60 88 46 68 100 100 100 100 100 99 100 100 100 100 100 100 100 100 100 97 78 35 27 52 4 2 6 10 41 68 58 100 87 85 88 94 88 100 91 33 71 100 100 100 92 100 100
100 94 97 63 35 8 15 39 64 86 96 100 100 100 100 100 100 100 100 100 100 100 85 35 6 5 2 1 5 4 52 6 5 1 5 38 66 96 100 42 87 87 61 8 69 99 100 100 100 100 100 99 100 100
88 100 92 99 100 100 100 100 100 100 100 100 100 100 100 98 100 63 10 5 2 3 0 1 3 4 4 0 0 1 1 2 3 0 0 0 0 5 47 56 18 6 34 94 100 100 99 99 100 100 100 100 100 100

GFSWCAN_prec_cloud_108.txt.gz
Cloud_Cover
100 100 89 97 98 5 93 100 94 72 99 100 100 100 100 100 100 100 100 100 100 96 100 100 100 57 5 1 18 57 1 27 12 5 6 99 62 100 100 100 100 100 87 98 0 46 89 76 92 90 82 13 5 100
100 100 100 100 100 47 96 100 100 100 100 82 100 100 100 100 100 100 100 100 100 100 100 100 100 98 5 2 0 0 0 1 45 4 82 5 53 53 42 100 100 100 100 99 33 94 82 91 100 100 100 99 9 6
100 100 100 100 100 97 100 100 100 100 98 100 98 100 100 100 100 100 100 100 100 100 100 100 100 100 5 2 0 0 65 4 0 0 0 17 73 5 38 66 95 87 100 100 100 66 65 100 100 100 100 7 61 96
100 100 100 100 100 100 100 100 100 98 100 100 100 99 100 100 100 100 100 100 100 100 100 100 100 5 8 2 0 0 0 0 0 0 0 3 63 20 48 96 55 41 27 62 100 100 100 100 100 97 100 68 98 72
100 100 100 83 98 97 97 100 100 100 100 86 100 100 100 100 100 100 100 100 100 100 100 100 83 16 7 1 0 0 1 0 5 13 23 43 36 5 5 5 40 100 31 58 15 89 99 83 10 40 95 15 14 63
100 100 100 100 100 100 100 100 76 70 100 35 52 100 100 100 100 100 100 100 100 100 100 100 93 80 5 0 3 0 0 0 4 7 96 99 5 55 2 76 90 13 58 32 7 97 11 97 6 100 13 100 33 88
100 100 99 94 100 88 28 63 42 100 100 72 66 100 100 100 100 100 100 100 100 100 100 87 97 25 5 0 5 24 13 3 0 33 85 36 39 3 0 4 70 22 5 0 25 10 8 99 100 34 5 5 17 4
100 100 100 100 100 99 30 16 76 100 100 72 79 98 100 100 100 100 100 100 100 100 100 100 78 11 9 2 32 7 5 70 17 20 27 2 16 7 0 2 5 40 7 5 5 1 9 55 34 9 8 5 34 62
100 100 100 100 89 74 31 61 92 94 100 97 79 98 100 100 100 100 100 100 100 100 100 83 73 79 66 24 25 11 50 9 38 1 18 2 23 67 0 0 5 52 4 5 5 5 21 64 4 5 10 23 7 93
100 97 87 100 98 97 100 100 100 100 100 56 100 100 100 100 100 100 100 100 100 100 100 86 100 100 100 72 90 69 68 63 88 62 4 4 2 1 4 0 2 4 2 5 80 5 4 5 5 5 5 5 5 66
100 68 100 36 82 100 98 100 100 94 100 100 100 100 100 99 100 100 100 100 100 100 100 100 99 100 48 89 85 15 63 76 28 12 7 4 5 7 20 9 5 2 2 4 8 5 5 5 5 5 5 4 5 6
100 100 84 7 99 100 100 100 100 100 100 100 100 100 100 100 100 100 100 100 100 100 100 100 100 81 91 47 47 34 26 28 3 22 14 4 4 4 4 14 46 4 5 5 5 5 5 2 5 5 5 2 4 4
97 100 46 6 100 100 100 100 100 100 100 100 100 100 100 100 100 100 100 100 100 100 100 100 100 32 11 6 5 12 35 5 5 16 5 2 3 41 95 86 14 5 5 5 5 5 5 5 5 5 13 5 1 6
100 99 58 57 100 100 100 100 100 100 100 100 100 100 100 100 100 98 100 100 100 100 100 100 100 58 32 7 44 81 9 62 5 5 71 73 48 44 92 100 100 100 20 5 5 5 93 100 26 100 100 100 61 8
100 94 100 66 100 100 100 100 100 100 100 100 100 100 100 100 100 100 100 100 100 100 100 100 100 89 93 61 77 56 86 1 5 5 5 5 18 94 16 0 2 3 8 87 73 93 96 90 48 13 40 76 100 96
100 96 94 100 100 100 100 100 100 99 100 100 94 100 100 100 96 100 100 100 100 100 100 100 100 95 100 93 86 84 20 5 66 79 10 5 5 5 5 4 5 5 5 4 5 4 5 6 28 79 90 76 100 100
98 96 100 100 100 100 100 100 100 100 100 100 100 100 100 100 100 100 100 100 100 100 100 100 100 94 70 100 84 20 64 48 100 99 48 11 8 5 2 3 5 5 4 5 5 5 6 5 17 100 100 100 100 100
100 97 100 94 100 100 100 100 100 100 100 100 100 100 100 100 100 100 100 100 100 100 100 100 99 95 100 100 97 77 91 52 91 99 76 8 3 3 4 5 16 23 10 98 100 100 96 62 100 100 100 100 100 100
100 100 100 96 100 100 100 100 100 100 100 100 100 100 100 100 100 100 100 100 100 100 100 99 91 100 100 95 99 97 20 5 7 36 9 5 5 5 26 70 5 5 18 93 57 44 68 99 100 66 74 100 100 100
100 100 99 100 100 100 100 100 100 100 100 100 100 100 100 100 100 100 100 100 100 100 100 100 100 100 74 93 100 100 97 96 79 73 23 6 24 98 70 31 6 5 20 95 100 100 97 82 83 100 100 100 100 100
98 100 100 100 100 100 100 100 100 100 100 100 100 100 100 100 100 100 100 100 100 100 100 100 100 73 89 100 100 100 100 100 100 100 89 26 5 5 6 61 27 32 100 100 100 100 100 100 99 76 100 100 100 100
100 100 100 100 100 100 100 100 100 100 100 100 100 100 100 100 100 100 100 100 100 74 46 77 100 74 87 99 100 99 98 96 74 40 87 100 100 96 8 34 88 91 100 98 100 100 100 100 100 100 100 100 100 100
100 100 100 100 100 100 100 100 100 100 100 100 100 100 100 100 100 100 100 81 51 38 48 97 72 12 7 28 76 95 100 100 100 96 60 49 70 90 73 53 78 37 5 58 22 99 100 100 100 100 100 100 100 100
100 100 100 100 100 100 100 100 100 100 100 100 100 99 100 100 100 56 36 67 100 100 67 53 26 13 53 100 98 19 96 100 100 99 86 82 68 98 94 19 16 30 36 63 64 43 100 100 100 100 100 100 100 100
100 100 100 100 100 100 100 100 100 100 100 100 100 100 98 96 22 98 94 97 98 90 91 98 71 92 96 93 84 95 89 100 100 100 99 100 68 27 99 79 79 99 99 94 99 100 100 100 100 100 100 100 100 100
100 100 100 100 100 100 100 100 100 100 100 100 100 100 98 100 64 25 42 78 100 79 100 100 100 90 89 100 100 100 98 94 100 84 100 86 26 91 97 100 100 96 86 98 100 100 97 100 100 99 100 100 100 99
100 99 100 100 100 100 100 100 100 100 96 95 78 31 72 87 36 87 73 97 100 100 100 100 100 69 75 100 100 100 100 100 100 32 46 66 10 22 56 77 51 63 94 59 100 96 92 100 95 68 5 49 13 10
99 100 100 100 100 100 100 100 100 100 94 89 100 98 100 97 100 94 96 100 100 100 100 100 100 100 100 100 95 49 11 5 5 5 5 13 29 23 56 94 98 75 55 72 76 100 96 59 10 84 87 56 87 70
94 100 100 100 100 100 100 99 96 77 94 84 92 100 100 100 100 100 100 100 100 100 100 100 100 100 75 27 7 6 5 9 31 67 95 98 100 95 37 36 43 43 14 12 8 4 10 98 91 56 37 100 95 94
100 100 100 100 97 100 56 53 99 78 45 80 79 98 95 100 100 100 100 100 100 100 100 100 100 65 39 37 38 82 97 99 97 63 98 97 7 20 69 76 30 75 35 9 5 13 26 27 40 100 100 83 98 87
96 87 45 51 83 87 65 69 91 71 98 84 94 99 100 100 100 100 100 99 67 45 88 100 100 100 93 81 69 43 98 72 5 0 1 8 36 42 5 5 5 5 5 5 4 10 72 3 8 95 71 91 100 100
83 96 60 34 49 58 56 87 78 77 87 100 100 98 61 100 100 100 99 96 98 99 91 80 61 88 6 16 19 5 0 12 5 2 4 11 72 42 5 5 12 5 43 71 50 44 100 100 96 100 100 100 100 100
88 100 59 99 70 58 51 76 97 100 100 100 100 100 100 100 99 85 17 5 27 32 4 2 3 2 2 5 5 0 1 3 1 0 0 0 0 3 11 4 46 17 97 88 81 99 99 96 75 39 69 98 100 99

GFSWCAN_prec_cloud_111.txt.gz
Cloud_Cover
100 100 100 100 100 100 60 38 82 100 100 88 90 98 100 98 92 92 100 100 100 96 100 100 100 100 100 100 42 5 2 2 0 2 3 84 62 100 100 100 100 100 94 100 69 37 100 100 100 100 70 4 1 4
100 100 100 100 100 100 100 100 100 100 100 100 100 100 100 100 100 100 100 100 100 100 100 100 100 100 100 99 16 4 0 0 0 47 21 5 86 23 100 100 100 100 96 96 97 94 38 100 100 100 48 50 49 100
100 100 100 100 100 100 100 100 100 100 100 100 100 100 100 100 100 100 100 100 100 100 100 100 100 100 100 100 9 5 1 0 0 0 0 2 4 32 97 16 100 100 100 99 100 85 30 100 94 100 100 100 97 100
100 100 100 100 100 100 100 97 100 100 100 99 81 58 9 5 71 100 100 100 100 100 100 100 100 100 100 72 6 4 0 0 0 0 0 0 0 42 94 42 81 99 57 99 100 86 100 100 100 100 100 100 100 100
100 100 100 100 100 100 100 100 99 76 100 100 95 50 22 5 65 100 100 100 100 100 100 100 100 100 100 40 5 4 0 0 0 0 3 21 26 19 27 3 0 75 100 100 100 100 100 100 100 100 92 100 100 100
100 100 100 100 100 100 100 100 100 97 79 100 87 26 24 80 100 98 100 100 100 100 100 100 100 100 60 7 5 4 0 0 0 0 5 88 8 59 12 4 3 92 5 100 70 100 70 99 100 100 53 43 100 100
99 98 100 99 100 100 97 50 100 100 97 100 48 5 11 100 98 23 100 100 100 100 100 100 100 99 58 7 5 0 0 1 0 0 0 46 6 5 15 0 92 100 100 14 12 58 100 98 92 100 100 91 18 47
95 92 100 100 100 100 91 100 100 91 94 100 49 40 91 94 49 83 89 100 100 100 100 100 100 96 19 47 21 3 30 3 55 12 5 1 0 0 0 0 0 3 3 0 7 95 8 88 96 100 100 80 79 30
100 87 100 100 100 100 100 100 100 89 98 69 25 100 70 99 59 100 100 100 100 100 100 100 100 73 100 98 70 25 2 0 3 1 4 0 52 64 0 0 0 1 3 0 0 1 84 19 89 70 40 96 67 16
100 100 100 100 100 100 100 100 100 100 64 13 78 94 74 100 94 100 96 100 100 100 100 100 100 100 100 99 6 5 4 8 98 15 10 1 0 0 0 0 0 2 3 0 4 1 2 91 92 5 5 11 83 11
100 100 100 100 100 100 100 100 100 93 7 58 25 100 95 100 100 100 100 100 100 100 100 100 96 99 100 100 76 82 30 0 64 0 1 2 3 5 5 1 0 0 0 0 1 6 0 0 0 0 0 0 0 5
100 100 100 100 100 47 100 98 100 54 54 89 97 100 100 100 100 100 100 100 100 100 100 100 100 100 100 98 91 57 30 1 0 4 5 0 4 86 64 36 11 0 4 2 3 9 0 97 83 65 6 0 0 0
100 100 100 100 100 83 100 100 100 88 94 98 100 100 100 100 100 100 100 100 100 100 100 100 100 100 100 77 43 99 38 1 6 4 4 0 0 3 89 94 100 97 3 5 10 97 98 52 85 100 100 100 83 89
100 100 100 100 100 100 100 99 100 75 99 100 100 100 100 100 100 100 96 100 100 100 100 100 100 69 100 78 7 19 11 3 15 2 0 0 2 5 5 8 4 3 0 55 93 92 94 100 72 29 92 100 100 100
100 100 100 100 100 100 100 100 100 93 98 100 100 100 100 100 100 100 100 100 100 100 100 100 100 95 100 99 5 6 43 5 5 5 4 5 5 4 4 0 0 0 2 5 0 1 5 5 5 5 17 30 40 90
100 100 100 100 99 100 100 100 100 100 100 100 100 100 100 100 100 100 100 100 100 100 95 100 100 100 100 100 25 5 51 6 28 5 5 5 5 5 5 5 4 1 5 5 0 3 9 5 5 5 5 5 72 41
100 100 100 100 96 100 100 100 100 100 100 95 100 100 100 100 100 100 100 100 100 100 96 100 100 100 100 100 54 23 7 48 51 26 5 5 3 3 3 5 4 5 2 5 5 17 100 100 99 5 12 47 5 5
100 100 100 100 100 100 99 100 100 100 89 91 100 100 100 100 100 100 100 100 100 100 100 100 100 100 100 100 11 70 100 74 84 59 5 8 5 5 5 5 5 2 1 1 4 5 5 5 24 99 100 100 6 58
100 100 100 100 100 100 100 100 100 100 100 99 98 100 100 100 100 100 100 100 100 100 100 100 99 100 100 53 99 98 100 100 94 100 94 81 77 16 6 6 35 4 5 5 3 3 5 41 100 12 90 40 50 95
100 100 100 100 100 100 100 100 100 100 99 100 100 100 100 100 100 100 100 100 100 100 100 100 100 100 98 88 98 100 100 99 100 100 41 38 99 100 100 89 61 52 16 5 4 4 22 87 26 6 23 74 100 100
100 100 100 100 100 100 100 100 100 94 26 100 100 100 100 100 100 100 100 100 100 100 100 100 100 100 100 100 100 100 100 100 100 100 100 100 100 100 100 93 98 29 100 100 100 98 100 100 100 100 100 100 100 100
100 100 100 100 100 100 67 84 83 96 99 100 100 100 100 100 100 100 100 100 100 100 100 100 100 100 100 100 100 100 91 80 100 100 100 100 100 100 100 91 86 42 36 26 74 65 68 65 100 100 100 100 100 100
100 100 100 100 100 100 94 83 88 94 100 100 100 100 100 100 100 100 100 100 100 100 100 100 100 86 61 93 100 88 46 100 74 100 100 100 100 100 100 100 80 100 100 98 100 100 100 100 100 100 100 100 100 100
100 100 100 100 100 100 80 83 100 100 100 100 100 100 100 100 100 100 100 100 100 100 100 72 26 24 51 100 97 64 98 100 100 65 46 100 87 96 100 100 81 100 100 100 100 46 63 50 100 100 100 100 64 59
100 100 100 100 100 100 100 100 100 100 100 100 100 100 100 100 100 96 84 100 91 96 100 64 96 76 100 100 99 99 100 94 37 88 100 100 100 100 100 100 64 100 98 94 96 75 66 100 100 100 100 86 54 50
100 100 100 100 100 100 100 100 100 100 100 100 100 100 88 76 100 100 58 91 100 58 34 41 92 100 100 98 100 100 100 100 100 100 100 100 100 97 100 100 100 84 18 14 23 43 93 100 100 89 68 13 5 5
100 100 100 100 100 100 100 100 100 100 96 99 100 100 68 81 81 88 46 93 100 100 100 100 100 100 100 100 100 100 100 100 100 100 99 96 100 100 100 98 74 96 100 100 91 74 100 100 25 32 47 5 5 6
100 100 100 100 100 100 100 100 100 100 100 100 91 80 100 100 100 99 83 97 100 100 100 100 100 100 100 100 86 100 100 100 100 97 93 80 95 62 60 86 96 96 64 75 20 99 95 54 66 50 5 2 0 5
100 96 100 100 100 98 100 100 100 100 100 97 100 100 100 100 100 100 100 100 100 100 100 100 100 100 89 100 100 100 100 98 61 17 7 5 5 5 5 5 12 22 5 4 9 35 99 82 5 20 5 61 100 35
63 91 99 96 100 100 100 100 100 84 97 62 72 100 100 100 100 100 100 100 100 97 99 100 100 99 100 100 86 72 44 54 41 5 5 5 5 5 5 3 0 0 19 8 4 5 2 3 7 47 71 20 64 46
93 100 94 95 97 100 90 62 67 64 81 99 98 93 70 100 100 100 100 98 80 5 31 10 54 86 100 100 100 100 100 73 19 5 5 4 5 0 0 0 0 0 0 0 0 0 2 2 4 8 69 90 82 99
100 100 100 99 78 99 82 100 98 30 32 56 100 100 100 100 100 100 84 42 42 48 24 77 76 62 52 96 74 16 35 16 5 0 0 0 0 11 46 1 0 3 3 5 5 5 1 1 3 4 5 53 77 100
49 46 36 16 9 5 5 5 74 95 96 85 100 100 100 100 100 100 100 100 86 43 5 5 8 3 5 4 2 0 0 0 0 0 0 0 0 0 0 6 23 8 6 8 18 5 30 76 97 100 7 83 100 100

GFSWCAN_prec_cloud_114.txt.gz
Cloud_Cover
100 100 100 100 100 100 100 100 100 100 100 100 100 100 100 100 100 78 100 100 100 100 100 100 100 100 100 100 100 100 100 92 3 0 0 4 11 0 23 94 48 78 100 100 100 100 100 100 100 100 93 54 66 100
100 100 100 100 100 100 100 100 100 100 100 100 100 100 100 100 100 89 98 100 100 100 100 100 100 100 100 100 100 100 100 29 0 0 0 4 16 86 0 92 35 5 39 38 100 100 100 100 100 100 86 8 23 85
100 100 100 100 100 100 100 100 100 100 100 100 100 100 100 98 68 44 98 58 84 91 100 100 100 100 100 100 100 100 98 4 0 0 0 0 0 5 19 2 100 93 5 58 100 100 99 81 78 100 53 56 5 5
100 100 100 100 100 100 100 100 100 100 100 100 100 100 100 79 100 29 72 52 95 98 100 100 100 100 100 100 100 100 11 0 0 0 0 0 0 0 0 1 11 100 7 38 99 100 97 38 56 91 76 53 28 22
100 100 100 100 100 100 100 100 100 100 100 100 94 100 100 100 82 58 35 54 100 100 100 100 100 100 100 100 100 92 5 0 0 0 0 0 0 2 0 1 92 85 97 75 100 82 13 6 87 100 100 68 99 77
100 100 100 100 100 100 100 100 100 100 100 100 100 100 100 69 6 55 32 76 100 100 100 100 100 100 100 100 100 6 5 0 0 0 0 0 5 27 100 100 2 3 93 100 100 5 4 5 7 100 100 100 100 95
100 100 100 73 54 100 100 93 100 100 100 87 100 98 70 93 5 18 52 100 100 100 100 100 100 100 100 100 22 47 4 0 0 0 0 0 5 5 3 85 3 100 78 92 100 100 91 14 39 100 100 100 100 100
99 58 20 44 74 98 71 32 100 100 90 100 100 100 99 10 5 6 6 100 100 100 96 100 99 100 100 100 15 99 4 2 0 0 10 4 3 0 0 0 52 74 34 77 91 67 89 94 93 100 100 100 100 100
6 5 5 5 44 97 100 100 100 100 100 100 100 100 84 63 90 5 65 100 88 92 100 100 100 100 100 82 82 85 5 5 0 0 1 2 43 0 0 0 100 82 63 82 88 62 38 96 100 100 100 100 100 80
5 5 5 5 6 55 66 88 100 100 100 100 100 5 54 47 11 65 98 100 100 100 100 100 100 100 100 50 100 8 16 5 0 0 1 0 0 0 0 0 0 0 0 0 0 0 2 0 26 100 100 81 27 5
58 5 5 5 24 100 100 100 100 100 100 100 28 22 83 90 91 99 100 100 100 100 100 92 100 100 97 88 99 61 99 11 5 0 0 1 5 2 5 2 0 0 3 8 5 8 2 2 57 5 2 20 16 9
88 9 38 63 90 100 100 100 100 100 100 93 5 5 87 83 77 100 100 100 100 100 100 100 90 100 98 41 100 93 95 87 5 0 0 1 0 7 45 5 3 5 4 22 100 98 60 95 52 63 55 2 6 8
93 49 52 100 100 100 100 100 100 100 100 85 99 95 67 82 93 100 100 99 95 98 90 100 100 100 44 99 83 99 100 50 5 0 0 0 0 2 4 10 0 0 0 4 28 88 100 100 53 30 67 93 99 49
90 100 100 100 100 100 100 100 100 100 98 100 100 87 98 100 100 100 100 100 98 100 84 95 100 100 92 83 38 100 9 5 5 5 0 0 0 1 4 1 0 0 0 0 0 0 2 5 5 5 3 2 4 3
100 98 95 100 100 100 100 100 100 100 100 87 100 100 83 100 100 100 100 99 100 100 89 100 100 73 79 59 58 100 79 5 5 5 2 0 2 5 5 0 0 0 0 0 0 0 0 1 5 5 4 5 6 77
100 98 100 100 100 100 100 100 100 100 100 100 88 98 100 100 100 100 100 100 100 100 100 100 100 88 100 78 40 61 79 5 50 6 5 5 4 4 5 5 5 1 0 0 0 0 3 4 46 91 9 5 21 92
97 100 100 100 100 100 100 100 100 100 100 100 99 100 100 100 100 100 100 100 100 100 98 100 100 100 100 93 14 53 99 5 47 23 5 5 5 5 5 5 1 0 0 0 0 0 5 5 5 20 17 5 5 5
100 100 100 100 100 100 100 100 100 100 100 97 96 100 99 100 100 100 100 100 100 100 100 100 100 100 99 85 84 100 100 99 98 100 42 66 6 37 81 93 100 34 17 5 1 5 5 5 9 61 87 5 5 5
100 100 100 100 100 100 100 100 100 100 100 85 80 81 85 81 95 100 100 100 100 100 94 98 100 100 100 100 97 100 100 100 76 100 83 16 23 57 94 100 100 100 100 100 60 28 26 16 83 40 21 81 82 64
100 100 100 100 100 100 100 100 100 100 100 100 100 100 100 94 96 100 100 100 100 100 100 100 100 100 100 100 100 99 100 100 87 96 100 99 71 20 83 100 100 100 100 100 98 84 86 100 100 100 94 100 94 96
100 100 100 100 100 100 100 100 100 100 100 100 100 100 100 100 86 100 100 100 100 100 100 100 100 100 100 100 100 100 100 99 98 100 84 88 95 69 59 96 100 100 87 100 100 100 60 93 100 100 100 100 100 100
100 100 100 100 100 100 100 100 100 100 100 99 95 84 72 87 98 100 97 100 100 100 100 100 100 100 100 100 100 100 100 100 100 100 100 93 95 100 100 86 40 24 96 100 100 99 68 89 88 96 93 99 100 100
100 100 100 100 100 100 100 90 51 70 57 100 100 98 97 98 98 100 100 100 100 100 100 100 100 100 100 94 100 100 90 100 100 100 100 79 82 98 100 100 100 100 100 98 96 79 100 92 87 30 90 100 100 100
100 100 100 100 100 98 90 56 25 52 70 62 93 80 100 100 100 100 100 100 100 100 100 100 100 100 100 100 100 72 100 100 100 100 98 30 32 73 100 100 100 96 79 100 37 100 100 100 100 100 96 98 100 100
100 100 100 100 100 100 40 23 59 98 100 100 100 100 100 100 100 100 100 100 100 100 100 100 100 100 97 35 26 58 77 11 20 13 48 5 6 86 99 76 87 100 100 100 63 47 100 88 78 54 100 100 100 100
98 83 98 100 100 100 100 100 100 100 100 100 100 100 100 100 100 100 100 100 100 100 100 99 84 8 28 69 92 94 100 80 43 58 80 85 100 100 100 66 78 100 100 100 100 100 100 98 98 100 100 100 100 96
100 100 72 100 100 98 100 100 100 100 100 100 100 100 100 100 100 100 100 100 49 10 36 91 24 82 80 76 45 100 100 100 100 100 84 61 83 100 100 100 100 100 100 99 85 68 58 62 98 100 100 95 11 56
99 100 100 100 100 100 100 100 100 100 100 100 100 100 100 100 88 89 100 79 100 97 98 100 95 51 51 78 35 78 100 100 100 100 100 100 100 100 81 26 50 89 71 7 5 5 5 56 100 100 74 60 68 95
100 100 100 100 100 100 100 99 98 100 92 100 100 100 100 100 98 100 100 100 100 100 100 90 63 83 100 100 100 100 100 100 100 100 100 100 100 95 88 36 5 5 5 5 4 3 98 100 75 69 99 73 26 5
100 99 96 100 100 93 61 76 100 100 100 100 100 99 100 93 91 100 93 100 100 100 100 100 100 100 100 100 100 100 100 98 38 18 5 5 5 5 5 5 5 2 1 0 0 23 100 97 50 40 11 5 5 2
100 93 100 99 86 82 100 100 100 100 99 100 100 100 100 100 93 94 67 98 98 100 95 84 100 100 100 99 88 80 39 5 53 81 36 5 0 0 0 0 0 0 0 0 0 13 46 88 34 5 4 4 3 5
79 97 96 100 100 82 100 86 95 74 100 99 34 97 100 100 100 100 97 50 46 33 61 95 100 67 22 83 36 46 17 9 5 2 0 0 0 0 0 0 0 0 0 0 0 0 0 2 4 5 5 40 60 79
96 100 100 100 87 65 64 71 99 58 48 61 99 100 100 100 100 100 100 100 100 100 90 25 5 4 4 7 50 76 34 2 0 0 2 4 1 4 4 5 2 1 3 5 5 8 10 5 17 34 65 79 17 12

GFSWCAN_prec_cloud_117.txt.gz
Cloud_Cover
100 100 100 100 100 100 100 100 100 100 100 100 100 100 100 100 100 100 100 100 100 100 61 100 100 100 100 100 100 100 100 96 100 100 6 0 0 0 0 0 0 42 100 26 5 2 24 3 100 100 96 100 100 74
100 100 100 100 100 100 100 100 100 100 100 100 100 100 100 100 100 100 100 100 100 100 75 100 100 97 97 100 100 100 100 100 100 60 0 0 0 2 5 100 3 23 100 100 21 5 40 7 6 96 100 100 89 38
100 100 100 100 100 100 100 100 100 100 100 100 100 100 100 100 100 95 100 100 100 100 64 97 99 100 100 94 100 100 100 100 92 0 0 0 0 0 4 78 63 6 86 40 93 97 85 98 100 100 100 100 100 18
100 100 100 100 100 100 100 100 100 100 100 100 100 100 100 100 100 100 100 100 100 100 100 42 100 100 100 100 100 100 100 96 1 0 0 0 0 0 0 0 0 10 1 8 5 5 79 91 58 100 100 49 69 5
100 100 100 100 100 100 100 100 100 100 100 100 100 100 100 100 100 95 98 100 100 73 34 74 100 100 100 100 100 100 100 21 0 0 0 0 0 0 4 20 0 0 0 0 1 5 5 65 13 83 100 93 98 5
100 100 100 100 100 100 99 100 100 90 84 89 100 100 100 100 100 100 100 45 74 18 100 94 100 100 100 100 100 100 90 2 0 0 0 0 0 0 0 7 41 91 28 6 0 3 5 44 100 60 68 97 76 56
100 100 100 98 71 80 100 100 77 29 4 53 100 100 100 100 100 100 100 93 72 70 88 100 100 100 100 100 100 98 5 5 0 0 0 0 3 0 3 0 0 1 3 0 5 0 4 5 8 33 5 83 56 34
100 96 86 19 18 96 100 84 43 4 13 43 100 100 100 100 96 100 100 100 39 5 5 100 100 100 99 100 100 99 5 4 0 0 0 1 3 2 0 5 2 4 19 5 5 5 5 23 5 20 86 5 75 90
100 92 28 29 8 6 91 100 26 3 3 79 100 100 100 100 100 100 100 10 5 11 61 100 100 100 94 100 100 6 5 5 5 0 0 1 4 0 4 4 1 25 11 38 86 53 4 18 94 5 5 5 9 21
100 98 12 5 5 5 5 5 5 43 84 100 100 100 100 100 100 95 6 5 6 63 100 100 100 100 100 99 14 5 5 5 5 0 0 0 0 0 0 3 5 5 0 0 0 12 36 86 65 100 100 65 5 6
100 100 10 5 5 3 5 6 5 89 100 98 100 100 100 100 100 71 5 6 68 99 100 100 100 100 69 99 100 17 14 100 3 0 0 0 0 0 0 0 1 30 40 2 1 0 0 0 0 5 50 93 80 100
100 100 42 5 5 5 5 18 73 60 100 100 100 100 100 100 78 83 5 75 100 100 100 100 100 100 44 100 74 72 8 5 8 1 1 0 0 3 1 0 0 4 15 85 66 28 2 4 51 27 53 43 17 20
100 52 51 6 10 13 6 55 100 100 100 100 100 100 100 100 65 89 97 100 100 100 100 100 100 31 65 100 88 47 18 8 5 5 4 0 0 0 0 0 0 0 2 5 48 100 45 0 4 12 8 6 15 10
100 77 32 84 53 87 46 95 100 100 100 100 100 100 100 90 75 94 100 98 100 100 100 100 100 89 78 29 31 6 6 39 5 2 2 5 0 0 0 0 0 0 0 0 0 0 0 3 11 5 5 5 2 0
77 93 82 100 97 99 37 99 100 100 100 100 100 100 91 94 74 85 98 94 100 100 100 100 100 93 71 47 41 6 28 38 16 5 5 5 5 0 0 5 4 2 0 0 0 0 0 0 4 5 2 0 2 1
86 95 100 100 100 100 96 100 100 100 100 100 100 100 82 96 96 100 100 99 100 100 100 100 100 100 98 100 61 69 50 58 11 5 5 12 5 0 0 5 5 5 5 5 5 3 5 2 5 2 5 8 12 5
100 100 100 100 100 100 100 100 100 100 100 100 100 100 100 100 100 100 100 98 99 100 100 100 98 99 100 100 100 94 79 99 67 5 5 16 42 5 5 5 4 5 5 5 5 5 5 5 5 2 4 0 5 7
100 100 100 100 100 100 100 100 100 100 100 100 100 100 98 100 100 100 100 100 100 100 100 100 99 99 100 100 100 100 100 100 100 8 5 21 55 60 45 5 5 5 16 81 100 100 100 46 13 6 5 6 30 8
100 100 100 100 100 100 100 100 100 100 100 100 95 41 74 86 88 100 100 100 100 100 100 100 100 99 72 100 100 100 96 100 100 99 20 5 38 82 100 83 5 5 5 63 100 100 100 100 100 100 93 72 66 66
100 100 100 100 100 100 100 100 100 100 100 100 100 95 87 71 100 80 71 85 99 100 100 100 100 100 88 99 100 97 100 100 100 100 90 5 32 59 97 98 100 68 14 5 42 99 99 100 100 100 100 94 100 86
100 100 100 100 100 100 100 100 100 100 100 100 100 100 83 60 19 90 100 100 98 100 100 100 100 100 92 99 100 100 100 100 100 100 92 100 100 100 100 83 43 86 87 17 6 6 8 30 72 53 97 86 36 79
100 100 100 100 100 100 100 100 100 100 100 100 100 100 100 100 100 100 100 100 100 100 100 96 100 100 100 100 100 96 100 100 100 100 100 100 100 100 100 100 93 90 100 90 78 10 8 2 4 37 39 60 68 100
100 100 100 100 100 100 100 100 100 100 100 100 100 100 100 100 100 100 100 97 100 100 100 100 100 100 100 100 100 100 100 100 100 100 100 100 100 100 100 100 100 99 44 50 90 100 51 60 22 51 11 93 38 96
100 100 100 100 100 100 100 100 100 100 100 100 100 100 84 71 100 87 100 100 100 100 100 100 100 100 100 100 100 100 100 100 100 100 100 100 100 100 100 98 94 54 18 51 27 91 52 32 92 20 17 82 100 100
100 100 100 100 100 100 100 100 100 73 49 47 25 6 54 97 100 95 100 100 100 100 100 100 100 100 100 100 100 100 100 100 93 100 100 100 100 100 100 97 21 15 30 96 92 98 94 59 52 73 99 100 100 100
100 100 100 100 100 79 67 96 96 100 100 100 100 100 100 100 100 100 100 100 100 100 100 100 100 100 100 97 86 100 100 77 49 79 85 95 91 86 71 100 100 100 100 86 100 100 98 100 100 100 100 100 98 87
66 90 80 48 99 100 100 100 100 100 100 100 94 100 100 100 100 100 100 100 100 100 100 100 100 100 70 34 74 43 61 52 94 94 100 100 100 100 100 100 100 100 100 100 100 100 100 100 100 100 89 97 87 100
98 100 100 100 100 100 100 100 100 100 100 100 100 100 100 100 100 100 100 100 100 100 100 100 90 83 96 100 100 86 51 68 88 100 100 100 100 100 100 100 100 100 100 100 100 100 100 77 25 28 12 92 100 100
100 100 100 100 100 100 100 100 100 100 99 100 94 58 77 96 53 68 94 92 94 87 100 91 80 82 97 99 86 82 100 99 91 66 95 96 90 95 98 50 27 30 10 5 5 5 5 5 16 100 100 100 100 33
100 100 100 100 100 100 100 100 100 100 100 89 88 73 26 41 56 72 50 65 49 72 99 100 100 78 78 65 65 79 100 99 89 24 5 4 3 2 1 2 5 5 5 3 1 0 5 83 100 96 83 31 12 73
100 100 100 100 100 100 100 100 100 100 100 88 99 67 91 100 98 100 100 90 30 94 100 99 99 100 100 91 24 5 5 5 5 5 1 0 0 0 0 0 0 1 1 0 0 5 46 100 100 66 19 32 80 52
100 100 100 100 44 90 99 100 99 100 94 74 96 100 100 100 78 75 100 94 88 94 57 13 6 6 4 3 4 5 5 4 5 2 0 0 0 0 0 2 2 0 0 0 0 0 2 76 100 100 99 64 100 100
75 61 99 100 100 98 73 78 80 67 45 62 99 100 100 100 100 100 100 100 96 79 32 10 5 5 5 5 4 1 1 0 0 0 0 5 5 24 10 5 29 5 5 0 0 1 5 4 5 44 87 54 97 100

GFSWCAN_prec_cloud_120.txt.gz
Cloud_Cover
100 100 100 100 100 100 100 100 100 100 100 100 100 100 100 100 100 100 100 100 100 100 57 100 100 100 97 95 85 100 100 100 80 100 100 21 4 0 0 0 0 0 0 0 0 0 0 0 100 100 100 96 100 100
100 100 100 100 100 100 100 100 100 100 100 100 100 100 100 100 100 100 100 100 100 100 72 100 100 100 97 62 100 100 100 100 100 72 31 1 0 0 0 0 0 0 0 0 0 0 1 0 1 100 100 100 100 100
100 100 100 100 100 100 100 100 100 100 100 100 100 100 100 100 100 100 100 100 100 100 61 100 100 100 100 93 100 100 100 100 100 98 20 0 0 0 0 0 0 0 3 62 2 0 5 1 5 5 99 100 78 98
100 100 100 100 100 100 100 100 100 100 100 100 100 100 100 100 100 100 100 100 100 100 98 100 100 100 100 100 100 100 100 100 100 37 0 0 0 0 0 0 0 0 0 11 33 0 5 5 5 3 6 100 100 99
100 100 100 100 100 100 100 100 100 100 100 94 100 92 100 100 100 100 100 100 100 82 100 100 96 92 78 100 100 100 100 100 86 12 0 0 0 0 0 0 0 5 2 0 0 1 4 5 72 6 4 59 95 100
100 100 100 100 100 100 100 100 100 100 100 65 100 100 100 100 100 100 100 100 100 100 100 100 68 99 70 100 100 100 100 99 66 0 0 0 0 0 0 0 0 0 16 66 10 0 0 0 0 3 47 87 100 100
100 100 100 100 100 100 100 100 100 75 47 70 87 100 100 100 100 98 100 100 100 100 100 100 100 41 100 100 100 99 98 66 12 4 0 0 0 0 0 0 0 0 0 5 5 1 0 3 5 0 5 5 100 100
100 100 100 100 100 100 91 100 100 96 11 47 85 100 100 100 97 99 100 100 100 100 100 100 68 79 96 100 100 100 70 9 5 0 0 0 0 0 0 0 0 4 3 0 0 1 2 5 2 4 5 40 50 100
100 100 100 100 100 100 58 22 54 9 8 10 99 100 81 56 100 100 100 100 100 100 100 65 56 100 78 98 100 72 48 11 5 1 0 0 2 0 0 0 0 0 3 11 5 5 5 4 0 4 4 50 90 9
100 100 100 100 100 100 100 74 5 6 100 100 75 1 6 99 100 100 100 100 100 100 47 94 66 59 59 97 100 100 54 5 5 0 0 0 0 0 0 1 3 0 0 0 4 55 5 5 2 5 8 41 86 97
100 100 100 100 100 86 8 5 5 8 68 97 5 3 46 100 100 100 100 100 100 19 70 99 71 100 100 100 97 92 13 5 5 5 1 0 0 0 0 0 2 11 40 0 1 1 0 2 5 5 23 26 8 5
100 100 100 100 52 51 5 5 5 77 100 74 16 51 100 100 100 100 100 100 99 56 93 93 98 100 100 100 100 56 5 5 5 3 4 0 0 0 0 0 0 0 26 81 1 1 1 0 4 6 2 1 7 21
100 100 100 100 52 66 8 5 18 95 100 100 89 97 100 100 100 88 100 100 100 99 90 100 100 100 100 100 63 48 48 5 5 5 5 5 3 0 0 0 0 0 0 4 29 1 0 28 31 7 6 58 5 5
100 100 100 90 54 77 100 30 9 100 100 100 100 100 100 100 99 100 100 92 74 100 100 100 100 100 100 100 96 94 34 5 7 5 5 4 1 0 0 0 0 0 0 0 5 5 2 0 0 0 0 1 6 3
100 100 100 100 36 6 78 46 56 100 100 100 100 100 100 100 100 100 100 98 100 100 100 100 100 100 100 100 100 30 45 5 53 5 5 5 5 0 0 0 0 3 4 5 1 5 5 5 9 5 6 7 5 4
100 100 100 100 90 99 100 100 100 100 100 100 100 100 100 100 100 100 100 98 100 100 100 100 98 100 100 100 100 92 19 33 97 5 5 5 5 2 2 0 3 2 0 0 0 0 0 1 4 5 7 4 7 12
100 100 100 100 100 100 100 100 100 100 100 100 100 100 100 100 100 100 100 100 100 99 100 100 100 100 100 100 100 100 56 20 92 77 5 5 5 4 5 5 5 5 1 3 7 20 30 44 5 4 5 5 5 3
100 100 100 100 100 100 100 100 100 100 100 100 100 100 100 100 100 100 99 100 100 96 99 100 100 100 100 100 100 100 75 96 33 8 5 11 5 7 5 5 5 5 5 5 5 6 36 47 80 100 100 100 100 83
100 100 100 100 100 100 100 100 100 100 100 100 100 100 100 100 100 89 100 100 100 100 100 100 100 100 100 100 100 100 91 100 100 96 10 18 53 75 6 44 14 5 5 5 5 5 5 5 5 5 5 56 59 6
100 100 100 100 100 100 100 100 100 80 100 100 100 100 100 100 99 80 91 99 98 100 100 100 100 100 100 100 100 100 100 97 100 73 8 50 82 85 47 51 71 100 94 49 5 41 71 61 5 3 4 8 5 8
100 100 100 100 100 100 100 100 100 100 100 100 100 100 100 99 70 38 98 100 95 100 100 100 100 92 100 100 100 100 100 100 100 99 87 46 100 100 91 100 100 100 51 43 90 100 100 100 97 17 53 58 21 97
100 100 100 100 100 100 100 100 100 100 100 100 100 100 100 100 100 100 98 95 97 100 100 98 100 100 100 100 100 100 100 100 100 100 100 100 100 98 94 100 100 87 100 98 76 18 15 11 47 73 87 30 49 75
100 100 100 100 100 100 100 100 100 100 100 100 100 100 100 100 95 92 92 99 100 100 100 100 100 100 100 100 100 100 100 100 100 100 100 100 100 100 100 66 97 100 88 54 94 76 81 97 74 61 97 100 96 67
100 100 100 100 100 100 100 100 100 100 100 100 100 100 98 100 76 100 100 100 100 100 100 100 100 100 100 100 100 100 100 100 100 100 100 100 100 100 100 100 100 98 99 98 100 100 100 82 34 44 88 100 100 100
100 100 100 100 100 100 100 100 100 100 100 100 100 88 83 60 32 18 37 60 100 100 83 92 99 100 100 100 100 100 100 100 100 100 100 100 100 100 100 100 100 100 100 100 100 100 100 97 62 19 96 100 100 100
100 100 100 100 100 100 100 100 100 100 100 100 100 96 76 54 46 74 69 73 94 100 100 100 100 100 100 100 100 100 100 100 100 100 100 100 100 100 95 52 96 100 100 100 100 100 100 100 100 100 100 100 100 100
100 100 100 100 100 100 100 98 100 100 100 100 100 84 87 91 62 96 96 100 100 100 100 100 100 100 100 100 100 100 100 100 100 100 100 100 100 81 74 100 100 100 100 100 78 79 84 94 94 100 100 100 100 100
100 100 100 100 100 90 89 100 100 100 100 100 100 99 83 86 97 78 92 100 100 100 100 100 100 100 100 100 100 100 100 100 100 82 53 41 79 49 79 86 95 73 90 92 100 100 100 100 98 100 88 79 84 51
86 53 97 100 100 100 100 100 100 100 100 100 88 50 66 87 75 59 67 93 100 99 91 76 92 84 96 97 98 92 71 33 62 76 100 100 100 100 62 25 17 13 5 5 3 2 1 2 4 0 4 5 14 73
100 100 100 100 97 94 100 100 99 100 100 99 75 68 83 66 84 87 89 100 73 32 60 81 93 72 80 80 84 93 100 100 100 100 100 100 94 59 43 30 13 4 3 3 1 0 0 0 5 5 33 94 75 100
99 100 98 100 100 100 100 100 90 98 100 98 85 78 72 96 94 100 100 98 98 37 86 100 100 100 94 57 26 54 50 33 31 16 8 5 0 0 0 0 0 0 0 0 0 0 0 2 35 100 100 100 100 87
100 100 100 84 99 100 100 100 100 100 100 98 82 99 80 94 100 100 99 100 96 82 51 67 70 26 7 11 11 5 5 5 5 2 0 0 1 5 5 28 10 5 5 1 0 0 0 2 73 100 100 100 100 100
70 67 100 100 99 100 100 100 98 46 87 85 98 100 100 94 95 100 96 95 39 23 5 5 4 2 2 5 22 20 8 8 46 86 3 2 5 5 33 18 5 6 5 5 5 3 0 1 1 76 100 99 100 97

GFSWCAN_prec_cloud_123.txt.gz
Cloud_Cover
100 100 100 100 100 100 100 100 100 100 100 100 100 100 100 100 100 100 100 99 100 100 78 100 100 100 100 100 96 100 91 59 49 87 91 98 70 5 3 0 0 0 0 0 0 0 0 0 0 48 100 100 100 100
100 100 100 100 100 100 100 100 100 100 100 100 100 100 100 100 100 100 100 100 100 100 74 100 100 100 100 100 100 100 100 100 61 86 82 36 5 5 1 0 0 0 0 0 0 0 0 0 0 0 92 100 100 100
100 100 100 100 100 100 100 100 100 100 100 100 100 100 100 100 100 100 100 100 100 100 98 100 99 100 100 100 100 100 100 100 86 99 99 12 5 5 0 0 0 0 0 0 0 0 0 0 0 0 0 93 100 100
100 100 100 100 100 100 100 100 100 100 100 100 100 100 98 100 100 100 100 100 100 100 100 100 100 100 100 100 100 100 100 100 100 100 100 29 5 0 0 0 0 0 0 0 0 0 19 2 0 0 2 19 25 99
100 98 100 100 100 100 100 100 100 100 100 100 100 100 73 100 100 100 100 100 100 76 71 96 100 100 100 100 100 100 92 100 100 100 64 5 0 0 0 0 2 3 5 5 1 0 2 56 0 2 4 1 7 85
100 99 100 100 100 100 100 100 100 100 100 100 100 26 55 100 100 100 78 76 99 76 100 100 100 100 92 100 100 96 100 100 100 100 6 5 0 0 0 0 0 0 2 4 0 2 0 23 1 2 10 5 5 23
100 100 100 100 100 100 100 100 100 100 100 100 100 100 100 100 99 83 86 49 84 61 99 100 100 98 100 100 89 100 99 100 100 28 5 0 0 0 0 0 0 0 2 0 5 4 4 0 0 1 100 47 44 100
100 100 100 100 100 100 100 100 100 100 100 99 85 100 100 100 100 94 48 24 66 99 100 100 100 88 100 100 53 99 100 100 96 11 5 3 0 0 0 0 0 0 5 1 0 5 4 3 0 0 13 5 96 100
100 100 100 100 100 100 100 100 100 100 100 68 98 100 94 87 48 5 8 5 89 100 100 100 100 100 100 76 93 98 100 100 14 12 5 2 0 65 0 0 0 0 0 5 29 10 6 5 5 2 1 5 6 10
100 100 100 100 100 100 100 100 100 100 92 98 84 19 18 5 5 5 14 99 100 100 100 92 100 100 90 90 60 100 100 87 11 5 5 2 0 0 0 0 5 0 0 0 0 21 34 5 5 1 2 5 5 6
100 100 100 100 100 100 100 100 100 100 100 98 64 6 5 5 26 5 49 98 100 100 99 96 100 100 68 72 96 100 80 66 6 5 5 5 0 0 0 0 0 4 3 0 0 0 4 5 5 0 1 45 91 100
100 100 100 100 100 100 100 100 100 99 94 97 49 73 43 39 5 11 96 100 100 100 97 100 100 36 99 100 100 100 92 37 34 5 5 5 1 0 0 0 0 0 0 0 0 0 2 0 1 5 12 100 100 100
100 100 100 100 100 100 100 100 100 87 97 100 100 74 91 37 66 100 100 78 96 100 100 100 60 100 100 100 100 99 98 16 5 5 5 5 4 0 0 0 0 0 0 0 0 0 0 0 1 1 2 1 1 12
100 100 100 100 100 94 90 56 51 45 100 100 100 100 65 12 100 95 92 100 100 100 100 25 94 100 100 100 100 99 58 6 7 5 5 5 5 3 0 0 0 0 0 0 0 0 0 0 3 2 5 12 18 12
100 100 100 100 100 96 100 89 100 56 100 100 100 100 57 9 100 96 100 100 100 100 100 98 100 100 100 100 100 100 100 23 26 5 5 5 5 5 4 2 1 0 0 0 0 0 0 0 0 17 83 47 8 14
100 100 100 100 100 100 100 80 99 99 100 100 100 96 44 20 80 100 100 100 100 100 100 96 86 100 100 100 100 100 100 80 32 16 5 5 5 5 5 5 5 5 5 5 4 0 1 4 4 0 0 0 2 5
100 99 99 100 100 95 95 77 100 100 100 100 100 63 96 87 100 100 100 100 100 100 96 100 99 100 100 100 100 100 100 44 87 13 5 14 5 5 5 5 5 5 5 5 5 5 9 5 40 5 5 5 5 5
99 100 100 100 100 100 95 100 100 100 100 100 100 98 71 92 100 100 100 100 100 96 100 100 100 100 100 100 100 39 85 89 100 100 100 99 22 8 9 6 46 35 6 5 5 10 54 44 85 100 99 100 61 99
95 99 100 100 100 100 100 100 100 100 100 91 89 67 100 100 100 100 100 100 100 100 97 100 100 100 100 100 66 81 76 89 100 100 100 100 100 79 74 92 10 40 68 9 6 23 5 5 6 38 38 16 18 61
100 100 100 100 100 100 100 100 100 100 97 98 99 100 100 100 100 100 100 100 100 100 100 100 100 100 100 99 99 100 100 100 100 100 100 100 92 26 36 100 87 63 88 13 62 88 100 59 7 9 25 55 47 13
100 100 100 100 100 100 100 100 100 100 100 100 100 100 100 100 100 100 100 100 99 100 100 100 100 100 84 99 100 100 99 99 76 100 100 100 100 100 40 99 93 100 100 72 46 57 39 49 99 64 68 100 88 99
100 100 100 100 100 100 100 100 100 100 100 100 100 100 100 100 100 100 100 100 23 99 100 100 93 100 94 100 100 100 100 100 100 100 100 100 100 100 76 76 91 88 97 90 99 100 100 89 100 92 36 86 93 18
100 100 100 100 100 100 100 100 100 100 100 100 100 100 100 100 100 100 100 100 100 100 100 100 73 100 100 100 100 100 100 100 100 100 100 100 100 100 100 100 62 79 100 100 73 100 100 97 59 84 98 74 99 82
100 100 100 100 100 100 100 100 100 100 100 100 100 100 100 100 100 100 100 100 100 100 100 100 92 98 100 100 100 100 100 100 100 100 100 100 100 100 100 100 100 100 100 100 100 100 100 100 82 100 100 100 100 100
100 100 100 100 100 100 100 100 100 100 100 100 100 100 100 100 100 100 100 100 100 100 87 89 91 81 99 100 100 100 100 100 100 100 100 100 100 100 100 100 100 100 100 100 100 92 91 100 100 100 100 98 90 97
100 100 100 100 100 100 100 100 100 100 100 100 100 100 100 100 99 95 84 95 94 78 36 12 37 61 85 99 100 100 100 100 100 100 100 100 100 100 100 100 100 100 100 98 72 62 54 100 100 96 70 79 96 100
100 100 100 100 100 100 100 100 100 100 100 100 100 100 99 87 97 96 66 96 88 80 96 72 65 99 100 100 100 100 100 100 100 100 100 100 100 100 100 100 100 100 100 100 98 100 100 96 99 99 89 99 100 100
100 100 100 100 100 100 100 100 100 100 100 100 100 100 98 100 100 95 100 100 99 84 96 96 100 100 100 100 100 100 100 100 100 100 100 100 100 100 100 100 100 100 100 99 61 36 26 8 7 21 31 23 38 55
100 100 100 100 100 100 100 99 100 100 100 100 100 100 100 99 95 76 74 97 89 90 99 100 100 100 100 100 100 100 100 100 100 100 100 100 100 100 100 99 96 76 69 75 47 6 5 5 4 5 9 45 71 91
93 92 99 100 100 100 100 100 100 100 100 100 100 100 93 86 100 100 100 61 38 30 50 19 22 48 47 79 66 89 100 100 100 95 98 84 98 99 100 93 78 37 10 3 1 2 44 3 0 0 5 18 49 33
100 100 100 100 100 96 100 100 100 100 100 90 96 85 94 98 99 99 99 95 76 20 51 71 45 55 99 97 88 52 28 28 18 22 21 28 53 5 5 1 5 5 5 3 0 0 0 0 0 1 19 48 99 90
100 100 100 100 91 99 100 98 95 100 100 100 86 97 100 100 100 100 100 72 63 89 82 92 94 87 81 18 4 2 1 2 0 5 5 8 5 4 4 4 5 4 5 5 0 0 0 0 0 4 69 98 100 100
89 48 98 100 99 100 100 100 100 100 97 86 75 97 100 93 98 75 62 89 75 35 19 5 48 38 5 11 26 56 88 12 5 10 5 3 0 1 37 56 85 100 99 34 25 3 1 5 3 4 2 63 54 76